<?xml version='1.0' encoding='UTF-8'?><gpx version="1.1" creator="JPX - https://github.com/jenetics/jpx" xmlns="http://www.topografix.com/GPX/1/1"><trk><trkseg><trkpt lat="43.09724184012793" lon="11.785121837684423"><ele>533.0</ele><time>2026-03-25T10:38:03.999Z</time></trkpt><trkpt lat="43.09735412525323" lon="11.785142368622012"><ele>533.0</ele><time>2026-03-25T10:38:05.999Z</time></trkpt><trkpt lat="43.097487161812666" lon="11.785188471880826"><ele>533.0</ele><time>2026-03-25T10:38:09Z</time></trkpt><trkpt lat="43.0975900579978" lon="11.785216240314197"><ele>533.0</ele><time>2026-03-25T10:38:11Z</time></trkpt><trkpt lat="43.097698495178484" lon="11.78524519630437"><ele>531.8</ele><time>2026-03-25T10:38:13Z</time></trkpt><trkpt lat="43.09780514381907" lon="11.785303232087456"><ele>530.5999999999999</ele><time>2026-03-25T10:38:15Z</time></trkpt><trkpt lat="43.097885995928536" lon="11.785342940911386"><ele>529.4000000000001</ele><time>2026-03-25T10:38:17Z</time></trkpt><trkpt lat="43.097966448738426" lon="11.785376556714787"><ele>528.2</ele><time>2026-03-25T10:38:20Z</time></trkpt><trkpt lat="43.09803996223852" lon="11.785543420093632"><ele>527.0</ele><time>2026-03-25T10:38:21Z</time></trkpt><trkpt lat="43.09800582133475" lon="11.785685892846768"><ele>527.0</ele><time>2026-03-25T10:38:22Z</time></trkpt><trkpt lat="43.09801133309359" lon="11.785806080982564"><ele>527.0</ele><time>2026-03-25T10:38:23Z</time></trkpt><trkpt lat="43.09799691772848" lon="11.785933812745565"><ele>527.0</ele><time>2026-03-25T10:38:24Z</time></trkpt><trkpt lat="43.09797428150766" lon="11.78607034840933"><ele>527.0</ele><time>2026-03-25T10:38:25Z</time></trkpt><trkpt lat="43.09791924466611" lon="11.786200881793318"><ele>527.0</ele><time>2026-03-25T10:38:26Z</time></trkpt><trkpt lat="43.09784613522382" lon="11.786316918286596"><ele>524.5</ele><time>2026-03-25T10:38:27Z</time></trkpt><trkpt lat="43.09775514864694" lon="11.786423116901355"><ele>522.0</ele><time>2026-03-25T10:38:28Z</time></trkpt><trkpt lat="43.097656932544616" lon="11.786523450124234"><ele>519.5</ele><time>2026-03-25T10:38:29Z</time></trkpt><trkpt lat="43.09754271305409" lon="11.786612265189762"><ele>517.0</ele><time>2026-03-25T10:38:30Z</time></trkpt><trkpt lat="43.09742260467587" lon="11.786679144575647"><ele>517.0</ele><time>2026-03-25T10:38:31Z</time></trkpt><trkpt lat="43.09730040538902" lon="11.786717438705127"><ele>517.0</ele><time>2026-03-25T10:38:32Z</time></trkpt><trkpt lat="43.09717519909017" lon="11.786726305204814"><ele>517.0</ele><time>2026-03-25T10:38:33Z</time></trkpt><trkpt lat="43.09704148732978" lon="11.786693628793879"><ele>517.0</ele><time>2026-03-25T10:38:34Z</time></trkpt><trkpt lat="43.09691582432547" lon="11.786635328447012"><ele>517.0</ele><time>2026-03-25T10:38:35Z</time></trkpt><trkpt lat="43.0967888981551" lon="11.786538245216594"><ele>517.0</ele><time>2026-03-25T10:38:36Z</time></trkpt><trkpt lat="43.09665485543114" lon="11.7864217568581"><ele>517.0</ele><time>2026-03-25T10:38:37Z</time></trkpt><trkpt lat="43.096523717287724" lon="11.786311814440385"><ele>515.5</ele><time>2026-03-25T10:38:38Z</time></trkpt><trkpt lat="43.09639797482541" lon="11.786214599366975"><ele>514.0</ele><time>2026-03-25T10:38:39Z</time></trkpt><trkpt lat="43.09627339280491" lon="11.786120282382166"><ele>512.5</ele><time>2026-03-25T10:38:40Z</time></trkpt><trkpt lat="43.09615017181519" lon="11.786015571069468"><ele>511.0</ele><time>2026-03-25T10:38:41Z</time></trkpt><trkpt lat="43.096028150732884" lon="11.785909525791697"><ele>514.5</ele><time>2026-03-25T10:38:42Z</time></trkpt><trkpt lat="43.09591041980881" lon="11.785808703278446"><ele>518.0</ele><time>2026-03-25T10:38:43Z</time></trkpt><trkpt lat="43.09578419785115" lon="11.785717799650852"><ele>521.5</ele><time>2026-03-25T10:38:44Z</time></trkpt><trkpt lat="43.09565381229109" lon="11.785624699362817"><ele>525.0</ele><time>2026-03-25T10:38:45Z</time></trkpt><trkpt lat="43.09553892631791" lon="11.785501413018858"><ele>525.0</ele><time>2026-03-25T10:38:46Z</time></trkpt><trkpt lat="43.09543708664345" lon="11.785380658658601"><ele>525.0</ele><time>2026-03-25T10:38:47Z</time></trkpt><trkpt lat="43.09535106492656" lon="11.785270038168948"><ele>525.0</ele><time>2026-03-25T10:38:48Z</time></trkpt><trkpt lat="43.09528621551688" lon="11.785165110308231"><ele>525.0</ele><time>2026-03-25T10:38:49Z</time></trkpt><trkpt lat="43.0952327416665" lon="11.785056140414596"><ele>525.0</ele><time>2026-03-25T10:38:50Z</time></trkpt><trkpt lat="43.095211692040714" lon="11.784910450944142"><ele>526.75</ele><time>2026-03-25T10:38:51Z</time></trkpt><trkpt lat="43.09519712183062" lon="11.78474175833018"><ele>528.5</ele><time>2026-03-25T10:38:52Z</time></trkpt><trkpt lat="43.09517827204835" lon="11.78456548190112"><ele>530.25</ele><time>2026-03-25T10:38:53Z</time></trkpt><trkpt lat="43.0951658301699" lon="11.784379424022518"><ele>532.0</ele><time>2026-03-25T10:38:54Z</time></trkpt><trkpt lat="43.09514087413197" lon="11.784207576125182"><ele>533.25</ele><time>2026-03-25T10:38:55Z</time></trkpt><trkpt lat="43.095099740823954" lon="11.784050367423145"><ele>534.5</ele><time>2026-03-25T10:38:56Z</time></trkpt><trkpt lat="43.09504044210036" lon="11.783900513722559"><ele>535.75</ele><time>2026-03-25T10:38:57Z</time></trkpt><trkpt lat="43.09494991712463" lon="11.783764309143622"><ele>537.0</ele><time>2026-03-25T10:38:58Z</time></trkpt><trkpt lat="43.09484032552547" lon="11.783642635509885"><ele>536.5</ele><time>2026-03-25T10:38:59Z</time></trkpt><trkpt lat="43.09472188597993" lon="11.783532864559765"><ele>536.0</ele><time>2026-03-25T10:39:00Z</time></trkpt><trkpt lat="43.09460678818354" lon="11.783438012179339"><ele>535.5</ele><time>2026-03-25T10:39:01Z</time></trkpt><trkpt lat="43.094494664880415" lon="11.783351997889095"><ele>535.0</ele><time>2026-03-25T10:39:02Z</time></trkpt><trkpt lat="43.09438738989137" lon="11.783286823569197"><ele>535.0</ele><time>2026-03-25T10:39:02.999Z</time></trkpt><trkpt lat="43.09427835673644" lon="11.783238397770392"><ele>535.0</ele><time>2026-03-25T10:39:03.999Z</time></trkpt><trkpt lat="43.094168246669895" lon="11.78319727715232"><ele>535.0</ele><time>2026-03-25T10:39:04.999Z</time></trkpt><trkpt lat="43.094069427771494" lon="11.783165705427768"><ele>535.0</ele><time>2026-03-25T10:39:05.999Z</time></trkpt><trkpt lat="43.09397749155141" lon="11.7831561402617"><ele>535.0</ele><time>2026-03-25T10:39:06.999Z</time></trkpt><trkpt lat="43.093886506068046" lon="11.783183954878492"><ele>538.5</ele><time>2026-03-25T10:39:07.999Z</time></trkpt><trkpt lat="43.09379135464266" lon="11.783229289942682"><ele>542.0</ele><time>2026-03-25T10:39:08.999Z</time></trkpt><trkpt lat="43.09367945534644" lon="11.783258507410785"><ele>545.5</ele><time>2026-03-25T10:39:09.999Z</time></trkpt><trkpt lat="43.093570805957704" lon="11.783331941534813"><ele>549.0</ele><time>2026-03-25T10:39:10.999Z</time></trkpt><trkpt lat="43.09345540576268" lon="11.78338418874761"><ele>549.0</ele><time>2026-03-25T10:39:11.999Z</time></trkpt><trkpt lat="43.093336855116654" lon="11.783417485072555"><ele>549.0</ele><time>2026-03-25T10:39:12.999Z</time></trkpt><trkpt lat="43.09322120807739" lon="11.783443017257689"><ele>549.0</ele><time>2026-03-25T10:39:13.999Z</time></trkpt><trkpt lat="43.09310210827891" lon="11.783437799011738"><ele>549.0</ele><time>2026-03-25T10:39:14.999Z</time></trkpt><trkpt lat="43.09298650621757" lon="11.783420156644123"><ele>549.75</ele><time>2026-03-25T10:39:15.999Z</time></trkpt><trkpt lat="43.09285444814754" lon="11.783392794013224"><ele>550.5</ele><time>2026-03-25T10:39:16.999Z</time></trkpt><trkpt lat="43.09271828720184" lon="11.783340477215265"><ele>551.25</ele><time>2026-03-25T10:39:17.999Z</time></trkpt><trkpt lat="43.092586663159516" lon="11.783272368921873"><ele>552.0</ele><time>2026-03-25T10:39:18.999Z</time></trkpt><trkpt lat="43.092471386591335" lon="11.783202719618663"><ele>549.2</ele><time>2026-03-25T10:39:19.999Z</time></trkpt><trkpt lat="43.09235596206095" lon="11.783116826035968"><ele>546.4000000000001</ele><time>2026-03-25T10:39:20.999Z</time></trkpt><trkpt lat="43.092263513995896" lon="11.783025170894673"><ele>543.5999999999999</ele><time>2026-03-25T10:39:21.999Z</time></trkpt><trkpt lat="43.09217540700172" lon="11.782948454347142"><ele>540.8</ele><time>2026-03-25T10:39:22.999Z</time></trkpt><trkpt lat="43.09208418975069" lon="11.782895862447523"><ele>538.0</ele><time>2026-03-25T10:39:23.999Z</time></trkpt><trkpt lat="43.09199888682767" lon="11.782814381012576"><ele>538.0</ele><time>2026-03-25T10:39:24.999Z</time></trkpt><trkpt lat="43.09191616727858" lon="11.782718591644732"><ele>538.0</ele><time>2026-03-25T10:39:25.999Z</time></trkpt><trkpt lat="43.09183373464478" lon="11.782607896223665"><ele>538.0</ele><time>2026-03-25T10:39:26.999Z</time></trkpt><trkpt lat="43.091753698282915" lon="11.782535285378184"><ele>538.0</ele><time>2026-03-25T10:39:27.999Z</time></trkpt><trkpt lat="43.09167547157352" lon="11.782461994820432"><ele>538.0</ele><time>2026-03-25T10:39:28.999Z</time></trkpt><trkpt lat="43.091594733173956" lon="11.782381193839191"><ele>540.6</ele><time>2026-03-25T10:39:29.999Z</time></trkpt><trkpt lat="43.09151787983653" lon="11.78232298032399"><ele>543.1999999999999</ele><time>2026-03-25T10:39:30.999Z</time></trkpt><trkpt lat="43.091444553269504" lon="11.78229383919573"><ele>545.8</ele><time>2026-03-25T10:39:31.999Z</time></trkpt><trkpt lat="43.09136684605965" lon="11.782283242724304"><ele>548.4</ele><time>2026-03-25T10:39:32.999Z</time></trkpt><trkpt lat="43.09129538432171" lon="11.782286834611606"><ele>551.0</ele><time>2026-03-25T10:39:33.999Z</time></trkpt><trkpt lat="43.091153632720655" lon="11.782290938531492"><ele>551.0</ele><time>2026-03-25T10:39:35.999Z</time></trkpt><trkpt lat="43.09105328746949" lon="11.782276746729723"><ele>551.0</ele><time>2026-03-25T10:39:36.999Z</time></trkpt><trkpt lat="43.09095113190514" lon="11.782250504323573"><ele>551.0</ele><time>2026-03-25T10:39:37.999Z</time></trkpt><trkpt lat="43.09084970951987" lon="11.782193781549683"><ele>551.0</ele><time>2026-03-25T10:39:38.999Z</time></trkpt><trkpt lat="43.09074349732715" lon="11.782147763348751"><ele>551.0</ele><time>2026-03-25T10:39:39.999Z</time></trkpt><trkpt lat="43.09063342218511" lon="11.782099153212691"><ele>547.25</ele><time>2026-03-25T10:39:40.999Z</time></trkpt><trkpt lat="43.09051388098875" lon="11.782050887780438"><ele>543.5</ele><time>2026-03-25T10:39:41.999Z</time></trkpt><trkpt lat="43.09040138321447" lon="11.782007920659561"><ele>539.75</ele><time>2026-03-25T10:39:42.999Z</time></trkpt><trkpt lat="43.090299400144275" lon="11.781960163085298"><ele>536.0</ele><time>2026-03-25T10:39:43.999Z</time></trkpt><trkpt lat="43.090201848796845" lon="11.781912689740343"><ele>536.0</ele><time>2026-03-25T10:39:44.999Z</time></trkpt><trkpt lat="43.09010142457548" lon="11.781867856248532"><ele>536.0</ele><time>2026-03-25T10:39:45.999Z</time></trkpt><trkpt lat="43.09000522246572" lon="11.781820651368518"><ele>536.0</ele><time>2026-03-25T10:39:46.999Z</time></trkpt><trkpt lat="43.08992275731566" lon="11.78176751718709"><ele>536.0</ele><time>2026-03-25T10:39:47.999Z</time></trkpt><trkpt lat="43.08983645872203" lon="11.781692726325035"><ele>536.0</ele><time>2026-03-25T10:39:48.999Z</time></trkpt><trkpt lat="43.08975336845619" lon="11.781597387896086"><ele>535.2</ele><time>2026-03-25T10:39:49.999Z</time></trkpt><trkpt lat="43.08968026388344" lon="11.78148228148828"><ele>534.4000000000001</ele><time>2026-03-25T10:39:50.999Z</time></trkpt><trkpt lat="43.08962301003965" lon="11.781345446699817"><ele>533.6</ele><time>2026-03-25T10:39:51.999Z</time></trkpt><trkpt lat="43.08958011626664" lon="11.781220838733987"><ele>532.8000000000001</ele><time>2026-03-25T10:39:52.999Z</time></trkpt><trkpt lat="43.089537606966765" lon="11.78110983499159"><ele>532.0</ele><time>2026-03-25T10:39:53.999Z</time></trkpt><trkpt lat="43.08949525454059" lon="11.781002606293853"><ele>532.0</ele><time>2026-03-25T10:39:54.999Z</time></trkpt><trkpt lat="43.089442829306286" lon="11.780869214980173"><ele>532.0</ele><time>2026-03-25T10:39:55.999Z</time></trkpt><trkpt lat="43.089388249648714" lon="11.780712173869588"><ele>532.0</ele><time>2026-03-25T10:39:56.999Z</time></trkpt><trkpt lat="43.08932213683889" lon="11.780553970624586"><ele>532.0</ele><time>2026-03-25T10:39:57.999Z</time></trkpt><trkpt lat="43.08923626866224" lon="11.780400150874103"><ele>532.0</ele><time>2026-03-25T10:39:58.999Z</time></trkpt><trkpt lat="43.089146617314164" lon="11.78024755620383"><ele>532.0</ele><time>2026-03-25T10:39:59.999Z</time></trkpt><trkpt lat="43.08905346378516" lon="11.780091565504575"><ele>532.0</ele><time>2026-03-25T10:40:00.999Z</time></trkpt><trkpt lat="43.08895637985584" lon="11.77992890879565"><ele>532.0</ele><time>2026-03-25T10:40:01.999Z</time></trkpt><trkpt lat="43.08886309976173" lon="11.779765618905673"><ele>530.25</ele><time>2026-03-25T10:40:02.999Z</time></trkpt><trkpt lat="43.088773549406994" lon="11.779608570858038"><ele>528.5</ele><time>2026-03-25T10:40:03.999Z</time></trkpt><trkpt lat="43.088681606813886" lon="11.779461425957905"><ele>526.75</ele><time>2026-03-25T10:40:04.999Z</time></trkpt><trkpt lat="43.0885952694031" lon="11.77932851526232"><ele>525.0</ele><time>2026-03-25T10:40:05.999Z</time></trkpt><trkpt lat="43.08852242464893" lon="11.779201738213885"><ele>525.0</ele><time>2026-03-25T10:40:06.999Z</time></trkpt><trkpt lat="43.088467170219516" lon="11.779065741369841"><ele>525.0</ele><time>2026-03-25T10:40:07.999Z</time></trkpt><trkpt lat="43.08841281301146" lon="11.778922741832677"><ele>525.0</ele><time>2026-03-25T10:40:08.999Z</time></trkpt><trkpt lat="43.08836961350659" lon="11.778761063091908"><ele>525.0</ele><time>2026-03-25T10:40:09.999Z</time></trkpt><trkpt lat="43.088339046617996" lon="11.77859662303723"><ele>526.75</ele><time>2026-03-25T10:40:10.999Z</time></trkpt><trkpt lat="43.08830183191551" lon="11.77841254807327"><ele>528.5</ele><time>2026-03-25T10:40:11.999Z</time></trkpt><trkpt lat="43.088266573826694" lon="11.778227818878152"><ele>530.25</ele><time>2026-03-25T10:40:12.999Z</time></trkpt><trkpt lat="43.08821937148186" lon="11.778053046560567"><ele>532.0</ele><time>2026-03-25T10:40:14Z</time></trkpt><trkpt lat="43.08814226059508" lon="11.77787866481811"><ele>526.75</ele><time>2026-03-25T10:40:15Z</time></trkpt><trkpt lat="43.088049208144504" lon="11.777704016951311"><ele>521.5</ele><time>2026-03-25T10:40:16Z</time></trkpt><trkpt lat="43.087968871469236" lon="11.777555362789814"><ele>516.25</ele><time>2026-03-25T10:40:17Z</time></trkpt><trkpt lat="43.08790381317533" lon="11.777394504554492"><ele>511.0</ele><time>2026-03-25T10:40:18Z</time></trkpt><trkpt lat="43.087820952717706" lon="11.7772589042734"><ele>511.0</ele><time>2026-03-25T10:40:19Z</time></trkpt><trkpt lat="43.08775041112822" lon="11.777118779587397"><ele>511.0</ele><time>2026-03-25T10:40:20Z</time></trkpt><trkpt lat="43.08768467099501" lon="11.776979907801731"><ele>511.0</ele><time>2026-03-25T10:40:21Z</time></trkpt><trkpt lat="43.0876305225368" lon="11.776856279318935"><ele>511.0</ele><time>2026-03-25T10:40:22Z</time></trkpt><trkpt lat="43.08758071834074" lon="11.776749521704042"><ele>511.0</ele><time>2026-03-25T10:40:23Z</time></trkpt><trkpt lat="43.08753990952943" lon="11.77665476833422"><ele>511.6</ele><time>2026-03-25T10:40:24Z</time></trkpt><trkpt lat="43.087502266456966" lon="11.776561396491159"><ele>512.2</ele><time>2026-03-25T10:40:25Z</time></trkpt><trkpt lat="43.087469902926316" lon="11.776455205550421"><ele>512.8</ele><time>2026-03-25T10:40:26Z</time></trkpt><trkpt lat="43.08744074431471" lon="11.776336562491208"><ele>513.4</ele><time>2026-03-25T10:40:27Z</time></trkpt><trkpt lat="43.08739823325802" lon="11.776155826621066"><ele>514.0</ele><time>2026-03-25T10:40:29Z</time></trkpt><trkpt lat="43.08737602308335" lon="11.776060137376648"><ele>514.0</ele><time>2026-03-25T10:40:31Z</time></trkpt><trkpt lat="43.08754425739978" lon="11.7760680383789"><ele>514.0</ele><time>2026-03-25T10:40:34Z</time></trkpt><trkpt lat="43.08762923293921" lon="11.776038503814569"><ele>514.0</ele><time>2026-03-25T10:40:35Z</time></trkpt><trkpt lat="43.087731239101856" lon="11.776002725055182"><ele>514.0</ele><time>2026-03-25T10:40:36Z</time></trkpt><trkpt lat="43.08784546038633" lon="11.77596275001217"><ele>513.75</ele><time>2026-03-25T10:40:37Z</time></trkpt><trkpt lat="43.08793707631422" lon="11.775817020833209"><ele>513.5</ele><time>2026-03-25T10:40:38Z</time></trkpt><trkpt lat="43.08804910667165" lon="11.775789086977422"><ele>513.25</ele><time>2026-03-25T10:40:39Z</time></trkpt><trkpt lat="43.08816239854655" lon="11.77575334386284"><ele>513.0</ele><time>2026-03-25T10:40:40Z</time></trkpt><trkpt lat="43.08827343491287" lon="11.775729566511798"><ele>513.0</ele><time>2026-03-25T10:40:41Z</time></trkpt><trkpt lat="43.088379318082794" lon="11.775684057432082"><ele>513.0</ele><time>2026-03-25T10:40:42Z</time></trkpt><trkpt lat="43.08847977350344" lon="11.77565113064514"><ele>513.0</ele><time>2026-03-25T10:40:43Z</time></trkpt><trkpt lat="43.08858339386289" lon="11.775616977855671"><ele>513.0</ele><time>2026-03-25T10:40:44Z</time></trkpt><trkpt lat="43.0886979911474" lon="11.775577568275523"><ele>513.0</ele><time>2026-03-25T10:40:45Z</time></trkpt><trkpt lat="43.088807589776984" lon="11.775544013493194"><ele>513.0</ele><time>2026-03-25T10:40:46Z</time></trkpt><trkpt lat="43.08890313268624" lon="11.775519265076618"><ele>513.0</ele><time>2026-03-25T10:40:47Z</time></trkpt><trkpt lat="43.08898321334395" lon="11.775497599108817"><ele>513.0</ele><time>2026-03-25T10:40:48Z</time></trkpt><trkpt lat="43.08905805349987" lon="11.775477627342923"><ele>513.0</ele><time>2026-03-25T10:40:49Z</time></trkpt><trkpt lat="43.08913320022361" lon="11.775451838234705"><ele>513.0</ele><time>2026-03-25T10:40:50Z</time></trkpt><trkpt lat="43.08920059543312" lon="11.775418732262894"><ele>513.0</ele><time>2026-03-25T10:40:51Z</time></trkpt><trkpt lat="43.08927761547123" lon="11.775389759388787"><ele>512.6666666666666</ele><time>2026-03-25T10:40:52Z</time></trkpt><trkpt lat="43.08935051814391" lon="11.775366374525522"><ele>512.3333333333334</ele><time>2026-03-25T10:40:53Z</time></trkpt><trkpt lat="43.08942161949221" lon="11.775345933225028"><ele>512.0</ele><time>2026-03-25T10:40:54Z</time></trkpt><trkpt lat="43.089485404561586" lon="11.775327774581438"><ele>511.6666666666667</ele><time>2026-03-25T10:40:55Z</time></trkpt><trkpt lat="43.08958952766199" lon="11.775295803440768"><ele>511.33333333333337</ele><time>2026-03-25T10:40:57Z</time></trkpt><trkpt lat="43.08969417372636" lon="11.775270488191207"><ele>511.0</ele><time>2026-03-25T10:40:58.999Z</time></trkpt><trkpt lat="43.08980124677678" lon="11.775237025922387"><ele>510.33333333333337</ele><time>2026-03-25T10:41:00.999Z</time></trkpt><trkpt lat="43.089927672474126" lon="11.775188238810285"><ele>509.6666666666667</ele><time>2026-03-25T10:41:02.999Z</time></trkpt><trkpt lat="43.090000414348594" lon="11.77516146294008"><ele>509.0</ele><time>2026-03-25T10:41:03.999Z</time></trkpt><trkpt lat="43.09007333634367" lon="11.77513717572912"><ele>508.33333333333337</ele><time>2026-03-25T10:41:04.999Z</time></trkpt><trkpt lat="43.09015036647102" lon="11.775116216072192"><ele>507.6666666666667</ele><time>2026-03-25T10:41:05.999Z</time></trkpt><trkpt lat="43.09022444048701" lon="11.775095407475673"><ele>507.0</ele><time>2026-03-25T10:41:06.999Z</time></trkpt><trkpt lat="43.09029016488064" lon="11.775079056438047"><ele>506.42857142857144</ele><time>2026-03-25T10:41:07.999Z</time></trkpt><trkpt lat="43.09035520031316" lon="11.775060039975427"><ele>505.8571428571429</ele><time>2026-03-25T10:41:08.999Z</time></trkpt><trkpt lat="43.0904200478823" lon="11.775048907950183"><ele>505.28571428571433</ele><time>2026-03-25T10:41:09.999Z</time></trkpt><trkpt lat="43.090498019123274" lon="11.775086365490196"><ele>504.7142857142857</ele><time>2026-03-25T10:41:10.999Z</time></trkpt><trkpt lat="43.090577615096606" lon="11.77508528269361"><ele>504.1428571428572</ele><time>2026-03-25T10:41:11.999Z</time></trkpt><trkpt lat="43.09065268672806" lon="11.775104898552312"><ele>503.5714285714286</ele><time>2026-03-25T10:41:12.999Z</time></trkpt><trkpt lat="43.09072871892984" lon="11.7751189928015"><ele>503.0</ele><time>2026-03-25T10:41:13.999Z</time></trkpt><trkpt lat="43.09080348905083" lon="11.775120149970597"><ele>503.0</ele><time>2026-03-25T10:41:14.999Z</time></trkpt><trkpt lat="43.09087988197057" lon="11.7751078082726"><ele>502.99999999999994</ele><time>2026-03-25T10:41:15.999Z</time></trkpt><trkpt lat="43.090954476556" lon="11.775099023149163"><ele>502.99999999999994</ele><time>2026-03-25T10:41:16.999Z</time></trkpt><trkpt lat="43.09101882570162" lon="11.775111621354316"><ele>503.0</ele><time>2026-03-25T10:41:17.999Z</time></trkpt><trkpt lat="43.0910992308004" lon="11.775074851709679"><ele>503.0</ele><time>2026-03-25T10:41:19.999Z</time></trkpt><trkpt lat="43.091186388864394" lon="11.775286234043728"><ele>503.99999999999994</ele><time>2026-03-25T10:41:22.999Z</time></trkpt><trkpt lat="43.09122947384508" lon="11.775384038067392"><ele>505.0</ele><time>2026-03-25T10:41:23.999Z</time></trkpt><trkpt lat="43.091279179240495" lon="11.775468647860297"><ele>506.0</ele><time>2026-03-25T10:41:24.999Z</time></trkpt><trkpt lat="43.091318927935525" lon="11.775565435403033"><ele>507.0</ele><time>2026-03-25T10:41:25.999Z</time></trkpt><trkpt lat="43.09136206340952" lon="11.775665856198557"><ele>507.99999999999994</ele><time>2026-03-25T10:41:26.999Z</time></trkpt><trkpt lat="43.09140599539618" lon="11.77576790877572"><ele>509.0</ele><time>2026-03-25T10:41:27.999Z</time></trkpt><trkpt lat="43.09145383460432" lon="11.775864616934205"><ele>508.99999999999994</ele><time>2026-03-25T10:41:28.999Z</time></trkpt><trkpt lat="43.091492591588576" lon="11.775968321213645"><ele>509.0</ele><time>2026-03-25T10:41:29.999Z</time></trkpt><trkpt lat="43.0915398123754" lon="11.776068942587093"><ele>509.0</ele><time>2026-03-25T10:41:30.999Z</time></trkpt><trkpt lat="43.09158686302107" lon="11.776171671147083"><ele>509.0</ele><time>2026-03-25T10:41:31.999Z</time></trkpt><trkpt lat="43.09163197338388" lon="11.776271388236916"><ele>508.99999999999994</ele><time>2026-03-25T10:41:32.999Z</time></trkpt><trkpt lat="43.09167417901719" lon="11.776380216088743"><ele>509.0</ele><time>2026-03-25T10:41:33.999Z</time></trkpt><trkpt lat="43.09171985098596" lon="11.77649200374188"><ele>511.6</ele><time>2026-03-25T10:41:34.999Z</time></trkpt><trkpt lat="43.09176560034279" lon="11.776613120513916"><ele>514.2</ele><time>2026-03-25T10:41:35.999Z</time></trkpt><trkpt lat="43.09181625089267" lon="11.776738483269385"><ele>516.8000000000001</ele><time>2026-03-25T10:41:36.999Z</time></trkpt><trkpt lat="43.091864271903056" lon="11.776866192698433"><ele>519.4</ele><time>2026-03-25T10:41:37.999Z</time></trkpt><trkpt lat="43.0919215271593" lon="11.776994711616403"><ele>522.0</ele><time>2026-03-25T10:41:38.999Z</time></trkpt><trkpt lat="43.091986876786706" lon="11.777107526758206"><ele>525.6</ele><time>2026-03-25T10:41:39.999Z</time></trkpt><trkpt lat="43.092065663767926" lon="11.777214215970256"><ele>529.2</ele><time>2026-03-25T10:41:40.999Z</time></trkpt><trkpt lat="43.09213303015062" lon="11.777335314096579"><ele>532.8</ele><time>2026-03-25T10:41:41.999Z</time></trkpt><trkpt lat="43.09220629770891" lon="11.777437420117403"><ele>536.4</ele><time>2026-03-25T10:41:42.999Z</time></trkpt><trkpt lat="43.09226178646917" lon="11.777529091890164"><ele>540.0</ele><time>2026-03-25T10:41:43.999Z</time></trkpt><trkpt lat="43.09231029609273" lon="11.77760039106875"><ele>542.2</ele><time>2026-03-25T10:41:44.999Z</time></trkpt><trkpt lat="43.092370883539125" lon="11.77770843492193"><ele>544.4</ele><time>2026-03-25T10:41:46.999Z</time></trkpt><trkpt lat="43.092459471439014" lon="11.77767818059204"><ele>546.6</ele><time>2026-03-25T10:41:47.999Z</time></trkpt><trkpt lat="43.09254263932949" lon="11.777709176583324"><ele>548.8</ele><time>2026-03-25T10:41:48.999Z</time></trkpt><trkpt lat="43.092647220194955" lon="11.777752773035706"><ele>551.0</ele><time>2026-03-25T10:41:49.999Z</time></trkpt><trkpt lat="43.09274636331095" lon="11.77777046739696"><ele>551.0</ele><time>2026-03-25T10:41:50.999Z</time></trkpt><trkpt lat="43.09282337302124" lon="11.77781486621873"><ele>551.0</ele><time>2026-03-25T10:41:51.999Z</time></trkpt><trkpt lat="43.092912338508846" lon="11.777843482872406"><ele>551.0</ele><time>2026-03-25T10:41:52.999Z</time></trkpt><trkpt lat="43.09300183041565" lon="11.77787659154439"><ele>551.0</ele><time>2026-03-25T10:41:53.999Z</time></trkpt><trkpt lat="43.09307591558492" lon="11.777928412628144"><ele>551.0</ele><time>2026-03-25T10:41:54.999Z</time></trkpt><trkpt lat="43.09315199770412" lon="11.777944020467002"><ele>551.0</ele><time>2026-03-25T10:41:55.999Z</time></trkpt><trkpt lat="43.093261867253794" lon="11.777954365820245"><ele>547.2</ele><time>2026-03-25T10:41:57.999Z</time></trkpt><trkpt lat="43.09332466597269" lon="11.777940353519133"><ele>543.4000000000001</ele><time>2026-03-25T10:42:00.999Z</time></trkpt><trkpt lat="43.09345107900317" lon="11.77790068205276"><ele>539.6</ele><time>2026-03-25T10:42:02.999Z</time></trkpt><trkpt lat="43.09353045816115" lon="11.777881956250782"><ele>535.8000000000001</ele><time>2026-03-25T10:42:03.999Z</time></trkpt><trkpt lat="43.093625200474385" lon="11.7780493450169"><ele>532.0</ele><time>2026-03-25T10:42:04.999Z</time></trkpt><trkpt lat="43.09369849413853" lon="11.778065885832433"><ele>532.0</ele><time>2026-03-25T10:42:05.999Z</time></trkpt><trkpt lat="43.093767297432606" lon="11.778098175637156"><ele>532.0</ele><time>2026-03-25T10:42:06.999Z</time></trkpt><trkpt lat="43.09383855093933" lon="11.778134582747613"><ele>532.0</ele><time>2026-03-25T10:42:07.999Z</time></trkpt><trkpt lat="43.093911373859726" lon="11.778147362641608"><ele>532.0</ele><time>2026-03-25T10:42:08.999Z</time></trkpt><trkpt lat="43.09398476393362" lon="11.77814647680913"><ele>532.0</ele><time>2026-03-25T10:42:09.999Z</time></trkpt><trkpt lat="43.09404671721315" lon="11.778112444590134"><ele>532.0</ele><time>2026-03-25T10:42:11.999Z</time></trkpt><trkpt lat="43.09410878902103" lon="11.77804725071094"><ele>532.0</ele><time>2026-03-25T10:42:15.999Z</time></trkpt><trkpt lat="43.09416375864808" lon="11.777944269035151"><ele>528.2</ele><time>2026-03-25T10:42:18.998Z</time></trkpt><trkpt lat="43.09422221024013" lon="11.777834997832262"><ele>524.4000000000001</ele><time>2026-03-25T10:42:21Z</time></trkpt><trkpt lat="43.094301500412634" lon="11.7777094399434"><ele>520.5999999999999</ele><time>2026-03-25T10:42:22.999Z</time></trkpt><trkpt lat="43.0943371336472" lon="11.777627860870906"><ele>516.8</ele><time>2026-03-25T10:42:24Z</time></trkpt><trkpt lat="43.09440455980287" lon="11.777456787179737"><ele>513.0</ele><time>2026-03-25T10:42:26Z</time></trkpt><trkpt lat="43.09443288474184" lon="11.77736904898201"><ele>511.2</ele><time>2026-03-25T10:42:27Z</time></trkpt><trkpt lat="43.09446113895164" lon="11.777285737465688"><ele>509.4</ele><time>2026-03-25T10:42:28Z</time></trkpt><trkpt lat="43.094500082860705" lon="11.777146087682949"><ele>507.59999999999997</ele><time>2026-03-25T10:42:30Z</time></trkpt><trkpt lat="43.094528383112284" lon="11.777001340030482"><ele>505.79999999999995</ele><time>2026-03-25T10:42:32Z</time></trkpt><trkpt lat="43.094540251805824" lon="11.776870586569785"><ele>504.0</ele><time>2026-03-25T10:42:34Z</time></trkpt><trkpt lat="43.09451543571562" lon="11.77671092420109"><ele>503.0</ele><time>2026-03-25T10:42:36Z</time></trkpt><trkpt lat="43.094641791233514" lon="11.776613877789242"><ele>502.0</ele><time>2026-03-25T10:42:38Z</time></trkpt><trkpt lat="43.094665456236434" lon="11.776522781890487"><ele>501.0</ele><time>2026-03-25T10:42:40Z</time></trkpt><trkpt lat="43.09469431860777" lon="11.776437998586745"><ele>500.0</ele><time>2026-03-25T10:42:42Z</time></trkpt><trkpt lat="43.09472878446861" lon="11.776355173102775"><ele>499.0</ele><time>2026-03-25T10:42:44Z</time></trkpt><trkpt lat="43.094785401981376" lon="11.776233066200653"><ele>499.0</ele><time>2026-03-25T10:42:45.999Z</time></trkpt><trkpt lat="43.09484487125892" lon="11.776120010743366"><ele>499.0</ele><time>2026-03-25T10:42:47.999Z</time></trkpt><trkpt lat="43.09490791377178" lon="11.776005019672171"><ele>499.0</ele><time>2026-03-25T10:42:49.999Z</time></trkpt><trkpt lat="43.09496894597805" lon="11.775872037140383"><ele>499.0</ele><time>2026-03-25T10:42:51.999Z</time></trkpt><trkpt lat="43.094997072722066" lon="11.77579349870808"><ele>499.0</ele><time>2026-03-25T10:42:52.999Z</time></trkpt><trkpt lat="43.094967158715626" lon="11.77568260466966"><ele>495.83333333333337</ele><time>2026-03-25T10:42:53.999Z</time></trkpt><trkpt lat="43.09503213591317" lon="11.77553709739977"><ele>492.6666666666667</ele><time>2026-03-25T10:42:55.999Z</time></trkpt><trkpt lat="43.09507206785689" lon="11.775456977804614"><ele>489.5</ele><time>2026-03-25T10:42:56.999Z</time></trkpt><trkpt lat="43.09511056545851" lon="11.775376490706579"><ele>486.33333333333337</ele><time>2026-03-25T10:42:57.999Z</time></trkpt><trkpt lat="43.09516824240453" lon="11.775250546109685"><ele>483.1666666666667</ele><time>2026-03-25T10:42:59.999Z</time></trkpt><trkpt lat="43.095187007944894" lon="11.77516602884179"><ele>480.0</ele><time>2026-03-25T10:43:01.999Z</time></trkpt><trkpt lat="43.09523618174994" lon="11.775050088086365"><ele>478.8333333333333</ele><time>2026-03-25T10:43:07.999Z</time></trkpt><trkpt lat="43.09531209352631" lon="11.774970169911455"><ele>477.66666666666663</ele><time>2026-03-25T10:43:08.999Z</time></trkpt><trkpt lat="43.09538006411803" lon="11.774872346170731"><ele>476.5</ele><time>2026-03-25T10:43:09.999Z</time></trkpt><trkpt lat="43.09543479016771" lon="11.774811840148653"><ele>475.3333333333333</ele><time>2026-03-25T10:43:10.999Z</time></trkpt><trkpt lat="43.095493863780625" lon="11.774732600831738"><ele>474.16666666666663</ele><time>2026-03-25T10:43:11.999Z</time></trkpt><trkpt lat="43.09554776157225" lon="11.774652427476646"><ele>473.0</ele><time>2026-03-25T10:43:12.999Z</time></trkpt><trkpt lat="43.09562718120634" lon="11.774577629289015"><ele>473.0</ele><time>2026-03-25T10:43:13.999Z</time></trkpt><trkpt lat="43.0956775879402" lon="11.774479769966408"><ele>472.99999999999994</ele><time>2026-03-25T10:43:14.999Z</time></trkpt><trkpt lat="43.09574714953176" lon="11.774415798645498"><ele>472.99999999999994</ele><time>2026-03-25T10:43:15.999Z</time></trkpt><trkpt lat="43.09579908701335" lon="11.774314122971562"><ele>473.0</ele><time>2026-03-25T10:43:16.999Z</time></trkpt><trkpt lat="43.09587023532498" lon="11.774224031081243"><ele>473.0</ele><time>2026-03-25T10:43:17.999Z</time></trkpt><trkpt lat="43.095940991867735" lon="11.774122625207138"><ele>469.79999999999995</ele><time>2026-03-25T10:43:18.999Z</time></trkpt><trkpt lat="43.096014503633235" lon="11.774032040115166"><ele>466.59999999999997</ele><time>2026-03-25T10:43:19.999Z</time></trkpt><trkpt lat="43.09607877869071" lon="11.773934553218176"><ele>463.40000000000003</ele><time>2026-03-25T10:43:20.999Z</time></trkpt><trkpt lat="43.096149521261005" lon="11.773839564384255"><ele>460.20000000000005</ele><time>2026-03-25T10:43:21.999Z</time></trkpt><trkpt lat="43.096220179706584" lon="11.77374799550186"><ele>457.0</ele><time>2026-03-25T10:43:22.999Z</time></trkpt><trkpt lat="43.09629626071626" lon="11.773641339597935"><ele>457.0</ele><time>2026-03-25T10:43:23.999Z</time></trkpt><trkpt lat="43.09637317153666" lon="11.773544681823855"><ele>457.0</ele><time>2026-03-25T10:43:24.999Z</time></trkpt><trkpt lat="43.09645288172762" lon="11.773434385100419"><ele>457.0</ele><time>2026-03-25T10:43:25.999Z</time></trkpt><trkpt lat="43.09654725881309" lon="11.773316322844272"><ele>457.0</ele><time>2026-03-25T10:43:26.999Z</time></trkpt><trkpt lat="43.096629980960756" lon="11.773196675149428"><ele>454.0</ele><time>2026-03-25T10:43:27.999Z</time></trkpt><trkpt lat="43.096704138240845" lon="11.773089389975523"><ele>451.00000000000006</ele><time>2026-03-25T10:43:28.999Z</time></trkpt><trkpt lat="43.0967751269096" lon="11.772987364421517"><ele>448.00000000000006</ele><time>2026-03-25T10:43:29.999Z</time></trkpt><trkpt lat="43.096846252255865" lon="11.772897955833619"><ele>445.0</ele><time>2026-03-25T10:43:30.999Z</time></trkpt><trkpt lat="43.09691619738881" lon="11.772802427578124"><ele>442.0</ele><time>2026-03-25T10:43:31.999Z</time></trkpt><trkpt lat="43.096989987486054" lon="11.772699549587635"><ele>440.8</ele><time>2026-03-25T10:43:32.999Z</time></trkpt><trkpt lat="43.097060355020126" lon="11.772602998858579"><ele>439.6</ele><time>2026-03-25T10:43:33.999Z</time></trkpt><trkpt lat="43.097119710219275" lon="11.772525650038013"><ele>438.40000000000003</ele><time>2026-03-25T10:43:34.999Z</time></trkpt><trkpt lat="43.09718040256032" lon="11.77244602389002"><ele>437.20000000000005</ele><time>2026-03-25T10:43:35.999Z</time></trkpt><trkpt lat="43.09725361709097" lon="11.77235504377504"><ele>436.0</ele><time>2026-03-25T10:43:36.999Z</time></trkpt><trkpt lat="43.09732857676693" lon="11.772247151811591"><ele>436.00000000000006</ele><time>2026-03-25T10:43:37.999Z</time></trkpt><trkpt lat="43.09740779588887" lon="11.772166444824324"><ele>436.0</ele><time>2026-03-25T10:43:38.999Z</time></trkpt><trkpt lat="43.0974675574787" lon="11.772087049478742"><ele>436.0</ele><time>2026-03-25T10:43:39.999Z</time></trkpt><trkpt lat="43.09752511906269" lon="11.772011454642348"><ele>436.0</ele><time>2026-03-25T10:43:40.999Z</time></trkpt><trkpt lat="43.097577180984885" lon="11.771943082398753"><ele>436.00000000000006</ele><time>2026-03-25T10:43:41.999Z</time></trkpt><trkpt lat="43.097625949888986" lon="11.771880247500611"><ele>436.0</ele><time>2026-03-25T10:43:42.999Z</time></trkpt><trkpt lat="43.09767992832087" lon="11.77181196451763"><ele>434.50000000000006</ele><time>2026-03-25T10:43:43.999Z</time></trkpt><trkpt lat="43.09773100811779" lon="11.771733420667806"><ele>433.0</ele><time>2026-03-25T10:43:44.999Z</time></trkpt><trkpt lat="43.09779430185847" lon="11.771654461152602"><ele>431.5</ele><time>2026-03-25T10:43:45.999Z</time></trkpt><trkpt lat="43.09786189213327" lon="11.771577254481663"><ele>430.0</ele><time>2026-03-25T10:43:46.999Z</time></trkpt><trkpt lat="43.0979330592778" lon="11.771497312680813"><ele>428.50000000000006</ele><time>2026-03-25T10:43:47.999Z</time></trkpt><trkpt lat="43.09800624181188" lon="11.771417409003995"><ele>427.0</ele><time>2026-03-25T10:43:48.999Z</time></trkpt><trkpt lat="43.09806840116861" lon="11.7713410056877"><ele>427.0</ele><time>2026-03-25T10:43:49.999Z</time></trkpt><trkpt lat="43.09813888587676" lon="11.7712530190987"><ele>427.00000000000006</ele><time>2026-03-25T10:43:50.999Z</time></trkpt><trkpt lat="43.09821183148911" lon="11.771167860912232"><ele>427.00000000000006</ele><time>2026-03-25T10:43:51.999Z</time></trkpt><trkpt lat="43.09827750621735" lon="11.771085866492738"><ele>427.0</ele><time>2026-03-25T10:43:52.999Z</time></trkpt><trkpt lat="43.09834529585577" lon="11.771004034052929"><ele>427.0</ele><time>2026-03-25T10:43:53.999Z</time></trkpt><trkpt lat="43.09841144158512" lon="11.770925640724641"><ele>426.57142857142856</ele><time>2026-03-25T10:43:54.999Z</time></trkpt><trkpt lat="43.098471173606995" lon="11.7708546410709"><ele>426.1428571428571</ele><time>2026-03-25T10:43:55.999Z</time></trkpt><trkpt lat="43.09852817538728" lon="11.770787669735839"><ele>425.7142857142857</ele><time>2026-03-25T10:43:56.999Z</time></trkpt><trkpt lat="43.09858880716151" lon="11.77074217776422"><ele>425.2857142857143</ele><time>2026-03-25T10:43:57.999Z</time></trkpt><trkpt lat="43.09864992253287" lon="11.770718979123222"><ele>424.85714285714283</ele><time>2026-03-25T10:43:58.999Z</time></trkpt><trkpt lat="43.09871559600676" lon="11.770706348959841"><ele>424.42857142857144</ele><time>2026-03-25T10:43:59.999Z</time></trkpt><trkpt lat="43.09879418269144" lon="11.770703451134262"><ele>424.0</ele><time>2026-03-25T10:44:00.999Z</time></trkpt><trkpt lat="43.098884187327954" lon="11.770694333864661"><ele>424.0</ele><time>2026-03-25T10:44:01.999Z</time></trkpt><trkpt lat="43.099001577784954" lon="11.77070477240965"><ele>424.0</ele><time>2026-03-25T10:44:02.999Z</time></trkpt><trkpt lat="43.09910779200406" lon="11.770678730599949"><ele>424.0</ele><time>2026-03-25T10:44:03.999Z</time></trkpt><trkpt lat="43.099203557366394" lon="11.770672849243704"><ele>424.0</ele><time>2026-03-25T10:44:04.999Z</time></trkpt><trkpt lat="43.099285500119436" lon="11.77064954426429"><ele>424.0</ele><time>2026-03-25T10:44:05.999Z</time></trkpt><trkpt lat="43.099352683703586" lon="11.770610825098434"><ele>423.4</ele><time>2026-03-25T10:44:06.999Z</time></trkpt><trkpt lat="43.099414637770714" lon="11.770556387390442"><ele>422.79999999999995</ele><time>2026-03-25T10:44:07.999Z</time></trkpt><trkpt lat="43.09947535506719" lon="11.77047524886508"><ele>422.20000000000005</ele><time>2026-03-25T10:44:08.999Z</time></trkpt><trkpt lat="43.099535751262444" lon="11.770387220050779"><ele>421.6</ele><time>2026-03-25T10:44:09.999Z</time></trkpt><trkpt lat="43.099603672602804" lon="11.770282466936495"><ele>421.0</ele><time>2026-03-25T10:44:10.999Z</time></trkpt><trkpt lat="43.09967938759847" lon="11.770156613569936"><ele>421.0</ele><time>2026-03-25T10:44:11.999Z</time></trkpt><trkpt lat="43.09974202486249" lon="11.77002587627498"><ele>421.0</ele><time>2026-03-25T10:44:12.999Z</time></trkpt><trkpt lat="43.09980695574197" lon="11.769915488483843"><ele>421.0</ele><time>2026-03-25T10:44:13.999Z</time></trkpt><trkpt lat="43.09987525001231" lon="11.769808395954383"><ele>421.0</ele><time>2026-03-25T10:44:14.999Z</time></trkpt><trkpt lat="43.09994367602451" lon="11.76970881529873"><ele>421.0</ele><time>2026-03-25T10:44:15.999Z</time></trkpt><trkpt lat="43.10003314178645" lon="11.769635318320601"><ele>418.75</ele><time>2026-03-25T10:44:16.999Z</time></trkpt><trkpt lat="43.10013314038717" lon="11.769556922389857"><ele>416.5</ele><time>2026-03-25T10:44:17.998Z</time></trkpt><trkpt lat="43.10024749623704" lon="11.769459145046275"><ele>414.25</ele><time>2026-03-25T10:44:18.998Z</time></trkpt><trkpt lat="43.10035653834335" lon="11.769384523230245"><ele>412.0</ele><time>2026-03-25T10:44:19.998Z</time></trkpt><trkpt lat="43.10046488005947" lon="11.769327092964673"><ele>411.8</ele><time>2026-03-25T10:44:20.998Z</time></trkpt><trkpt lat="43.100577325568494" lon="11.769262638287005"><ele>411.6</ele><time>2026-03-25T10:44:21.998Z</time></trkpt><trkpt lat="43.10068256023169" lon="11.769204078649148"><ele>411.40000000000003</ele><time>2026-03-25T10:44:22.998Z</time></trkpt><trkpt lat="43.10077232094846" lon="11.76915396028046"><ele>411.20000000000005</ele><time>2026-03-25T10:44:23.998Z</time></trkpt><trkpt lat="43.10086594285849" lon="11.76913675585445"><ele>411.0</ele><time>2026-03-25T10:44:24.998Z</time></trkpt><trkpt lat="43.100966980519196" lon="11.769097835500146"><ele>410.66666666666663</ele><time>2026-03-25T10:44:25.999Z</time></trkpt><trkpt lat="43.101098657028324" lon="11.769103637406188"><ele>410.3333333333333</ele><time>2026-03-25T10:44:26.999Z</time></trkpt><trkpt lat="43.10126479077217" lon="11.769108264267782"><ele>410.0</ele><time>2026-03-25T10:44:27.999Z</time></trkpt><trkpt lat="43.10145989008383" lon="11.769099839906914"><ele>407.66666666666663</ele><time>2026-03-25T10:44:28.999Z</time></trkpt><trkpt lat="43.101641183091125" lon="11.76909278900139"><ele>405.33333333333337</ele><time>2026-03-25T10:44:29.999Z</time></trkpt><trkpt lat="43.10181480285824" lon="11.769090092224955"><ele>403.0</ele><time>2026-03-25T10:44:30.999Z</time></trkpt><trkpt lat="43.10196582074637" lon="11.769087057119874"><ele>403.0</ele><time>2026-03-25T10:44:31.999Z</time></trkpt><trkpt lat="43.10210172645937" lon="11.769082213900834"><ele>403.0</ele><time>2026-03-25T10:44:32.999Z</time></trkpt><trkpt lat="43.102232463987626" lon="11.769075418693276"><ele>403.0</ele><time>2026-03-25T10:44:33.999Z</time></trkpt><trkpt lat="43.10237121873897" lon="11.769076770140394"><ele>403.0</ele><time>2026-03-25T10:44:34.999Z</time></trkpt><trkpt lat="43.10251252373013" lon="11.769080845939481"><ele>402.5</ele><time>2026-03-25T10:44:35.999Z</time></trkpt><trkpt lat="43.10265718471411" lon="11.769087772263077"><ele>402.0</ele><time>2026-03-25T10:44:36.999Z</time></trkpt><trkpt lat="43.102799454879424" lon="11.769097350362012"><ele>401.5</ele><time>2026-03-25T10:44:37.999Z</time></trkpt><trkpt lat="43.102931487746034" lon="11.769108908052406"><ele>401.0</ele><time>2026-03-25T10:44:38.999Z</time></trkpt><trkpt lat="43.10305005749036" lon="11.769123509447189"><ele>400.99999999999994</ele><time>2026-03-25T10:44:39.999Z</time></trkpt><trkpt lat="43.103158120974626" lon="11.769137224949777"><ele>401.0</ele><time>2026-03-25T10:44:40.999Z</time></trkpt><trkpt lat="43.103246043391295" lon="11.769148477480199"><ele>401.0</ele><time>2026-03-25T10:44:41.999Z</time></trkpt><trkpt lat="43.103318273978715" lon="11.769155949201537"><ele>401.0</ele><time>2026-03-25T10:44:42.999Z</time></trkpt><trkpt lat="43.103383403890064" lon="11.769181670717154"><ele>400.99999999999994</ele><time>2026-03-25T10:44:43.999Z</time></trkpt><trkpt lat="43.10345202467288" lon="11.769227156422282"><ele>401.0</ele><time>2026-03-25T10:44:44.999Z</time></trkpt><trkpt lat="43.10353543969604" lon="11.769302275594889"><ele>399.0</ele><time>2026-03-25T10:44:45.999Z</time></trkpt><trkpt lat="43.10362459152016" lon="11.769385825276089"><ele>397.0</ele><time>2026-03-25T10:44:46.999Z</time></trkpt><trkpt lat="43.10370728955677" lon="11.769446681135095"><ele>395.0</ele><time>2026-03-25T10:44:47.999Z</time></trkpt><trkpt lat="43.10380069263314" lon="11.769492033569183"><ele>393.0</ele><time>2026-03-25T10:44:48.999Z</time></trkpt><trkpt lat="43.10390469921753" lon="11.7695233572209"><ele>391.0</ele><time>2026-03-25T10:44:49.999Z</time></trkpt><trkpt lat="43.10401794839298" lon="11.769543253073214"><ele>390.0</ele><time>2026-03-25T10:44:50.999Z</time></trkpt><trkpt lat="43.104148365787765" lon="11.769562239529714"><ele>389.0</ele><time>2026-03-25T10:44:51.999Z</time></trkpt><trkpt lat="43.10428992167054" lon="11.769581387067909"><ele>388.0</ele><time>2026-03-25T10:44:52.999Z</time></trkpt><trkpt lat="43.10443909032665" lon="11.769597017251037"><ele>387.0</ele><time>2026-03-25T10:44:53.999Z</time></trkpt><trkpt lat="43.1046007076216" lon="11.769606535216019"><ele>387.0</ele><time>2026-03-25T10:44:54.999Z</time></trkpt><trkpt lat="43.10477485695286" lon="11.769621668894105"><ele>387.0</ele><time>2026-03-25T10:44:55.999Z</time></trkpt><trkpt lat="43.10493274031473" lon="11.769645497775947"><ele>387.0</ele><time>2026-03-25T10:44:56.999Z</time></trkpt><trkpt lat="43.105076726880085" lon="11.769689163437052"><ele>386.33333333333337</ele><time>2026-03-25T10:44:57.999Z</time></trkpt><trkpt lat="43.105236349099215" lon="11.769758396712943"><ele>385.6666666666667</ele><time>2026-03-25T10:44:58.999Z</time></trkpt><trkpt lat="43.105417072253225" lon="11.769854885290277"><ele>385.0</ele><time>2026-03-25T10:44:59.999Z</time></trkpt><trkpt lat="43.10557248463057" lon="11.769940763866193"><ele>385.0</ele><time>2026-03-25T10:45:00.999Z</time></trkpt><trkpt lat="43.105708409407406" lon="11.770015287625842"><ele>385.0</ele><time>2026-03-25T10:45:01.999Z</time></trkpt><trkpt lat="43.10582285825753" lon="11.770072113326663"><ele>385.0</ele><time>2026-03-25T10:45:02.999Z</time></trkpt><trkpt lat="43.10592048184376" lon="11.770096573080227"><ele>385.0</ele><time>2026-03-25T10:45:03.999Z</time></trkpt><trkpt lat="43.10602042365056" lon="11.770106773218918"><ele>385.33333333333337</ele><time>2026-03-25T10:45:04.999Z</time></trkpt><trkpt lat="43.10610943565329" lon="11.770103011627201"><ele>385.6666666666667</ele><time>2026-03-25T10:45:05.999Z</time></trkpt><trkpt lat="43.10618317754934" lon="11.770086263258147"><ele>386.0</ele><time>2026-03-25T10:45:06.999Z</time></trkpt><trkpt lat="43.10624660324254" lon="11.770054859945787"><ele>386.33333333333337</ele><time>2026-03-25T10:45:07.999Z</time></trkpt><trkpt lat="43.106307250614755" lon="11.770006657386768"><ele>386.6666666666667</ele><time>2026-03-25T10:45:08.999Z</time></trkpt><trkpt lat="43.10636748808433" lon="11.769947692668856"><ele>387.0</ele><time>2026-03-25T10:45:09.999Z</time></trkpt><trkpt lat="43.10642330403589" lon="11.769860513202012"><ele>387.0</ele><time>2026-03-25T10:45:10.999Z</time></trkpt><trkpt lat="43.10648827502394" lon="11.769740366852519"><ele>387.0</ele><time>2026-03-25T10:45:11.999Z</time></trkpt><trkpt lat="43.106583518798516" lon="11.769577226152581"><ele>387.0</ele><time>2026-03-25T10:45:12.999Z</time></trkpt><trkpt lat="43.10668347270678" lon="11.769415379818572"><ele>387.0</ele><time>2026-03-25T10:45:13.999Z</time></trkpt><trkpt lat="43.10676375318704" lon="11.769277235511336"><ele>385.75</ele><time>2026-03-25T10:45:14.999Z</time></trkpt><trkpt lat="43.10684146713506" lon="11.769123027291803"><ele>384.5</ele><time>2026-03-25T10:45:15.999Z</time></trkpt><trkpt lat="43.10693807215515" lon="11.768976791375799"><ele>383.25</ele><time>2026-03-25T10:45:16.999Z</time></trkpt><trkpt lat="43.1070646568446" lon="11.768854730260204"><ele>382.0</ele><time>2026-03-25T10:45:17.999Z</time></trkpt><trkpt lat="43.107174924149746" lon="11.768707894184358"><ele>382.0</ele><time>2026-03-25T10:45:18.999Z</time></trkpt><trkpt lat="43.10727058625537" lon="11.768589266551103"><ele>382.0</ele><time>2026-03-25T10:45:19.999Z</time></trkpt><trkpt lat="43.107346082691244" lon="11.768482402196536"><ele>382.0</ele><time>2026-03-25T10:45:20.999Z</time></trkpt><trkpt lat="43.10741211780507" lon="11.768381760291675"><ele>382.0</ele><time>2026-03-25T10:45:21.999Z</time></trkpt><trkpt lat="43.10747583927286" lon="11.768303186320756"><ele>382.0</ele><time>2026-03-25T10:45:22.999Z</time></trkpt><trkpt lat="43.10755208215472" lon="11.768239537772121"><ele>381.0</ele><time>2026-03-25T10:45:23.999Z</time></trkpt><trkpt lat="43.10763577993583" lon="11.768212580196447"><ele>380.0</ele><time>2026-03-25T10:45:24.999Z</time></trkpt><trkpt lat="43.10772320695994" lon="11.768216341325793"><ele>379.0</ele><time>2026-03-25T10:45:25.999Z</time></trkpt><trkpt lat="43.1078088576937" lon="11.768239460962597"><ele>378.0</ele><time>2026-03-25T10:45:26.999Z</time></trkpt><trkpt lat="43.107903778846556" lon="11.768301964368074"><ele>377.0</ele><time>2026-03-25T10:45:27.999Z</time></trkpt><trkpt lat="43.10800855829001" lon="11.768389938261372"><ele>377.0</ele><time>2026-03-25T10:45:28.999Z</time></trkpt><trkpt lat="43.10810484134347" lon="11.768462015863365"><ele>377.0</ele><time>2026-03-25T10:45:29.999Z</time></trkpt><trkpt lat="43.108227143401315" lon="11.768522155861172"><ele>377.0</ele><time>2026-03-25T10:45:30.999Z</time></trkpt><trkpt lat="43.10835946250641" lon="11.768573707478026"><ele>377.0</ele><time>2026-03-25T10:45:31.999Z</time></trkpt><trkpt lat="43.10847754730561" lon="11.768614811405568"><ele>374.40000000000003</ele><time>2026-03-25T10:45:32.999Z</time></trkpt><trkpt lat="43.108582428095424" lon="11.768644971640416"><ele>371.8</ele><time>2026-03-25T10:45:33.999Z</time></trkpt><trkpt lat="43.10867722239739" lon="11.768671283508064"><ele>369.2</ele><time>2026-03-25T10:45:34.999Z</time></trkpt><trkpt lat="43.108762839085145" lon="11.76869533588645"><ele>366.6</ele><time>2026-03-25T10:45:35.999Z</time></trkpt><trkpt lat="43.10884247743905" lon="11.7687434102008"><ele>364.0</ele><time>2026-03-25T10:45:36.999Z</time></trkpt><trkpt lat="43.10893624263577" lon="11.768747909122363"><ele>364.0</ele><time>2026-03-25T10:45:37.999Z</time></trkpt><trkpt lat="43.10903115113284" lon="11.768745416440865"><ele>364.0</ele><time>2026-03-25T10:45:38.999Z</time></trkpt><trkpt lat="43.109136444942415" lon="11.768708386873694"><ele>364.0</ele><time>2026-03-25T10:45:39.999Z</time></trkpt><trkpt lat="43.109237702542" lon="11.768641512135687"><ele>364.0</ele><time>2026-03-25T10:45:40.999Z</time></trkpt><trkpt lat="43.109328890415746" lon="11.768587734568596"><ele>364.0</ele><time>2026-03-25T10:45:41.999Z</time></trkpt><trkpt lat="43.109416482398515" lon="11.76853967740564"><ele>364.16666666666663</ele><time>2026-03-25T10:45:42.999Z</time></trkpt><trkpt lat="43.109498553471035" lon="11.76849791675508"><ele>364.3333333333333</ele><time>2026-03-25T10:45:43.999Z</time></trkpt><trkpt lat="43.109574895022995" lon="11.768469559423982"><ele>364.5</ele><time>2026-03-25T10:45:44.999Z</time></trkpt><trkpt lat="43.10965033082395" lon="11.768451862154528"><ele>364.6666666666667</ele><time>2026-03-25T10:45:45.999Z</time></trkpt><trkpt lat="43.10973607997308" lon="11.768430722723803"><ele>364.83333333333337</ele><time>2026-03-25T10:45:46.999Z</time></trkpt><trkpt lat="43.10982810359375" lon="11.768469524225956"><ele>365.0</ele><time>2026-03-25T10:45:47.999Z</time></trkpt><trkpt lat="43.10992483819511" lon="11.768472337684653"><ele>365.0</ele><time>2026-03-25T10:45:48.999Z</time></trkpt><trkpt lat="43.11001363367984" lon="11.768492843365392"><ele>365.0</ele><time>2026-03-25T10:45:49.999Z</time></trkpt><trkpt lat="43.11010091137112" lon="11.768517411005181"><ele>365.0</ele><time>2026-03-25T10:45:50.999Z</time></trkpt><trkpt lat="43.11018175595253" lon="11.76853782987236"><ele>365.0</ele><time>2026-03-25T10:45:51.999Z</time></trkpt><trkpt lat="43.11025022412009" lon="11.768550731921682"><ele>365.0</ele><time>2026-03-25T10:45:52.999Z</time></trkpt><trkpt lat="43.11031221427538" lon="11.76856720849793"><ele>365.0</ele><time>2026-03-25T10:45:53.999Z</time></trkpt><trkpt lat="43.110425022815754" lon="11.768587470153912"><ele>365.0</ele><time>2026-03-25T10:45:55.999Z</time></trkpt><trkpt lat="43.11052634251054" lon="11.768547300459721"><ele>365.0</ele><time>2026-03-25T10:45:57.999Z</time></trkpt><trkpt lat="43.11056775936132" lon="11.768464348476638"><ele>365.0</ele><time>2026-03-25T10:45:58.999Z</time></trkpt><trkpt lat="43.11061215860246" lon="11.768376103774727"><ele>365.0</ele><time>2026-03-25T10:45:59.999Z</time></trkpt><trkpt lat="43.1106720577134" lon="11.768263382628058"><ele>365.0</ele><time>2026-03-25T10:46:00.999Z</time></trkpt><trkpt lat="43.110755699568756" lon="11.76810445796563"><ele>364.6</ele><time>2026-03-25T10:46:01.999Z</time></trkpt><trkpt lat="43.110824670296616" lon="11.767951427999373"><ele>364.2</ele><time>2026-03-25T10:46:02.999Z</time></trkpt><trkpt lat="43.11087068598723" lon="11.767808939515028"><ele>363.79999999999995</ele><time>2026-03-25T10:46:03.999Z</time></trkpt><trkpt lat="43.11091521652248" lon="11.767683821019656"><ele>363.4</ele><time>2026-03-25T10:46:04.999Z</time></trkpt><trkpt lat="43.110947914917844" lon="11.767575973377545"><ele>363.0</ele><time>2026-03-25T10:46:05.999Z</time></trkpt><trkpt lat="43.11099132555011" lon="11.767459982796536"><ele>361.25</ele><time>2026-03-25T10:46:06.999Z</time></trkpt><trkpt lat="43.1110206352867" lon="11.767303690213737"><ele>359.5</ele><time>2026-03-25T10:46:07.999Z</time></trkpt><trkpt lat="43.11102901462674" lon="11.767137061056246"><ele>357.75</ele><time>2026-03-25T10:46:08.999Z</time></trkpt><trkpt lat="43.11104936152423" lon="11.766983771877717"><ele>356.0</ele><time>2026-03-25T10:46:09.999Z</time></trkpt><trkpt lat="43.11106643735471" lon="11.766832829299343"><ele>354.20000000000005</ele><time>2026-03-25T10:46:10.999Z</time></trkpt><trkpt lat="43.111075532860454" lon="11.766677454604748"><ele>352.40000000000003</ele><time>2026-03-25T10:46:11.999Z</time></trkpt><trkpt lat="43.11108459188519" lon="11.766534984133106"><ele>350.6</ele><time>2026-03-25T10:46:12.999Z</time></trkpt><trkpt lat="43.11107856428486" lon="11.76639819321863"><ele>348.8</ele><time>2026-03-25T10:46:13.999Z</time></trkpt><trkpt lat="43.11108410665338" lon="11.766240752919428"><ele>347.0</ele><time>2026-03-25T10:46:14.999Z</time></trkpt><trkpt lat="43.11108010416422" lon="11.766084143847744"><ele>344.25</ele><time>2026-03-25T10:46:15.999Z</time></trkpt><trkpt lat="43.11107228743933" lon="11.76591804947025"><ele>341.5</ele><time>2026-03-25T10:46:16.999Z</time></trkpt><trkpt lat="43.111085209773044" lon="11.765760704315715"><ele>338.75</ele><time>2026-03-25T10:46:17.999Z</time></trkpt><trkpt lat="43.11110275374533" lon="11.765610663725118"><ele>336.0</ele><time>2026-03-25T10:46:18.999Z</time></trkpt><trkpt lat="43.11111629710612" lon="11.765458661271433"><ele>336.0</ele><time>2026-03-25T10:46:19.999Z</time></trkpt><trkpt lat="43.111126014844956" lon="11.765314177546715"><ele>336.0</ele><time>2026-03-25T10:46:20.999Z</time></trkpt><trkpt lat="43.11112804234605" lon="11.765159996624533"><ele>336.0</ele><time>2026-03-25T10:46:21.999Z</time></trkpt><trkpt lat="43.11112182057346" lon="11.765016844087832"><ele>336.0</ele><time>2026-03-25T10:46:22.999Z</time></trkpt><trkpt lat="43.11110374618424" lon="11.764890653684299"><ele>336.0</ele><time>2026-03-25T10:46:23.999Z</time></trkpt><trkpt lat="43.11108925221637" lon="11.764771926360817"><ele>335.3333333333333</ele><time>2026-03-25T10:46:24.999Z</time></trkpt><trkpt lat="43.11102968241435" lon="11.764672543884725"><ele>334.6666666666667</ele><time>2026-03-25T10:46:25.999Z</time></trkpt><trkpt lat="43.110970447035896" lon="11.764578757036675"><ele>334.0</ele><time>2026-03-25T10:46:26.999Z</time></trkpt><trkpt lat="43.1109106302372" lon="11.764507519496364"><ele>333.33333333333337</ele><time>2026-03-25T10:46:27.999Z</time></trkpt><trkpt lat="43.110880331385104" lon="11.76441491193879"><ele>332.6666666666667</ele><time>2026-03-25T10:46:28.999Z</time></trkpt><trkpt lat="43.11085202412041" lon="11.764328177752942"><ele>332.0</ele><time>2026-03-25T10:46:29.999Z</time></trkpt><trkpt lat="43.11086550645557" lon="11.764219282936862"><ele>330.6666666666667</ele><time>2026-03-25T10:46:30.999Z</time></trkpt><trkpt lat="43.11088540631638" lon="11.764069169598041"><ele>329.3333333333333</ele><time>2026-03-25T10:46:32Z</time></trkpt><trkpt lat="43.110910887221856" lon="11.763843828936656"><ele>328.0</ele><time>2026-03-25T10:46:33Z</time></trkpt><trkpt lat="43.11095293503824" lon="11.763586747329681"><ele>327.75</ele><time>2026-03-25T10:46:34Z</time></trkpt><trkpt lat="43.1109818854794" lon="11.7633748782141"><ele>327.5</ele><time>2026-03-25T10:46:35Z</time></trkpt><trkpt lat="43.11100223544919" lon="11.76320016753736"><ele>327.25</ele><time>2026-03-25T10:46:36Z</time></trkpt><trkpt lat="43.11101982804351" lon="11.76303367170451"><ele>327.0</ele><time>2026-03-25T10:46:37Z</time></trkpt><trkpt lat="43.11103362465755" lon="11.762891265381503"><ele>327.0</ele><time>2026-03-25T10:46:38Z</time></trkpt><trkpt lat="43.11104999513732" lon="11.762773685084225"><ele>327.0</ele><time>2026-03-25T10:46:39Z</time></trkpt><trkpt lat="43.11108670064272" lon="11.762675545732037"><ele>327.0</ele><time>2026-03-25T10:46:40Z</time></trkpt><trkpt lat="43.11113787283702" lon="11.762563741196255"><ele>327.0</ele><time>2026-03-25T10:46:42Z</time></trkpt><trkpt lat="43.11120142222994" lon="11.762544792748836"><ele>327.0</ele><time>2026-03-25T10:46:43Z</time></trkpt><trkpt lat="43.11129602983707" lon="11.762556938723408"><ele>327.0</ele><time>2026-03-25T10:46:44Z</time></trkpt><trkpt lat="43.11139243444708" lon="11.762519304116001"><ele>327.0</ele><time>2026-03-25T10:46:45Z</time></trkpt><trkpt lat="43.111467162938155" lon="11.762433905323439"><ele>327.0</ele><time>2026-03-25T10:46:46Z</time></trkpt><trkpt lat="43.11152928461081" lon="11.76234442051092"><ele>327.0</ele><time>2026-03-25T10:46:47Z</time></trkpt><trkpt lat="43.111609610915266" lon="11.762245802860027"><ele>327.0</ele><time>2026-03-25T10:46:48Z</time></trkpt><trkpt lat="43.11168285267562" lon="11.762129450315083"><ele>327.0</ele><time>2026-03-25T10:46:49Z</time></trkpt><trkpt lat="43.11174932092772" lon="11.76202646530788"><ele>327.0</ele><time>2026-03-25T10:46:50Z</time></trkpt><trkpt lat="43.11181602062846" lon="11.761925068237277"><ele>327.0</ele><time>2026-03-25T10:46:51Z</time></trkpt><trkpt lat="43.1118835329876" lon="11.761822435839182"><ele>327.0</ele><time>2026-03-25T10:46:52Z</time></trkpt><trkpt lat="43.11194891576022" lon="11.761726323014836"><ele>327.0</ele><time>2026-03-25T10:46:53Z</time></trkpt><trkpt lat="43.11201478092782" lon="11.761635137216638"><ele>327.0</ele><time>2026-03-25T10:46:54Z</time></trkpt><trkpt lat="43.11207770782139" lon="11.761551992309762"><ele>328.6</ele><time>2026-03-25T10:46:55Z</time></trkpt><trkpt lat="43.11214891426554" lon="11.76146460765311"><ele>330.20000000000005</ele><time>2026-03-25T10:46:56Z</time></trkpt><trkpt lat="43.11222056279253" lon="11.761384544657359"><ele>331.8</ele><time>2026-03-25T10:46:57Z</time></trkpt><trkpt lat="43.11229096433769" lon="11.761317327931387"><ele>333.4</ele><time>2026-03-25T10:46:58Z</time></trkpt><trkpt lat="43.11235273426505" lon="11.761257545376374"><ele>335.0</ele><time>2026-03-25T10:46:59Z</time></trkpt><trkpt lat="43.11245133450357" lon="11.761140391282348"><ele>337.33333333333337</ele><time>2026-03-25T10:47:01Z</time></trkpt><trkpt lat="43.11252240615998" lon="11.761031634993156"><ele>339.6666666666667</ele><time>2026-03-25T10:47:02Z</time></trkpt><trkpt lat="43.11262576002453" lon="11.760862720577004"><ele>342.0</ele><time>2026-03-25T10:47:03Z</time></trkpt><trkpt lat="43.11275410569717" lon="11.760641713838574"><ele>342.0</ele><time>2026-03-25T10:47:04Z</time></trkpt><trkpt lat="43.11286977868761" lon="11.760434990728971"><ele>342.0</ele><time>2026-03-25T10:47:05Z</time></trkpt><trkpt lat="43.11298925118325" lon="11.760210189192168"><ele>342.0</ele><time>2026-03-25T10:47:06Z</time></trkpt><trkpt lat="43.11309807281958" lon="11.760003890272849"><ele>342.3333333333333</ele><time>2026-03-25T10:47:07Z</time></trkpt><trkpt lat="43.1131964332395" lon="11.759833834761796"><ele>342.66666666666663</ele><time>2026-03-25T10:47:08Z</time></trkpt><trkpt lat="43.113285522662764" lon="11.75966901816474"><ele>343.0</ele><time>2026-03-25T10:47:09Z</time></trkpt><trkpt lat="43.11337208145497" lon="11.759510467321082"><ele>340.0</ele><time>2026-03-25T10:47:10Z</time></trkpt><trkpt lat="43.113455837332" lon="11.759362425853979"><ele>337.0</ele><time>2026-03-25T10:47:11Z</time></trkpt><trkpt lat="43.1135471678232" lon="11.759257113147838"><ele>334.0</ele><time>2026-03-25T10:47:12Z</time></trkpt><trkpt lat="43.11363473130756" lon="11.75914552967932"><ele>331.0</ele><time>2026-03-25T10:47:13Z</time></trkpt><trkpt lat="43.11370208697262" lon="11.759038444377415"><ele>331.0</ele><time>2026-03-25T10:47:14Z</time></trkpt><trkpt lat="43.113771807266154" lon="11.758959702562196"><ele>331.0</ele><time>2026-03-25T10:47:15Z</time></trkpt><trkpt lat="43.113832408378826" lon="11.758889625376574"><ele>331.0</ele><time>2026-03-25T10:47:16Z</time></trkpt><trkpt lat="43.11389562796651" lon="11.758734852606434"><ele>331.0</ele><time>2026-03-25T10:47:18Z</time></trkpt><trkpt lat="43.11391439799127" lon="11.758582241977647"><ele>331.0</ele><time>2026-03-25T10:47:19Z</time></trkpt><trkpt lat="43.11395519036034" lon="11.758382705525884"><ele>331.75</ele><time>2026-03-25T10:47:20Z</time></trkpt><trkpt lat="43.11399068719645" lon="11.75821514787822"><ele>332.5</ele><time>2026-03-25T10:47:21Z</time></trkpt><trkpt lat="43.114031499105714" lon="11.758091177386017"><ele>333.25</ele><time>2026-03-25T10:47:21.999Z</time></trkpt><trkpt lat="43.11408830138935" lon="11.757979156859962"><ele>334.0</ele><time>2026-03-25T10:47:22.999Z</time></trkpt><trkpt lat="43.11415771102005" lon="11.757831829370883"><ele>334.0</ele><time>2026-03-25T10:47:23.999Z</time></trkpt><trkpt lat="43.11420601151631" lon="11.757714011886236"><ele>334.0</ele><time>2026-03-25T10:47:24.999Z</time></trkpt><trkpt lat="43.11423136869769" lon="11.757626792416135"><ele>334.0</ele><time>2026-03-25T10:47:25.999Z</time></trkpt><trkpt lat="43.114219696477576" lon="11.757516995370915"><ele>334.0</ele><time>2026-03-25T10:47:26.999Z</time></trkpt><trkpt lat="43.114205820407335" lon="11.757401091093207"><ele>334.0</ele><time>2026-03-25T10:47:27.999Z</time></trkpt><trkpt lat="43.11417987311113" lon="11.757259837627421"><ele>334.0</ele><time>2026-03-25T10:47:28.999Z</time></trkpt><trkpt lat="43.11414293358171" lon="11.757086524266473"><ele>334.25</ele><time>2026-03-25T10:47:29.999Z</time></trkpt><trkpt lat="43.11416414127468" lon="11.756918212102319"><ele>334.5</ele><time>2026-03-25T10:47:30.999Z</time></trkpt><trkpt lat="43.11417784392564" lon="11.756718516764364"><ele>334.75</ele><time>2026-03-25T10:47:31.999Z</time></trkpt><trkpt lat="43.11418807495449" lon="11.756492528845447"><ele>335.0</ele><time>2026-03-25T10:47:32.999Z</time></trkpt><trkpt lat="43.11421359420929" lon="11.756271235219435"><ele>337.33333333333337</ele><time>2026-03-25T10:47:33.999Z</time></trkpt><trkpt lat="43.11423994097187" lon="11.756048203945193"><ele>339.6666666666667</ele><time>2026-03-25T10:47:34.999Z</time></trkpt><trkpt lat="43.11426648949992" lon="11.755810084737524"><ele>342.0</ele><time>2026-03-25T10:47:35.999Z</time></trkpt><trkpt lat="43.11429476444982" lon="11.755576706194718"><ele>344.0</ele><time>2026-03-25T10:47:36.999Z</time></trkpt><trkpt lat="43.114318072714326" lon="11.755371995080807"><ele>346.0</ele><time>2026-03-25T10:47:37.999Z</time></trkpt><trkpt lat="43.11433601111754" lon="11.755206555003952"><ele>348.0</ele><time>2026-03-25T10:47:38.999Z</time></trkpt><trkpt lat="43.11433944051947" lon="11.755084312885975"><ele>350.0</ele><time>2026-03-25T10:47:39.999Z</time></trkpt><trkpt lat="43.114334392052236" lon="11.754961919529277"><ele>352.4</ele><time>2026-03-25T10:47:40.999Z</time></trkpt><trkpt lat="43.114344332577666" lon="11.75482517313375"><ele>354.8</ele><time>2026-03-25T10:47:41.999Z</time></trkpt><trkpt lat="43.114331931848355" lon="11.754691359725197"><ele>357.20000000000005</ele><time>2026-03-25T10:47:42.999Z</time></trkpt><trkpt lat="43.114315619021454" lon="11.754583617382366"><ele>359.6</ele><time>2026-03-25T10:47:43.999Z</time></trkpt><trkpt lat="43.11426707653164" lon="11.754431062092358"><ele>362.0</ele><time>2026-03-25T10:47:45.999Z</time></trkpt><trkpt lat="43.114224408925736" lon="11.75434808992915"><ele>363.5</ele><time>2026-03-25T10:47:46.999Z</time></trkpt><trkpt lat="43.114152411711444" lon="11.754251741871643"><ele>365.0</ele><time>2026-03-25T10:47:47.999Z</time></trkpt><trkpt lat="43.114102586553926" lon="11.754161561975275"><ele>366.5</ele><time>2026-03-25T10:47:48.999Z</time></trkpt><trkpt lat="43.11408638703381" lon="11.75407474568168"><ele>368.0</ele><time>2026-03-25T10:47:49.999Z</time></trkpt><trkpt lat="43.11410401684355" lon="11.75395354155849"><ele>369.5</ele><time>2026-03-25T10:47:50.999Z</time></trkpt><trkpt lat="43.11408137667895" lon="11.753834536127068"><ele>371.0</ele><time>2026-03-25T10:47:51.999Z</time></trkpt><trkpt lat="43.11408048058637" lon="11.753733367416384"><ele>370.8</ele><time>2026-03-25T10:47:52.999Z</time></trkpt><trkpt lat="43.11405102259728" lon="11.753604033230404"><ele>370.6</ele><time>2026-03-25T10:47:53.999Z</time></trkpt><trkpt lat="43.1140166680839" lon="11.753460411516203"><ele>370.4</ele><time>2026-03-25T10:47:54.999Z</time></trkpt><trkpt lat="43.11397405017097" lon="11.753303591171262"><ele>370.2</ele><time>2026-03-25T10:47:55.999Z</time></trkpt><trkpt lat="43.11393393647501" lon="11.753185363228825"><ele>370.0</ele><time>2026-03-25T10:47:56.999Z</time></trkpt><trkpt lat="43.11389044329528" lon="11.753090647016723"><ele>371.8</ele><time>2026-03-25T10:47:57.999Z</time></trkpt><trkpt lat="43.113835602667336" lon="11.752979428139223"><ele>373.6</ele><time>2026-03-25T10:47:58.999Z</time></trkpt><trkpt lat="43.113770198901584" lon="11.752849046458033"><ele>375.4</ele><time>2026-03-25T10:47:59.999Z</time></trkpt><trkpt lat="43.11371316634822" lon="11.752717794093288"><ele>377.2</ele><time>2026-03-25T10:48:00.999Z</time></trkpt><trkpt lat="43.11368072436928" lon="11.752610098753541"><ele>379.0</ele><time>2026-03-25T10:48:01.999Z</time></trkpt><trkpt lat="43.1136622255633" lon="11.7525194968571"><ele>380.3333333333333</ele><time>2026-03-25T10:48:02.999Z</time></trkpt><trkpt lat="43.11366230856311" lon="11.752427846930015"><ele>381.66666666666663</ele><time>2026-03-25T10:48:03.999Z</time></trkpt><trkpt lat="43.11365799352481" lon="11.752323145612584"><ele>383.0</ele><time>2026-03-25T10:48:04.999Z</time></trkpt><trkpt lat="43.11364488544814" lon="11.75219904363866"><ele>384.3333333333333</ele><time>2026-03-25T10:48:05.999Z</time></trkpt><trkpt lat="43.11365790447012" lon="11.75206855915167"><ele>385.6666666666667</ele><time>2026-03-25T10:48:06.999Z</time></trkpt><trkpt lat="43.113648770952985" lon="11.751946007465445"><ele>387.0</ele><time>2026-03-25T10:48:07.999Z</time></trkpt><trkpt lat="43.11363042990583" lon="11.751851617308475"><ele>389.1666666666667</ele><time>2026-03-25T10:48:08.999Z</time></trkpt><trkpt lat="43.113603221126965" lon="11.751770080903162"><ele>391.33333333333337</ele><time>2026-03-25T10:48:09.999Z</time></trkpt><trkpt lat="43.11354387581537" lon="11.751668061059812"><ele>393.5</ele><time>2026-03-25T10:48:10.999Z</time></trkpt><trkpt lat="43.11349919618942" lon="11.751586016969444"><ele>395.6666666666667</ele><time>2026-03-25T10:48:11.999Z</time></trkpt><trkpt lat="43.11344396851913" lon="11.751492747913566"><ele>397.83333333333337</ele><time>2026-03-25T10:48:12.999Z</time></trkpt><trkpt lat="43.11339432522038" lon="11.751413492868727"><ele>400.0</ele><time>2026-03-25T10:48:13.999Z</time></trkpt><trkpt lat="43.11333960556178" lon="11.751327921234841"><ele>400.0</ele><time>2026-03-25T10:48:14.999Z</time></trkpt><trkpt lat="43.113287767420246" lon="11.751253007652123"><ele>400.0</ele><time>2026-03-25T10:48:15.999Z</time></trkpt><trkpt lat="43.11323448802156" lon="11.751188484022803"><ele>400.0</ele><time>2026-03-25T10:48:16.999Z</time></trkpt><trkpt lat="43.11312670990042" lon="11.751112566696952"><ele>400.0</ele><time>2026-03-25T10:48:18.999Z</time></trkpt><trkpt lat="43.11302783811874" lon="11.751151234338394"><ele>400.0</ele><time>2026-03-25T10:48:19.999Z</time></trkpt><trkpt lat="43.11292858406613" lon="11.751153851599609"><ele>401.00000000000006</ele><time>2026-03-25T10:48:20.999Z</time></trkpt><trkpt lat="43.112843298241714" lon="11.75111334940792"><ele>402.0</ele><time>2026-03-25T10:48:21.999Z</time></trkpt><trkpt lat="43.11276062280624" lon="11.751069953882807"><ele>403.0</ele><time>2026-03-25T10:48:22.999Z</time></trkpt><trkpt lat="43.11267112025378" lon="11.751010452293494"><ele>404.0</ele><time>2026-03-25T10:48:23.999Z</time></trkpt><trkpt lat="43.11259985429343" lon="11.750950978945099"><ele>405.00000000000006</ele><time>2026-03-25T10:48:24.999Z</time></trkpt><trkpt lat="43.11253863181223" lon="11.75087234615895"><ele>406.0</ele><time>2026-03-25T10:48:25.999Z</time></trkpt><trkpt lat="43.11248953434119" lon="11.750776526327801"><ele>406.00000000000006</ele><time>2026-03-25T10:48:26.999Z</time></trkpt><trkpt lat="43.11244769336127" lon="11.750673465853463"><ele>406.0</ele><time>2026-03-25T10:48:27.999Z</time></trkpt><trkpt lat="43.11241325469658" lon="11.750566286335063"><ele>406.0</ele><time>2026-03-25T10:48:28.999Z</time></trkpt><trkpt lat="43.11239430046137" lon="11.75046547895661"><ele>406.0</ele><time>2026-03-25T10:48:29.999Z</time></trkpt><trkpt lat="43.112387604326834" lon="11.750377225120765"><ele>406.00000000000006</ele><time>2026-03-25T10:48:30.999Z</time></trkpt><trkpt lat="43.11238076010823" lon="11.750256518423425"><ele>406.0</ele><time>2026-03-25T10:48:32.999Z</time></trkpt><trkpt lat="43.11243598117167" lon="11.750112054709225"><ele>407.6666666666667</ele><time>2026-03-25T10:48:34.999Z</time></trkpt><trkpt lat="43.11245222564517" lon="11.749959878293856"><ele>409.33333333333337</ele><time>2026-03-25T10:48:36.999Z</time></trkpt><trkpt lat="43.11244629219672" lon="11.7498613887254"><ele>411.0</ele><time>2026-03-25T10:48:38Z</time></trkpt><trkpt lat="43.112429871243826" lon="11.749741636977145"><ele>412.66666666666663</ele><time>2026-03-25T10:48:39Z</time></trkpt><trkpt lat="43.112439817157195" lon="11.749620534786198"><ele>414.3333333333333</ele><time>2026-03-25T10:48:40Z</time></trkpt><trkpt lat="43.112444652012385" lon="11.749504599444514"><ele>416.0</ele><time>2026-03-25T10:48:41Z</time></trkpt><trkpt lat="43.11246292471397" lon="11.749377177999337"><ele>416.49999999999994</ele><time>2026-03-25T10:48:42Z</time></trkpt><trkpt lat="43.11246884413076" lon="11.74924294032347"><ele>417.0</ele><time>2026-03-25T10:48:43Z</time></trkpt><trkpt lat="43.11246745460751" lon="11.749135897653941"><ele>417.5</ele><time>2026-03-25T10:48:44Z</time></trkpt><trkpt lat="43.11245580586879" lon="11.749041934434324"><ele>418.0</ele><time>2026-03-25T10:48:45Z</time></trkpt><trkpt lat="43.112430616876146" lon="11.748945998275175"><ele>418.49999999999994</ele><time>2026-03-25T10:48:46Z</time></trkpt><trkpt lat="43.11236890554696" lon="11.748850947023401"><ele>419.0</ele><time>2026-03-25T10:48:47Z</time></trkpt><trkpt lat="43.11227712987698" lon="11.748802761194888"><ele>419.0</ele><time>2026-03-25T10:48:48Z</time></trkpt><trkpt lat="43.11221129060115" lon="11.748725146994625"><ele>419.0</ele><time>2026-03-25T10:48:49Z</time></trkpt><trkpt lat="43.112135441635836" lon="11.748669077828161"><ele>419.0</ele><time>2026-03-25T10:48:50Z</time></trkpt><trkpt lat="43.11205486850424" lon="11.748611060022453"><ele>419.0</ele><time>2026-03-25T10:48:51Z</time></trkpt><trkpt lat="43.11196350231397" lon="11.748545270521287"><ele>419.0</ele><time>2026-03-25T10:48:52Z</time></trkpt><trkpt lat="43.11187418760907" lon="11.748478474096633"><ele>420.6</ele><time>2026-03-25T10:48:53Z</time></trkpt><trkpt lat="43.11178736675276" lon="11.748409283189932"><ele>422.2</ele><time>2026-03-25T10:48:54Z</time></trkpt><trkpt lat="43.11170287068284" lon="11.748339353915807"><ele>423.80000000000007</ele><time>2026-03-25T10:48:55Z</time></trkpt><trkpt lat="43.11161836587449" lon="11.748262143548274"><ele>425.40000000000003</ele><time>2026-03-25T10:48:56Z</time></trkpt><trkpt lat="43.11154878257519" lon="11.748180396081166"><ele>427.0</ele><time>2026-03-25T10:48:57Z</time></trkpt><trkpt lat="43.11150083150361" lon="11.748092975719915"><ele>427.0</ele><time>2026-03-25T10:48:58Z</time></trkpt><trkpt lat="43.111467755878685" lon="11.748002405247655"><ele>427.00000000000006</ele><time>2026-03-25T10:48:59Z</time></trkpt><trkpt lat="43.11144949420704" lon="11.747905881546615"><ele>427.00000000000006</ele><time>2026-03-25T10:49:00Z</time></trkpt><trkpt lat="43.11145268350413" lon="11.747762306465525"><ele>427.0</ele><time>2026-03-25T10:49:02Z</time></trkpt><trkpt lat="43.111515653311606" lon="11.747606260438161"><ele>427.0</ele><time>2026-03-25T10:49:04Z</time></trkpt><trkpt lat="43.111547022678494" lon="11.747516456735763"><ele>429.6</ele><time>2026-03-25T10:49:05Z</time></trkpt><trkpt lat="43.11156827670976" lon="11.747405275358044"><ele>432.20000000000005</ele><time>2026-03-25T10:49:06Z</time></trkpt><trkpt lat="43.111578970041016" lon="11.747268917110297"><ele>434.8</ele><time>2026-03-25T10:49:07Z</time></trkpt><trkpt lat="43.11158756786506" lon="11.747109080258047"><ele>437.4</ele><time>2026-03-25T10:49:08Z</time></trkpt><trkpt lat="43.11159499371001" lon="11.74696702658189"><ele>440.0</ele><time>2026-03-25T10:49:09Z</time></trkpt><trkpt lat="43.11160492675759" lon="11.746857025073423"><ele>445.0</ele><time>2026-03-25T10:49:10Z</time></trkpt><trkpt lat="43.11164304366423" lon="11.746655846427743"><ele>450.0</ele><time>2026-03-25T10:49:12Z</time></trkpt><trkpt lat="43.11169454441619" lon="11.746536988038208"><ele>455.0</ele><time>2026-03-25T10:49:13Z</time></trkpt><trkpt lat="43.11173740362576" lon="11.746437042376144"><ele>460.0</ele><time>2026-03-25T10:49:14Z</time></trkpt><trkpt lat="43.111736138630036" lon="11.746257172557064"><ele>460.0</ele><time>2026-03-25T10:49:16Z</time></trkpt><trkpt lat="43.11171896935955" lon="11.746115216857824"><ele>460.0</ele><time>2026-03-25T10:49:17Z</time></trkpt><trkpt lat="43.11169090448942" lon="11.74594521366069"><ele>460.0</ele><time>2026-03-25T10:49:18Z</time></trkpt><trkpt lat="43.11167394516671" lon="11.745755860679399"><ele>460.0</ele><time>2026-03-25T10:49:19Z</time></trkpt><trkpt lat="43.1116499531703" lon="11.74557537464209"><ele>461.75</ele><time>2026-03-25T10:49:20Z</time></trkpt><trkpt lat="43.111623987982384" lon="11.74538004499552"><ele>463.5</ele><time>2026-03-25T10:49:21Z</time></trkpt><trkpt lat="43.11159332570503" lon="11.745212205790523"><ele>465.25</ele><time>2026-03-25T10:49:22Z</time></trkpt><trkpt lat="43.11156363626956" lon="11.745025836743332"><ele>467.0</ele><time>2026-03-25T10:49:23Z</time></trkpt><trkpt lat="43.1115265365853" lon="11.744833245975435"><ele>467.3333333333333</ele><time>2026-03-25T10:49:24Z</time></trkpt><trkpt lat="43.111500990314035" lon="11.744712215226743"><ele>467.66666666666663</ele><time>2026-03-25T10:49:25Z</time></trkpt><trkpt lat="43.11148329448667" lon="11.744585283950512"><ele>468.0</ele><time>2026-03-25T10:49:26Z</time></trkpt><trkpt lat="43.11145494739194" lon="11.744465030465358"><ele>468.33333333333337</ele><time>2026-03-25T10:49:27Z</time></trkpt><trkpt lat="43.11143771214428" lon="11.74435878001706"><ele>468.6666666666667</ele><time>2026-03-25T10:49:28Z</time></trkpt><trkpt lat="43.11143031715039" lon="11.744251789789038"><ele>469.0</ele><time>2026-03-25T10:49:29Z</time></trkpt><trkpt lat="43.11144166416704" lon="11.744128237398275"><ele>469.25</ele><time>2026-03-25T10:49:30Z</time></trkpt><trkpt lat="43.111464069728704" lon="11.74396962031886"><ele>469.5</ele><time>2026-03-25T10:49:31Z</time></trkpt><trkpt lat="43.111468061419885" lon="11.743784265551486"><ele>469.75</ele><time>2026-03-25T10:49:32Z</time></trkpt><trkpt lat="43.111477060395764" lon="11.743623401045173"><ele>470.0</ele><time>2026-03-25T10:49:33Z</time></trkpt><trkpt lat="43.11147751011064" lon="11.743490823856737"><ele>469.0</ele><time>2026-03-25T10:49:34Z</time></trkpt><trkpt lat="43.11150309081688" lon="11.743372713763724"><ele>468.0</ele><time>2026-03-25T10:49:35Z</time></trkpt><trkpt lat="43.11153657033514" lon="11.743247010426892"><ele>467.0</ele><time>2026-03-25T10:49:36Z</time></trkpt><trkpt lat="43.11158672796421" lon="11.743092851955009"><ele>466.0</ele><time>2026-03-25T10:49:37Z</time></trkpt><trkpt lat="43.111688387282236" lon="11.742967951041013"><ele>465.0</ele><time>2026-03-25T10:49:38Z</time></trkpt><trkpt lat="43.111749239676676" lon="11.742844055663591"><ele>464.75</ele><time>2026-03-25T10:49:39Z</time></trkpt><trkpt lat="43.11180327694431" lon="11.74273211673707"><ele>464.5</ele><time>2026-03-25T10:49:40Z</time></trkpt><trkpt lat="43.111852579271975" lon="11.742580734197224"><ele>464.25</ele><time>2026-03-25T10:49:41Z</time></trkpt><trkpt lat="43.11189156165372" lon="11.742417679168199"><ele>464.0</ele><time>2026-03-25T10:49:41.999Z</time></trkpt><trkpt lat="43.11192383857298" lon="11.742268187906353"><ele>464.0</ele><time>2026-03-25T10:49:42.999Z</time></trkpt><trkpt lat="43.11195885264952" lon="11.74208847312794"><ele>464.0</ele><time>2026-03-25T10:49:43.999Z</time></trkpt><trkpt lat="43.11202084213757" lon="11.741864258564531"><ele>464.0</ele><time>2026-03-25T10:49:44.999Z</time></trkpt><trkpt lat="43.11204365457488" lon="11.741643117181372"><ele>464.0</ele><time>2026-03-25T10:49:45.999Z</time></trkpt><trkpt lat="43.11206219392256" lon="11.741434738899976"><ele>464.0</ele><time>2026-03-25T10:49:46.999Z</time></trkpt><trkpt lat="43.11207134131019" lon="11.741235609881755"><ele>464.0</ele><time>2026-03-25T10:49:47.999Z</time></trkpt><trkpt lat="43.11210204712674" lon="11.741064323513582"><ele>464.0</ele><time>2026-03-25T10:49:48.999Z</time></trkpt><trkpt lat="43.11212995793097" lon="11.7409101831846"><ele>464.0</ele><time>2026-03-25T10:49:49.999Z</time></trkpt><trkpt lat="43.11215980598227" lon="11.74076132132336"><ele>464.0</ele><time>2026-03-25T10:49:50.999Z</time></trkpt><trkpt lat="43.1122414753377" lon="11.740632423078992"><ele>464.0</ele><time>2026-03-25T10:49:51.999Z</time></trkpt><trkpt lat="43.11232797645465" lon="11.740508518077407"><ele>464.0</ele><time>2026-03-25T10:49:52.999Z</time></trkpt><trkpt lat="43.112427879834506" lon="11.740363492174467"><ele>464.5</ele><time>2026-03-25T10:49:53.999Z</time></trkpt><trkpt lat="43.11249202910586" lon="11.740219642205618"><ele>465.0</ele><time>2026-03-25T10:49:54.999Z</time></trkpt><trkpt lat="43.11255894492359" lon="11.740084500465878"><ele>465.5</ele><time>2026-03-25T10:49:55.999Z</time></trkpt><trkpt lat="43.112618955511884" lon="11.739921123123755"><ele>466.0</ele><time>2026-03-25T10:49:56.999Z</time></trkpt><trkpt lat="43.112682095352845" lon="11.739741531825533"><ele>467.6</ele><time>2026-03-25T10:49:57.999Z</time></trkpt><trkpt lat="43.11272840948023" lon="11.739602244138998"><ele>469.20000000000005</ele><time>2026-03-25T10:49:58.999Z</time></trkpt><trkpt lat="43.11275668190303" lon="11.739496500817399"><ele>470.79999999999995</ele><time>2026-03-25T10:49:59.999Z</time></trkpt><trkpt lat="43.112777748785795" lon="11.739393186820573"><ele>472.4</ele><time>2026-03-25T10:50:00.999Z</time></trkpt><trkpt lat="43.11282508777524" lon="11.739269689277965"><ele>474.0</ele><time>2026-03-25T10:50:01.999Z</time></trkpt><trkpt lat="43.112888856387045" lon="11.739102036253014"><ele>474.25</ele><time>2026-03-25T10:50:02.999Z</time></trkpt><trkpt lat="43.11295247262976" lon="11.738938026581621"><ele>474.5</ele><time>2026-03-25T10:50:03.999Z</time></trkpt><trkpt lat="43.11300801254132" lon="11.73878185871692"><ele>474.75</ele><time>2026-03-25T10:50:04.999Z</time></trkpt><trkpt lat="43.1130531816242" lon="11.73863427358006"><ele>475.0</ele><time>2026-03-25T10:50:05.999Z</time></trkpt><trkpt lat="43.11309207154225" lon="11.73848688984804"><ele>472.4</ele><time>2026-03-25T10:50:06.999Z</time></trkpt><trkpt lat="43.11311572902065" lon="11.738327447471786"><ele>469.8</ele><time>2026-03-25T10:50:07.999Z</time></trkpt><trkpt lat="43.1131464441256" lon="11.738183184327912"><ele>467.20000000000005</ele><time>2026-03-25T10:50:08.999Z</time></trkpt><trkpt lat="43.11314710579128" lon="11.738050415839965"><ele>464.6</ele><time>2026-03-25T10:50:09.999Z</time></trkpt><trkpt lat="43.11316502270614" lon="11.737933776381274"><ele>462.0</ele><time>2026-03-25T10:50:10.999Z</time></trkpt><trkpt lat="43.113178856383726" lon="11.737837862406835"><ele>462.0</ele><time>2026-03-25T10:50:11.999Z</time></trkpt><trkpt lat="43.11319948682718" lon="11.737756129583945"><ele>462.00000000000006</ele><time>2026-03-25T10:50:12.999Z</time></trkpt><trkpt lat="43.11325063137542" lon="11.73767678214264"><ele>462.00000000000006</ele><time>2026-03-25T10:50:13.999Z</time></trkpt><trkpt lat="43.11332143203678" lon="11.737585434669054"><ele>462.0</ele><time>2026-03-25T10:50:14.999Z</time></trkpt><trkpt lat="43.11337622316993" lon="11.737465691836732"><ele>462.0</ele><time>2026-03-25T10:50:15.999Z</time></trkpt><trkpt lat="43.1134295774265" lon="11.737317192990977"><ele>463.1666666666667</ele><time>2026-03-25T10:50:16.999Z</time></trkpt><trkpt lat="43.11347355044929" lon="11.737192107267385"><ele>464.33333333333337</ele><time>2026-03-25T10:50:17.999Z</time></trkpt><trkpt lat="43.11352758470326" lon="11.737109509644894"><ele>465.5</ele><time>2026-03-25T10:50:18.999Z</time></trkpt><trkpt lat="43.113580303513" lon="11.737034907378268"><ele>466.6666666666667</ele><time>2026-03-25T10:50:19.999Z</time></trkpt><trkpt lat="43.11365845845602" lon="11.736993761812624"><ele>467.83333333333337</ele><time>2026-03-25T10:50:20.999Z</time></trkpt><trkpt lat="43.11376067205736" lon="11.736947585963748"><ele>469.0</ele><time>2026-03-25T10:50:21.999Z</time></trkpt><trkpt lat="43.11389274388191" lon="11.736875345690128"><ele>469.75</ele><time>2026-03-25T10:50:22.999Z</time></trkpt><trkpt lat="43.11403319432241" lon="11.736806701863472"><ele>470.5</ele><time>2026-03-25T10:50:23.999Z</time></trkpt><trkpt lat="43.11416199520647" lon="11.736723457438968"><ele>471.25</ele><time>2026-03-25T10:50:24.999Z</time></trkpt><trkpt lat="43.1142682043041" lon="11.736645512920463"><ele>472.0</ele><time>2026-03-25T10:50:25.999Z</time></trkpt><trkpt lat="43.11435751326409" lon="11.736582364862558"><ele>472.00000000000006</ele><time>2026-03-25T10:50:26.999Z</time></trkpt><trkpt lat="43.11443517947959" lon="11.736531785558956"><ele>472.0</ele><time>2026-03-25T10:50:27.999Z</time></trkpt><trkpt lat="43.11449511492348" lon="11.736467406876754"><ele>472.0</ele><time>2026-03-25T10:50:28.999Z</time></trkpt><trkpt lat="43.114542559627864" lon="11.736388329990715"><ele>472.0</ele><time>2026-03-25T10:50:29.999Z</time></trkpt><trkpt lat="43.11459184329181" lon="11.736318738601062"><ele>472.00000000000006</ele><time>2026-03-25T10:50:30.999Z</time></trkpt><trkpt lat="43.11464217212061" lon="11.736222113314273"><ele>472.0</ele><time>2026-03-25T10:50:31.999Z</time></trkpt><trkpt lat="43.11468658359858" lon="11.736090092363215"><ele>471.25</ele><time>2026-03-25T10:50:32.999Z</time></trkpt><trkpt lat="43.11474768918789" lon="11.735946512822744"><ele>470.5</ele><time>2026-03-25T10:50:33.999Z</time></trkpt><trkpt lat="43.114795395517525" lon="11.73578468857881"><ele>469.75</ele><time>2026-03-25T10:50:34.999Z</time></trkpt><trkpt lat="43.11485517990981" lon="11.735606931532931"><ele>469.0</ele><time>2026-03-25T10:50:35.999Z</time></trkpt><trkpt lat="43.11489263072286" lon="11.735402489726454"><ele>468.0</ele><time>2026-03-25T10:50:36.999Z</time></trkpt><trkpt lat="43.114913970421945" lon="11.735227584763104"><ele>467.0</ele><time>2026-03-25T10:50:37.999Z</time></trkpt><trkpt lat="43.1149221353047" lon="11.735076657739237"><ele>466.0</ele><time>2026-03-25T10:50:38.999Z</time></trkpt><trkpt lat="43.114918265094566" lon="11.73492489709103"><ele>465.0</ele><time>2026-03-25T10:50:39.999Z</time></trkpt><trkpt lat="43.11490140603805" lon="11.73479044107424"><ele>465.0</ele><time>2026-03-25T10:50:40.999Z</time></trkpt><trkpt lat="43.11486537767672" lon="11.734658843299854"><ele>465.0</ele><time>2026-03-25T10:50:41.999Z</time></trkpt><trkpt lat="43.114813085807505" lon="11.734526570239128"><ele>465.0</ele><time>2026-03-25T10:50:42.999Z</time></trkpt><trkpt lat="43.11476423702535" lon="11.734411611425182"><ele>465.0</ele><time>2026-03-25T10:50:44Z</time></trkpt><trkpt lat="43.11470609929085" lon="11.73428158716394"><ele>465.0</ele><time>2026-03-25T10:50:45Z</time></trkpt><trkpt lat="43.11462053305132" lon="11.734138825025925"><ele>467.0</ele><time>2026-03-25T10:50:46Z</time></trkpt><trkpt lat="43.11452955629773" lon="11.733977599821058"><ele>469.0</ele><time>2026-03-25T10:50:47Z</time></trkpt><trkpt lat="43.11442985685367" lon="11.733807348132766"><ele>471.0</ele><time>2026-03-25T10:50:48Z</time></trkpt><trkpt lat="43.11431463134859" lon="11.733612856913567"><ele>470.66666666666663</ele><time>2026-03-25T10:50:49Z</time></trkpt><trkpt lat="43.114201146970075" lon="11.733422656178284"><ele>470.3333333333333</ele><time>2026-03-25T10:50:50Z</time></trkpt><trkpt lat="43.11410091995869" lon="11.733252382817819"><ele>470.0</ele><time>2026-03-25T10:50:51Z</time></trkpt><trkpt lat="43.11400392793797" lon="11.733086945304374"><ele>470.0</ele><time>2026-03-25T10:50:52Z</time></trkpt><trkpt lat="43.11391439019141" lon="11.732932133782105"><ele>470.0</ele><time>2026-03-25T10:50:53Z</time></trkpt><trkpt lat="43.11382208607758" lon="11.732768966902793"><ele>470.0</ele><time>2026-03-25T10:50:54Z</time></trkpt><trkpt lat="43.11373768027583" lon="11.732617132217145"><ele>470.0</ele><time>2026-03-25T10:50:55Z</time></trkpt><trkpt lat="43.11365159469133" lon="11.73246340259367"><ele>470.8</ele><time>2026-03-25T10:50:56Z</time></trkpt><trkpt lat="43.113559614986286" lon="11.732340298688602"><ele>471.6</ele><time>2026-03-25T10:50:57Z</time></trkpt><trkpt lat="43.113510082435184" lon="11.732209496882149"><ele>472.4</ele><time>2026-03-25T10:50:58Z</time></trkpt><trkpt lat="43.11347001288898" lon="11.732116472003094"><ele>473.2</ele><time>2026-03-25T10:50:59Z</time></trkpt><trkpt lat="43.113440288904805" lon="11.732010208818105"><ele>474.0</ele><time>2026-03-25T10:51:00Z</time></trkpt><trkpt lat="43.113430197446945" lon="11.731886757558469"><ele>474.0</ele><time>2026-03-25T10:51:01Z</time></trkpt><trkpt lat="43.113411456453704" lon="11.731759030635198"><ele>474.0</ele><time>2026-03-25T10:51:02Z</time></trkpt><trkpt lat="43.11339520316287" lon="11.731636338001621"><ele>474.0</ele><time>2026-03-25T10:51:03Z</time></trkpt><trkpt lat="43.11336790632788" lon="11.731514572105937"><ele>474.0</ele><time>2026-03-25T10:51:04Z</time></trkpt><trkpt lat="43.11332553913187" lon="11.731384552191024"><ele>474.0</ele><time>2026-03-25T10:51:05Z</time></trkpt><trkpt lat="43.11325713996797" lon="11.731254474200808"><ele>473.79999999999995</ele><time>2026-03-25T10:51:06Z</time></trkpt><trkpt lat="43.11319641358926" lon="11.731154378898838"><ele>473.59999999999997</ele><time>2026-03-25T10:51:07Z</time></trkpt><trkpt lat="43.11313200653685" lon="11.731066214001622"><ele>473.4</ele><time>2026-03-25T10:51:08Z</time></trkpt><trkpt lat="43.113052987161446" lon="11.73098332310197"><ele>473.2</ele><time>2026-03-25T10:51:09Z</time></trkpt><trkpt lat="43.11293349079729" lon="11.730897306629878"><ele>473.0</ele><time>2026-03-25T10:51:10Z</time></trkpt><trkpt lat="43.112810511269124" lon="11.73078441920251"><ele>473.25</ele><time>2026-03-25T10:51:11Z</time></trkpt><trkpt lat="43.11268608069843" lon="11.730648082299162"><ele>473.5</ele><time>2026-03-25T10:51:12Z</time></trkpt><trkpt lat="43.112573362141575" lon="11.730547710786796"><ele>473.75</ele><time>2026-03-25T10:51:13Z</time></trkpt><trkpt lat="43.11246771959859" lon="11.730480572454884"><ele>474.0</ele><time>2026-03-25T10:51:14Z</time></trkpt><trkpt lat="43.112383313180594" lon="11.730380847905641"><ele>474.0</ele><time>2026-03-25T10:51:15Z</time></trkpt><trkpt lat="43.11229124183294" lon="11.73032250694868"><ele>474.0</ele><time>2026-03-25T10:51:16Z</time></trkpt><trkpt lat="43.11222985276504" lon="11.730239217447215"><ele>474.0</ele><time>2026-03-25T10:51:17Z</time></trkpt><trkpt lat="43.1121791461675" lon="11.730178113751933"><ele>474.0</ele><time>2026-03-25T10:51:18Z</time></trkpt><trkpt lat="43.11211153099728" lon="11.730049183003045"><ele>474.0</ele><time>2026-03-25T10:51:20Z</time></trkpt><trkpt lat="43.11215015582961" lon="11.729954300840548"><ele>473.2</ele><time>2026-03-25T10:51:21Z</time></trkpt><trkpt lat="43.112172506288395" lon="11.729851924206598"><ele>472.4</ele><time>2026-03-25T10:51:22Z</time></trkpt><trkpt lat="43.11220124504557" lon="11.729752751286416"><ele>471.6</ele><time>2026-03-25T10:51:23Z</time></trkpt><trkpt lat="43.1122399222916" lon="11.729656136367966"><ele>470.8</ele><time>2026-03-25T10:51:24Z</time></trkpt><trkpt lat="43.11229674711044" lon="11.729553668142874"><ele>470.0</ele><time>2026-03-25T10:51:25Z</time></trkpt><trkpt lat="43.11240096982438" lon="11.729423639177655"><ele>470.3333333333333</ele><time>2026-03-25T10:51:26Z</time></trkpt><trkpt lat="43.11251378749675" lon="11.729255041101931"><ele>470.66666666666663</ele><time>2026-03-25T10:51:27Z</time></trkpt><trkpt lat="43.11261747924379" lon="11.729099641844225"><ele>471.0</ele><time>2026-03-25T10:51:28Z</time></trkpt><trkpt lat="43.11270070801857" lon="11.728940503385855"><ele>471.0</ele><time>2026-03-25T10:51:29Z</time></trkpt><trkpt lat="43.11279741068072" lon="11.728797713736974"><ele>471.0</ele><time>2026-03-25T10:51:30Z</time></trkpt><trkpt lat="43.11288097806925" lon="11.72867563020086"><ele>471.0</ele><time>2026-03-25T10:51:31Z</time></trkpt><trkpt lat="43.11294714017152" lon="11.728551910362649"><ele>471.0</ele><time>2026-03-25T10:51:32Z</time></trkpt><trkpt lat="43.11301223654231" lon="11.728402591399378"><ele>470.4</ele><time>2026-03-25T10:51:33Z</time></trkpt><trkpt lat="43.11306980088367" lon="11.728229247681458"><ele>469.8</ele><time>2026-03-25T10:51:34Z</time></trkpt><trkpt lat="43.11311610348903" lon="11.728056877951564"><ele>469.19999999999993</ele><time>2026-03-25T10:51:35Z</time></trkpt><trkpt lat="43.11314700837316" lon="11.727930087901273"><ele>468.59999999999997</ele><time>2026-03-25T10:51:36Z</time></trkpt><trkpt lat="43.11316220327561" lon="11.727833297755886"><ele>468.0</ele><time>2026-03-25T10:51:37Z</time></trkpt><trkpt lat="43.11318577756121" lon="11.727732509013137"><ele>467.0</ele><time>2026-03-25T10:51:38Z</time></trkpt><trkpt lat="43.11318268196005" lon="11.727606993744013"><ele>466.0</ele><time>2026-03-25T10:51:39Z</time></trkpt><trkpt lat="43.11316069355871" lon="11.727463238823779"><ele>465.0</ele><time>2026-03-25T10:51:40Z</time></trkpt><trkpt lat="43.11311635325901" lon="11.727302605386571"><ele>464.0</ele><time>2026-03-25T10:51:41Z</time></trkpt><trkpt lat="43.113060186948324" lon="11.727118557207476"><ele>464.0</ele><time>2026-03-25T10:51:42Z</time></trkpt><trkpt lat="43.113010016612094" lon="11.726938833181801"><ele>464.0</ele><time>2026-03-25T10:51:43Z</time></trkpt><trkpt lat="43.112958445989875" lon="11.726745009852538"><ele>464.0</ele><time>2026-03-25T10:51:44Z</time></trkpt><trkpt lat="43.11290486542555" lon="11.726537478080406"><ele>464.0</ele><time>2026-03-25T10:51:45Z</time></trkpt><trkpt lat="43.112849272050816" lon="11.726300491435548"><ele>464.0</ele><time>2026-03-25T10:51:46Z</time></trkpt><trkpt lat="43.11280863618863" lon="11.726091023137062"><ele>464.0</ele><time>2026-03-25T10:51:47Z</time></trkpt><trkpt lat="43.11277089634988" lon="11.725912362687229"><ele>464.0</ele><time>2026-03-25T10:51:48Z</time></trkpt><trkpt lat="43.112720775188265" lon="11.72578770760015"><ele>464.0</ele><time>2026-03-25T10:51:49Z</time></trkpt><trkpt lat="43.11269187807828" lon="11.725672921157512"><ele>464.0</ele><time>2026-03-25T10:51:50Z</time></trkpt><trkpt lat="43.112656318320205" lon="11.725574646247507"><ele>464.0</ele><time>2026-03-25T10:51:51Z</time></trkpt><trkpt lat="43.112606946144965" lon="11.725489321495887"><ele>464.0</ele><time>2026-03-25T10:51:52Z</time></trkpt><trkpt lat="43.112535456821156" lon="11.725374407348934"><ele>464.0</ele><time>2026-03-25T10:51:53Z</time></trkpt><trkpt lat="43.112423980564785" lon="11.725247921709078"><ele>464.0</ele><time>2026-03-25T10:51:54Z</time></trkpt><trkpt lat="43.11229391777943" lon="11.725100159763807"><ele>464.0</ele><time>2026-03-25T10:51:55Z</time></trkpt><trkpt lat="43.112172064019155" lon="11.724967250839024"><ele>463.75</ele><time>2026-03-25T10:51:56Z</time></trkpt><trkpt lat="43.11205769072067" lon="11.724878266024572"><ele>463.5</ele><time>2026-03-25T10:51:57Z</time></trkpt><trkpt lat="43.11196624067236" lon="11.724773864179795"><ele>463.25</ele><time>2026-03-25T10:51:58Z</time></trkpt><trkpt lat="43.111874919673554" lon="11.724683510555023"><ele>463.0</ele><time>2026-03-25T10:51:59Z</time></trkpt><trkpt lat="43.111806261747745" lon="11.724606583521815"><ele>463.0</ele><time>2026-03-25T10:51:59.999Z</time></trkpt><trkpt lat="43.11172086016484" lon="11.72451382825031"><ele>463.0</ele><time>2026-03-25T10:52:01.999Z</time></trkpt><trkpt lat="43.11167201236385" lon="11.724441592508482"><ele>463.0</ele><time>2026-03-25T10:52:03.999Z</time></trkpt><trkpt lat="43.111860691807095" lon="11.724302832252667"><ele>463.0</ele><time>2026-03-25T10:52:09.999Z</time></trkpt><trkpt lat="43.111998245614025" lon="11.724272080830621"><ele>463.25</ele><time>2026-03-25T10:52:10.999Z</time></trkpt><trkpt lat="43.112115393528704" lon="11.724227176836244"><ele>463.5</ele><time>2026-03-25T10:52:11.999Z</time></trkpt><trkpt lat="43.112223709932294" lon="11.724152363230358"><ele>463.75</ele><time>2026-03-25T10:52:12.999Z</time></trkpt><trkpt lat="43.11233013799222" lon="11.724029597455987"><ele>464.0</ele><time>2026-03-25T10:52:13.999Z</time></trkpt><trkpt lat="43.112436551641935" lon="11.723872227421696"><ele>464.66666666666663</ele><time>2026-03-25T10:52:14.999Z</time></trkpt><trkpt lat="43.11252960432592" lon="11.72370994811734"><ele>465.33333333333337</ele><time>2026-03-25T10:52:15.999Z</time></trkpt><trkpt lat="43.112635319735105" lon="11.723549465271526"><ele>466.0</ele><time>2026-03-25T10:52:16.999Z</time></trkpt><trkpt lat="43.112747431758116" lon="11.723393006027482"><ele>464.6666666666667</ele><time>2026-03-25T10:52:17.999Z</time></trkpt><trkpt lat="43.11287040656363" lon="11.723241758703185"><ele>463.33333333333337</ele><time>2026-03-25T10:52:18.999Z</time></trkpt><trkpt lat="43.11301299512889" lon="11.723111017986723"><ele>462.0</ele><time>2026-03-25T10:52:19.999Z</time></trkpt><trkpt lat="43.11317854062779" lon="11.723008699522397"><ele>462.0</ele><time>2026-03-25T10:52:20.999Z</time></trkpt><trkpt lat="43.11334253261014" lon="11.722918900599293"><ele>462.0</ele><time>2026-03-25T10:52:21.999Z</time></trkpt><trkpt lat="43.11349873957782" lon="11.722828861227628"><ele>462.0</ele><time>2026-03-25T10:52:22.999Z</time></trkpt><trkpt lat="43.1136109584017" lon="11.722746587105558"><ele>462.0</ele><time>2026-03-25T10:52:23.999Z</time></trkpt><trkpt lat="43.11373493538399" lon="11.72271377041174"><ele>462.0</ele><time>2026-03-25T10:52:24.999Z</time></trkpt><trkpt lat="43.11388899951953" lon="11.722735893085803"><ele>462.0</ele><time>2026-03-25T10:52:25.999Z</time></trkpt><trkpt lat="43.11403986761643" lon="11.722782616091276"><ele>462.0</ele><time>2026-03-25T10:52:26.999Z</time></trkpt><trkpt lat="43.1141717791298" lon="11.722814746292515"><ele>462.0</ele><time>2026-03-25T10:52:27.999Z</time></trkpt><trkpt lat="43.11429836773647" lon="11.722852977311234"><ele>462.0</ele><time>2026-03-25T10:52:28.999Z</time></trkpt><trkpt lat="43.11441991722681" lon="11.722901595673553"><ele>462.0</ele><time>2026-03-25T10:52:29.999Z</time></trkpt><trkpt lat="43.11453607342827" lon="11.72291799202867"><ele>462.0</ele><time>2026-03-25T10:52:30.999Z</time></trkpt><trkpt lat="43.11464251916869" lon="11.722952490690988"><ele>462.0</ele><time>2026-03-25T10:52:31.999Z</time></trkpt><trkpt lat="43.11474015151334" lon="11.722977313100978"><ele>462.0</ele><time>2026-03-25T10:52:32.999Z</time></trkpt><trkpt lat="43.1148393311112" lon="11.723015953822067"><ele>462.0</ele><time>2026-03-25T10:52:33.999Z</time></trkpt><trkpt lat="43.114957174753144" lon="11.723056104073006"><ele>462.0</ele><time>2026-03-25T10:52:34.999Z</time></trkpt><trkpt lat="43.115088350767245" lon="11.723090138947743"><ele>462.25</ele><time>2026-03-25T10:52:35.999Z</time></trkpt><trkpt lat="43.11522695475739" lon="11.723127186332828"><ele>462.5</ele><time>2026-03-25T10:52:36.999Z</time></trkpt><trkpt lat="43.11536952301842" lon="11.723163587002137"><ele>462.75</ele><time>2026-03-25T10:52:37.999Z</time></trkpt><trkpt lat="43.1155206353715" lon="11.723210045080686"><ele>463.0</ele><time>2026-03-25T10:52:38.999Z</time></trkpt><trkpt lat="43.11567227045619" lon="11.723255540312355"><ele>461.5</ele><time>2026-03-25T10:52:39.999Z</time></trkpt><trkpt lat="43.1158191189684" lon="11.723298506812743"><ele>460.0</ele><time>2026-03-25T10:52:40.999Z</time></trkpt><trkpt lat="43.11596420753793" lon="11.723341934417142"><ele>458.5</ele><time>2026-03-25T10:52:41.999Z</time></trkpt><trkpt lat="43.11608783388599" lon="11.723383555813978"><ele>457.0</ele><time>2026-03-25T10:52:42.999Z</time></trkpt><trkpt lat="43.11617392219835" lon="11.723430468209845"><ele>457.00000000000006</ele><time>2026-03-25T10:52:43.999Z</time></trkpt><trkpt lat="43.116245141739086" lon="11.72347260283111"><ele>457.0</ele><time>2026-03-25T10:52:44.999Z</time></trkpt><trkpt lat="43.1163103731944" lon="11.723515707111973"><ele>457.0</ele><time>2026-03-25T10:52:45.999Z</time></trkpt><trkpt lat="43.116368689124954" lon="11.723554792765311"><ele>457.0</ele><time>2026-03-25T10:52:46.999Z</time></trkpt><trkpt lat="43.11643551803314" lon="11.723630904820563"><ele>457.00000000000006</ele><time>2026-03-25T10:52:48.999Z</time></trkpt><trkpt lat="43.11645783683986" lon="11.723802604149862"><ele>457.0</ele><time>2026-03-25T10:52:51Z</time></trkpt><trkpt lat="43.116511541821076" lon="11.723931016630136"><ele>457.0</ele><time>2026-03-25T10:52:52Z</time></trkpt><trkpt lat="43.11656899559171" lon="11.724043698713265"><ele>457.00000000000006</ele><time>2026-03-25T10:52:53Z</time></trkpt><trkpt lat="43.11661386427566" lon="11.724144917264383"><ele>457.00000000000006</ele><time>2026-03-25T10:52:54Z</time></trkpt><trkpt lat="43.11665944785425" lon="11.724264159594393"><ele>457.0</ele><time>2026-03-25T10:52:55Z</time></trkpt><trkpt lat="43.11672260548085" lon="11.724425217903304"><ele>457.0</ele><time>2026-03-25T10:52:56Z</time></trkpt><trkpt lat="43.11679684181916" lon="11.72461595096814"><ele>455.5</ele><time>2026-03-25T10:52:57Z</time></trkpt><trkpt lat="43.116867991024215" lon="11.724793704652432"><ele>454.0</ele><time>2026-03-25T10:52:58Z</time></trkpt><trkpt lat="43.11692875154774" lon="11.724948031596169"><ele>452.5</ele><time>2026-03-25T10:52:59Z</time></trkpt><trkpt lat="43.11698260186599" lon="11.72509319773692"><ele>451.0</ele><time>2026-03-25T10:53:00Z</time></trkpt><trkpt lat="43.117038899736706" lon="11.725242181568834"><ele>450.0</ele><time>2026-03-25T10:53:01Z</time></trkpt><trkpt lat="43.11710450972536" lon="11.725412236642791"><ele>449.0</ele><time>2026-03-25T10:53:02Z</time></trkpt><trkpt lat="43.11717178961515" lon="11.725590820127673"><ele>448.0</ele><time>2026-03-25T10:53:03Z</time></trkpt><trkpt lat="43.11724121406914" lon="11.72576463582079"><ele>447.0</ele><time>2026-03-25T10:53:04Z</time></trkpt><trkpt lat="43.117309981575055" lon="11.725943797423717"><ele>446.25</ele><time>2026-03-25T10:53:05Z</time></trkpt><trkpt lat="43.117374240213046" lon="11.72612668935692"><ele>445.5</ele><time>2026-03-25T10:53:06Z</time></trkpt><trkpt lat="43.11744675867029" lon="11.726301336458164"><ele>444.75</ele><time>2026-03-25T10:53:07Z</time></trkpt><trkpt lat="43.117513462785666" lon="11.726467955298796"><ele>444.0</ele><time>2026-03-25T10:53:08Z</time></trkpt><trkpt lat="43.11757258394043" lon="11.726625531091564"><ele>444.0</ele><time>2026-03-25T10:53:09Z</time></trkpt><trkpt lat="43.117636323880824" lon="11.726793152750233"><ele>444.0</ele><time>2026-03-25T10:53:10Z</time></trkpt><trkpt lat="43.11770018686823" lon="11.726954664920934"><ele>444.0</ele><time>2026-03-25T10:53:11Z</time></trkpt><trkpt lat="43.117742965886094" lon="11.727111872186285"><ele>444.0</ele><time>2026-03-25T10:53:12Z</time></trkpt><trkpt lat="43.11780529841365" lon="11.727231602303952"><ele>443.6</ele><time>2026-03-25T10:53:13Z</time></trkpt><trkpt lat="43.11784510422864" lon="11.727345966933026"><ele>443.2</ele><time>2026-03-25T10:53:14Z</time></trkpt><trkpt lat="43.117893605167545" lon="11.727469122442944"><ele>442.80000000000007</ele><time>2026-03-25T10:53:15Z</time></trkpt><trkpt lat="43.117922577843636" lon="11.727592204571744"><ele>442.40000000000003</ele><time>2026-03-25T10:53:16Z</time></trkpt><trkpt lat="43.11797890886218" lon="11.727695863318928"><ele>442.0</ele><time>2026-03-25T10:53:17Z</time></trkpt><trkpt lat="43.11802943345589" lon="11.72781806962041"><ele>442.0</ele><time>2026-03-25T10:53:18Z</time></trkpt><trkpt lat="43.1180643767141" lon="11.72795423763018"><ele>442.0</ele><time>2026-03-25T10:53:19Z</time></trkpt><trkpt lat="43.118131241460254" lon="11.728085650363507"><ele>442.0</ele><time>2026-03-25T10:53:20Z</time></trkpt><trkpt lat="43.11819396358694" lon="11.728245488626877"><ele>442.0</ele><time>2026-03-25T10:53:21Z</time></trkpt><trkpt lat="43.11825096707488" lon="11.728419253244134"><ele>442.75</ele><time>2026-03-25T10:53:22Z</time></trkpt><trkpt lat="43.1183322161593" lon="11.728598114120317"><ele>443.5</ele><time>2026-03-25T10:53:23Z</time></trkpt><trkpt lat="43.11837787853509" lon="11.728790077247108"><ele>444.25</ele><time>2026-03-25T10:53:24Z</time></trkpt><trkpt lat="43.11843435421974" lon="11.728962387711173"><ele>445.0</ele><time>2026-03-25T10:53:25Z</time></trkpt><trkpt lat="43.11848881041541" lon="11.729128537024273"><ele>445.0</ele><time>2026-03-25T10:53:26Z</time></trkpt><trkpt lat="43.11855280860256" lon="11.729283491370007"><ele>445.0</ele><time>2026-03-25T10:53:27Z</time></trkpt><trkpt lat="43.11860779587259" lon="11.72945565487276"><ele>445.0</ele><time>2026-03-25T10:53:28Z</time></trkpt><trkpt lat="43.11863837856953" lon="11.729631473319566"><ele>445.0</ele><time>2026-03-25T10:53:29Z</time></trkpt><trkpt lat="43.118668439231165" lon="11.729776257822786"><ele>444.5</ele><time>2026-03-25T10:53:30Z</time></trkpt><trkpt lat="43.11869428105938" lon="11.729923998313751"><ele>444.0</ele><time>2026-03-25T10:53:31Z</time></trkpt><trkpt lat="43.11871904511088" lon="11.730088209183473"><ele>443.5</ele><time>2026-03-25T10:53:32Z</time></trkpt><trkpt lat="43.118737686011805" lon="11.730257977140942"><ele>443.0</ele><time>2026-03-25T10:53:33Z</time></trkpt><trkpt lat="43.11875460544434" lon="11.73043486826181"><ele>442.99999999999994</ele><time>2026-03-25T10:53:34Z</time></trkpt><trkpt lat="43.118781224709274" lon="11.730587692618407"><ele>443.0</ele><time>2026-03-25T10:53:35Z</time></trkpt><trkpt lat="43.11878216946719" lon="11.73072304752532"><ele>443.0</ele><time>2026-03-25T10:53:36Z</time></trkpt><trkpt lat="43.11880781490182" lon="11.73082926946157"><ele>443.0</ele><time>2026-03-25T10:53:37Z</time></trkpt><trkpt lat="43.118816844704206" lon="11.730932386574954"><ele>442.99999999999994</ele><time>2026-03-25T10:53:38Z</time></trkpt><trkpt lat="43.11883932521746" lon="11.731025260576924"><ele>443.0</ele><time>2026-03-25T10:53:39Z</time></trkpt><trkpt lat="43.11886132981428" lon="11.731123809698964"><ele>442.79999999999995</ele><time>2026-03-25T10:53:40Z</time></trkpt><trkpt lat="43.118931885810845" lon="11.731195219064364"><ele>442.59999999999997</ele><time>2026-03-25T10:53:41Z</time></trkpt><trkpt lat="43.11900350597655" lon="11.731274768272806"><ele>442.40000000000003</ele><time>2026-03-25T10:53:42Z</time></trkpt><trkpt lat="43.119084850897856" lon="11.731342764385737"><ele>442.20000000000005</ele><time>2026-03-25T10:53:43Z</time></trkpt><trkpt lat="43.11917486501008" lon="11.73140622603211"><ele>442.0</ele><time>2026-03-25T10:53:44Z</time></trkpt><trkpt lat="43.11926963318652" lon="11.731501112326253"><ele>444.1666666666667</ele><time>2026-03-25T10:53:45Z</time></trkpt><trkpt lat="43.1193548057482" lon="11.731575384363689"><ele>446.33333333333337</ele><time>2026-03-25T10:53:46Z</time></trkpt><trkpt lat="43.11943535877342" lon="11.73163695701853"><ele>448.5</ele><time>2026-03-25T10:53:47Z</time></trkpt><trkpt lat="43.119519017788924" lon="11.73169323506325"><ele>450.66666666666663</ele><time>2026-03-25T10:53:48Z</time></trkpt><trkpt lat="43.1195886664207" lon="11.731743088412506"><ele>452.8333333333333</ele><time>2026-03-25T10:53:49Z</time></trkpt><trkpt lat="43.1196466228374" lon="11.731804706401757"><ele>455.0</ele><time>2026-03-25T10:53:50Z</time></trkpt><trkpt lat="43.11966148859997" lon="11.731893420894936"><ele>455.8</ele><time>2026-03-25T10:53:51Z</time></trkpt><trkpt lat="43.119694001560774" lon="11.732086956901894"><ele>456.6</ele><time>2026-03-25T10:53:53Z</time></trkpt><trkpt lat="43.11971432627759" lon="11.732198468002203"><ele>457.4</ele><time>2026-03-25T10:53:54Z</time></trkpt><trkpt lat="43.11972780460855" lon="11.732299633986937"><ele>458.2</ele><time>2026-03-25T10:53:55Z</time></trkpt><trkpt lat="43.11974482141251" lon="11.732407048214556"><ele>459.0</ele><time>2026-03-25T10:53:56Z</time></trkpt><trkpt lat="43.119760655096655" lon="11.73250486625853"><ele>459.0</ele><time>2026-03-25T10:53:57Z</time></trkpt><trkpt lat="43.11979394583111" lon="11.732620131675185"><ele>459.0</ele><time>2026-03-25T10:53:59Z</time></trkpt><trkpt lat="43.11989550561234" lon="11.732661516672382"><ele>459.0</ele><time>2026-03-25T10:54:01Z</time></trkpt><trkpt lat="43.119962875902694" lon="11.732629901049691"><ele>459.0</ele><time>2026-03-25T10:54:02Z</time></trkpt><trkpt lat="43.12010098485587" lon="11.73260249215301"><ele>459.0</ele><time>2026-03-25T10:54:04Z</time></trkpt><trkpt lat="43.12018694028201" lon="11.732602377571617"><ele>460.8333333333333</ele><time>2026-03-25T10:54:05Z</time></trkpt><trkpt lat="43.12026349677799" lon="11.732596653460856"><ele>462.66666666666663</ele><time>2026-03-25T10:54:06Z</time></trkpt><trkpt lat="43.12033795229823" lon="11.732581219697197"><ele>464.5</ele><time>2026-03-25T10:54:07Z</time></trkpt><trkpt lat="43.12040587732511" lon="11.732551945678448"><ele>466.3333333333333</ele><time>2026-03-25T10:54:08Z</time></trkpt><trkpt lat="43.12047740087157" lon="11.732512272530794"><ele>468.16666666666663</ele><time>2026-03-25T10:54:08.999Z</time></trkpt><trkpt lat="43.12054154779151" lon="11.732457692122043"><ele>470.0</ele><time>2026-03-25T10:54:09.999Z</time></trkpt><trkpt lat="43.120610140753044" lon="11.732415428264035"><ele>469.99999999999994</ele><time>2026-03-25T10:54:10.999Z</time></trkpt><trkpt lat="43.12068994880909" lon="11.732387737019796"><ele>470.0</ele><time>2026-03-25T10:54:11.999Z</time></trkpt><trkpt lat="43.120761410771685" lon="11.732346283319922"><ele>470.0</ele><time>2026-03-25T10:54:12.999Z</time></trkpt><trkpt lat="43.12083234915226" lon="11.732305133341011"><ele>470.0</ele><time>2026-03-25T10:54:13.999Z</time></trkpt><trkpt lat="43.120894695342606" lon="11.732211095675366"><ele>469.99999999999994</ele><time>2026-03-25T10:54:21.999Z</time></trkpt><trkpt lat="43.1209415455588" lon="11.732151681695047"><ele>470.0</ele><time>2026-03-25T10:54:22.999Z</time></trkpt><trkpt lat="43.120997796507666" lon="11.732082093475308"><ele>471.49999999999994</ele><time>2026-03-25T10:54:23.999Z</time></trkpt><trkpt lat="43.12105321643407" lon="11.73201496932089"><ele>473.0</ele><time>2026-03-25T10:54:24.999Z</time></trkpt><trkpt lat="43.121104900790904" lon="11.731944907517336"><ele>474.5</ele><time>2026-03-25T10:54:25.999Z</time></trkpt><trkpt lat="43.12119344904883" lon="11.73182252021251"><ele>476.0</ele><time>2026-03-25T10:54:27.999Z</time></trkpt><trkpt lat="43.12124184943514" lon="11.731759388224791"><ele>477.49999999999994</ele><time>2026-03-25T10:54:28.999Z</time></trkpt><trkpt lat="43.121288899780176" lon="11.73168259585907"><ele>479.0</ele><time>2026-03-25T10:54:29.999Z</time></trkpt><trkpt lat="43.121345127064565" lon="11.731596485563943"><ele>479.0</ele><time>2026-03-25T10:54:30.999Z</time></trkpt><trkpt lat="43.12139558410977" lon="11.731521375933223"><ele>479.0</ele><time>2026-03-25T10:54:31.999Z</time></trkpt><trkpt lat="43.121440100433" lon="11.731451709511841"><ele>479.0</ele><time>2026-03-25T10:54:32.999Z</time></trkpt><trkpt lat="43.121485515767446" lon="11.731377195397949"><ele>479.0</ele><time>2026-03-25T10:54:33.999Z</time></trkpt><trkpt lat="43.12152474025998" lon="11.731305564482838"><ele>479.0</ele><time>2026-03-25T10:54:34.999Z</time></trkpt><trkpt lat="43.12156773822166" lon="11.731234213118539"><ele>479.0</ele><time>2026-03-25T10:54:35.999Z</time></trkpt><trkpt lat="43.121619909733276" lon="11.731160483740105"><ele>479.0</ele><time>2026-03-25T10:54:36.999Z</time></trkpt><trkpt lat="43.12166661144314" lon="11.7310934620367"><ele>479.99999999999994</ele><time>2026-03-25T10:54:37.999Z</time></trkpt><trkpt lat="43.12171573303667" lon="11.731028140564803"><ele>481.0</ele><time>2026-03-25T10:54:38.999Z</time></trkpt><trkpt lat="43.12176499841409" lon="11.730970721091833"><ele>482.0</ele><time>2026-03-25T10:54:39.999Z</time></trkpt><trkpt lat="43.12184676225881" lon="11.730853198343869"><ele>483.0</ele><time>2026-03-25T10:54:41.999Z</time></trkpt><trkpt lat="43.12189975352035" lon="11.730771646926499"><ele>483.99999999999994</ele><time>2026-03-25T10:54:43.999Z</time></trkpt><trkpt lat="43.12195976204245" lon="11.730688963746243"><ele>485.0</ele><time>2026-03-25T10:54:46.999Z</time></trkpt><trkpt lat="43.12189676468733" lon="11.730771531489713"><ele>484.99999999999994</ele><time>2026-03-25T10:55:24Z</time></trkpt><trkpt lat="43.1218228958919" lon="11.730881571686734"><ele>485.0</ele><time>2026-03-25T10:55:26Z</time></trkpt><trkpt lat="43.1217676979251" lon="11.730961745858925"><ele>485.0</ele><time>2026-03-25T10:55:27Z</time></trkpt><trkpt lat="43.121718566629276" lon="11.731024591117766"><ele>485.0</ele><time>2026-03-25T10:55:28Z</time></trkpt><trkpt lat="43.12163646984905" lon="11.731134697734785"><ele>484.99999999999994</ele><time>2026-03-25T10:55:30Z</time></trkpt><trkpt lat="43.12158123584926" lon="11.73119810506221"><ele>485.0</ele><time>2026-03-25T10:55:32Z</time></trkpt><trkpt lat="43.12154992992989" lon="11.731274830946326"><ele>484.99999999999994</ele><time>2026-03-25T10:55:35Z</time></trkpt><trkpt lat="43.12159404895665" lon="11.731356235292093"><ele>485.0</ele><time>2026-03-25T10:55:43Z</time></trkpt><trkpt lat="43.12164430938255" lon="11.731298728284482"><ele>485.0</ele><time>2026-03-25T10:55:47Z</time></trkpt><trkpt lat="43.121693673427316" lon="11.73121009394834"><ele>485.0</ele><time>2026-03-25T10:55:48Z</time></trkpt><trkpt lat="43.121752678712184" lon="11.731120865720905"><ele>484.99999999999994</ele><time>2026-03-25T10:55:49Z</time></trkpt><trkpt lat="43.12180216522246" lon="11.731046339637516"><ele>485.0</ele><time>2026-03-25T10:55:50Z</time></trkpt><trkpt lat="43.12184910812825" lon="11.73097087749057"><ele>485.0</ele><time>2026-03-25T10:55:51Z</time></trkpt><trkpt lat="43.121898364683716" lon="11.730903306238524"><ele>485.0</ele><time>2026-03-25T10:55:52Z</time></trkpt><trkpt lat="43.12198404275748" lon="11.730802277086033"><ele>485.0</ele><time>2026-03-25T10:55:54Z</time></trkpt><trkpt lat="43.12206078755938" lon="11.73069769626105"><ele>485.0</ele><time>2026-03-25T10:55:56Z</time></trkpt><trkpt lat="43.122143506147786" lon="11.730575331266248"><ele>485.0</ele><time>2026-03-25T10:55:58Z</time></trkpt><trkpt lat="43.12222347106056" lon="11.730475148714783"><ele>485.0</ele><time>2026-03-25T10:55:59.999Z</time></trkpt><trkpt lat="43.1223151176823" lon="11.730429393366393"><ele>485.0</ele><time>2026-03-25T10:56:01.999Z</time></trkpt><trkpt lat="43.122426588229345" lon="11.730375998710146"><ele>485.0</ele><time>2026-03-25T10:56:03.999Z</time></trkpt><trkpt lat="43.12253506377741" lon="11.730320514420713"><ele>485.0</ele><time>2026-03-25T10:56:05.999Z</time></trkpt><trkpt lat="43.12259292246499" lon="11.730282167417087"><ele>485.0</ele><time>2026-03-25T10:56:06.999Z</time></trkpt><trkpt lat="43.1226511299991" lon="11.730238311406904"><ele>486.4</ele><time>2026-03-25T10:56:07.999Z</time></trkpt><trkpt lat="43.12270587896836" lon="11.730188184778829"><ele>487.8</ele><time>2026-03-25T10:56:08.999Z</time></trkpt><trkpt lat="43.12276292658015" lon="11.730134733938408"><ele>489.20000000000005</ele><time>2026-03-25T10:56:09.999Z</time></trkpt><trkpt lat="43.122869207121276" lon="11.730034968005109"><ele>490.6</ele><time>2026-03-25T10:56:11.999Z</time></trkpt><trkpt lat="43.12296588486087" lon="11.729927595781996"><ele>492.0</ele><time>2026-03-25T10:56:13.999Z</time></trkpt><trkpt lat="43.12304391095199" lon="11.72985155663417"><ele>492.0</ele><time>2026-03-25T10:56:15.999Z</time></trkpt><trkpt lat="43.12306996091809" lon="11.729751280406827"><ele>492.00000000000006</ele><time>2026-03-25T10:56:18.999Z</time></trkpt><trkpt lat="43.123036796419285" lon="11.729642237102"><ele>492.00000000000006</ele><time>2026-03-25T10:56:20.999Z</time></trkpt><trkpt lat="43.123002127352756" lon="11.729483733531582"><ele>492.0</ele><time>2026-03-25T10:56:22.999Z</time></trkpt><trkpt lat="43.12295746628258" lon="11.729352036487196"><ele>492.0</ele><time>2026-03-25T10:56:24.999Z</time></trkpt><trkpt lat="43.12291887546015" lon="11.729255474117014"><ele>491.5</ele><time>2026-03-25T10:56:27.999Z</time></trkpt><trkpt lat="43.122861880042244" lon="11.729170185942344"><ele>491.0</ele><time>2026-03-25T10:56:29.999Z</time></trkpt><trkpt lat="43.12283470769971" lon="11.729070502538669"><ele>490.5</ele><time>2026-03-25T10:56:31.999Z</time></trkpt><trkpt lat="43.12289464051932" lon="11.72898384949107"><ele>490.0</ele><time>2026-03-25T10:56:38.999Z</time></trkpt><trkpt lat="43.12289645665577" lon="11.728882310734177"><ele>489.5</ele><time>2026-03-25T10:56:40.999Z</time></trkpt><trkpt lat="43.12295280452766" lon="11.728772788636952"><ele>489.0</ele><time>2026-03-25T10:56:42.999Z</time></trkpt><trkpt lat="43.123003939047564" lon="11.728707865807154"><ele>489.0</ele><time>2026-03-25T10:56:43.999Z</time></trkpt><trkpt lat="43.1230530209663" lon="11.728627718773783"><ele>489.0</ele><time>2026-03-25T10:56:44.999Z</time></trkpt><trkpt lat="43.12309603651348" lon="11.728533517063148"><ele>489.0</ele><time>2026-03-25T10:56:45.999Z</time></trkpt><trkpt lat="43.123151853908844" lon="11.728434348861335"><ele>489.0</ele><time>2026-03-25T10:56:46.999Z</time></trkpt><trkpt lat="43.12321484447286" lon="11.728330572407515"><ele>489.0</ele><time>2026-03-25T10:56:47.999Z</time></trkpt><trkpt lat="43.12327795923466" lon="11.728231342038406"><ele>489.0</ele><time>2026-03-25T10:56:48.999Z</time></trkpt><trkpt lat="43.123346120712974" lon="11.728129752389357"><ele>489.6</ele><time>2026-03-25T10:56:49.999Z</time></trkpt><trkpt lat="43.12342460456754" lon="11.728043402779184"><ele>490.2</ele><time>2026-03-25T10:56:50.999Z</time></trkpt><trkpt lat="43.12349496462655" lon="11.727948766375187"><ele>490.80000000000007</ele><time>2026-03-25T10:56:51.999Z</time></trkpt><trkpt lat="43.12355516193705" lon="11.727879765717093"><ele>491.40000000000003</ele><time>2026-03-25T10:56:52.999Z</time></trkpt><trkpt lat="43.12361312434291" lon="11.727778120328686"><ele>492.0</ele><time>2026-03-25T10:56:54.999Z</time></trkpt><trkpt lat="43.12358626000729" lon="11.727661772657498"><ele>492.1666666666667</ele><time>2026-03-25T10:56:56.999Z</time></trkpt><trkpt lat="43.12352306744539" lon="11.727606179857425"><ele>492.33333333333337</ele><time>2026-03-25T10:56:57.999Z</time></trkpt><trkpt lat="43.12346942506552" lon="11.727519971728569"><ele>492.5</ele><time>2026-03-25T10:56:58.999Z</time></trkpt><trkpt lat="43.12341174466426" lon="11.727409399791398"><ele>492.6666666666667</ele><time>2026-03-25T10:56:59.999Z</time></trkpt><trkpt lat="43.12338082213279" lon="11.727293512109519"><ele>492.83333333333337</ele><time>2026-03-25T10:57:00.999Z</time></trkpt><trkpt lat="43.12333025751727" lon="11.727202321543391"><ele>493.0</ele><time>2026-03-25T10:57:02Z</time></trkpt><trkpt lat="43.123293941354575" lon="11.727104584333361"><ele>493.00000000000006</ele><time>2026-03-25T10:57:03Z</time></trkpt><trkpt lat="43.12326948310276" lon="11.727010709068901"><ele>493.0</ele><time>2026-03-25T10:57:04Z</time></trkpt><trkpt lat="43.12325257569052" lon="11.72691358746774"><ele>493.0</ele><time>2026-03-25T10:57:05Z</time></trkpt><trkpt lat="43.123248270644126" lon="11.726807346109323"><ele>493.0</ele><time>2026-03-25T10:57:06Z</time></trkpt><trkpt lat="43.12325250605011" lon="11.72668943622479"><ele>493.00000000000006</ele><time>2026-03-25T10:57:07Z</time></trkpt><trkpt lat="43.12326590714706" lon="11.726568987398537"><ele>493.0</ele><time>2026-03-25T10:57:08Z</time></trkpt><trkpt lat="43.123284826918315" lon="11.726470147991348"><ele>492.0</ele><time>2026-03-25T10:57:09Z</time></trkpt><trkpt lat="43.123316153856585" lon="11.726364090573224"><ele>491.0</ele><time>2026-03-25T10:57:10Z</time></trkpt><trkpt lat="43.12334277826449" lon="11.726222813261357"><ele>490.0</ele><time>2026-03-25T10:57:11Z</time></trkpt><trkpt lat="43.12341702724129" lon="11.726075365774049"><ele>489.0</ele><time>2026-03-25T10:57:12Z</time></trkpt><trkpt lat="43.12346482764266" lon="11.72590421854322"><ele>487.5</ele><time>2026-03-25T10:57:13Z</time></trkpt><trkpt lat="43.12350573766702" lon="11.725746828623258"><ele>486.0</ele><time>2026-03-25T10:57:14Z</time></trkpt><trkpt lat="43.123554895409804" lon="11.72558478871923"><ele>484.5</ele><time>2026-03-25T10:57:15Z</time></trkpt><trkpt lat="43.12359364725947" lon="11.725406870502662"><ele>483.0</ele><time>2026-03-25T10:57:16Z</time></trkpt><trkpt lat="43.12363284856474" lon="11.725253067973918"><ele>482.0</ele><time>2026-03-25T10:57:17Z</time></trkpt><trkpt lat="43.12366316129832" lon="11.725129543486577"><ele>481.0</ele><time>2026-03-25T10:57:18Z</time></trkpt><trkpt lat="43.12368445431735" lon="11.725017538088192"><ele>480.0</ele><time>2026-03-25T10:57:19Z</time></trkpt><trkpt lat="43.12369153610234" lon="11.72491586356212"><ele>479.0</ele><time>2026-03-25T10:57:20Z</time></trkpt><trkpt lat="43.12367354134531" lon="11.72480023973094"><ele>478.0</ele><time>2026-03-25T10:57:21Z</time></trkpt><trkpt lat="43.12363278663424" lon="11.724681695728982"><ele>477.0</ele><time>2026-03-25T10:57:22Z</time></trkpt><trkpt lat="43.12357459617375" lon="11.724553901710529"><ele>477.0</ele><time>2026-03-25T10:57:23Z</time></trkpt><trkpt lat="43.12352078585369" lon="11.724402552538578"><ele>477.00000000000006</ele><time>2026-03-25T10:57:24Z</time></trkpt><trkpt lat="43.12345833375294" lon="11.724288642831164"><ele>477.00000000000006</ele><time>2026-03-25T10:57:25Z</time></trkpt><trkpt lat="43.12341630552275" lon="11.72420215144492"><ele>477.0</ele><time>2026-03-25T10:57:26Z</time></trkpt><trkpt lat="43.12337278276062" lon="11.724078672218079"><ele>477.0</ele><time>2026-03-25T10:57:28Z</time></trkpt><trkpt lat="43.12339647542721" lon="11.723955685631726"><ele>477.0</ele><time>2026-03-25T10:57:36Z</time></trkpt><trkpt lat="43.12342483842774" lon="11.723852473782067"><ele>477.00000000000006</ele><time>2026-03-25T10:57:37Z</time></trkpt><trkpt lat="43.12345746981056" lon="11.723735346671514"><ele>477.00000000000006</ele><time>2026-03-25T10:57:38Z</time></trkpt><trkpt lat="43.12349946135311" lon="11.723611976114475"><ele>477.0</ele><time>2026-03-25T10:57:39Z</time></trkpt><trkpt lat="43.123549803914706" lon="11.7234807547592"><ele>477.0</ele><time>2026-03-25T10:57:40Z</time></trkpt><trkpt lat="43.123587507138666" lon="11.723368003506772"><ele>476.6666666666667</ele><time>2026-03-25T10:57:41Z</time></trkpt><trkpt lat="43.12361038728019" lon="11.723270948813964"><ele>476.33333333333337</ele><time>2026-03-25T10:57:42Z</time></trkpt><trkpt lat="43.123616665645876" lon="11.72316455600183"><ele>476.0</ele><time>2026-03-25T10:57:43Z</time></trkpt><trkpt lat="43.12360033488981" lon="11.723042055801256"><ele>475.6666666666667</ele><time>2026-03-25T10:57:44Z</time></trkpt><trkpt lat="43.12356463765325" lon="11.72291251649131"><ele>475.33333333333337</ele><time>2026-03-25T10:57:45Z</time></trkpt><trkpt lat="43.12353966002217" lon="11.722774267679537"><ele>475.0</ele><time>2026-03-25T10:57:46Z</time></trkpt><trkpt lat="43.123491107404426" lon="11.722654781096676"><ele>474.83333333333337</ele><time>2026-03-25T10:57:47Z</time></trkpt><trkpt lat="43.123466715624325" lon="11.722547234537169"><ele>474.6666666666667</ele><time>2026-03-25T10:57:48Z</time></trkpt><trkpt lat="43.123427084196024" lon="11.72245204747629"><ele>474.5</ele><time>2026-03-25T10:57:49Z</time></trkpt><trkpt lat="43.123378013918625" lon="11.72236254209728"><ele>474.33333333333337</ele><time>2026-03-25T10:57:50Z</time></trkpt><trkpt lat="43.12332586996668" lon="11.722261010859905"><ele>474.1666666666667</ele><time>2026-03-25T10:57:51Z</time></trkpt><trkpt lat="43.12322947612074" lon="11.722193467692957"><ele>474.0</ele><time>2026-03-25T10:57:52Z</time></trkpt><trkpt lat="43.123142153933706" lon="11.722109182382045"><ele>472.6666666666667</ele><time>2026-03-25T10:57:53Z</time></trkpt><trkpt lat="43.12306681977669" lon="11.722020425569472"><ele>471.33333333333337</ele><time>2026-03-25T10:57:54Z</time></trkpt><trkpt lat="43.12299867793126" lon="11.721939753102301"><ele>470.0</ele><time>2026-03-25T10:57:55Z</time></trkpt><trkpt lat="43.12294276705918" lon="11.721865401373455"><ele>468.6666666666667</ele><time>2026-03-25T10:57:56Z</time></trkpt><trkpt lat="43.122896679965876" lon="11.721787015678755"><ele>467.33333333333337</ele><time>2026-03-25T10:57:57Z</time></trkpt><trkpt lat="43.12286880094803" lon="11.721705594000536"><ele>466.0</ele><time>2026-03-25T10:57:58Z</time></trkpt><trkpt lat="43.122840529118946" lon="11.721599549117428"><ele>466.0</ele><time>2026-03-25T10:57:59Z</time></trkpt><trkpt lat="43.122820614226065" lon="11.72147060794677"><ele>466.0</ele><time>2026-03-25T10:58:00Z</time></trkpt><trkpt lat="43.12280113864276" lon="11.72131800651698"><ele>466.0</ele><time>2026-03-25T10:58:01Z</time></trkpt><trkpt lat="43.12277500038672" lon="11.721163499320623"><ele>466.0</ele><time>2026-03-25T10:58:02Z</time></trkpt><trkpt lat="43.12274105109229" lon="11.721004961577055"><ele>466.0</ele><time>2026-03-25T10:58:03Z</time></trkpt><trkpt lat="43.12270671068019" lon="11.72084759363565"><ele>466.5</ele><time>2026-03-25T10:58:04Z</time></trkpt><trkpt lat="43.122669518043224" lon="11.7206846383063"><ele>467.0</ele><time>2026-03-25T10:58:05Z</time></trkpt><trkpt lat="43.122643019320144" lon="11.720527448893867"><ele>467.5</ele><time>2026-03-25T10:58:06Z</time></trkpt><trkpt lat="43.1226102029531" lon="11.720382568459195"><ele>468.0</ele><time>2026-03-25T10:58:07Z</time></trkpt><trkpt lat="43.122583615601684" lon="11.720232250460398"><ele>468.1666666666667</ele><time>2026-03-25T10:58:08Z</time></trkpt><trkpt lat="43.12256211207858" lon="11.720088318712161"><ele>468.33333333333337</ele><time>2026-03-25T10:58:09Z</time></trkpt><trkpt lat="43.12253785059044" lon="11.719958812982139"><ele>468.5</ele><time>2026-03-25T10:58:10Z</time></trkpt><trkpt lat="43.12251292536202" lon="11.719848550411541"><ele>468.6666666666667</ele><time>2026-03-25T10:58:11Z</time></trkpt><trkpt lat="43.12249748655715" lon="11.719741180932635"><ele>468.83333333333337</ele><time>2026-03-25T10:58:12Z</time></trkpt><trkpt lat="43.12248780408499" lon="11.719636764077478"><ele>469.0</ele><time>2026-03-25T10:58:13Z</time></trkpt><trkpt lat="43.122488323364436" lon="11.71954114641806"><ele>469.00000000000006</ele><time>2026-03-25T10:58:14Z</time></trkpt><trkpt lat="43.12250643840893" lon="11.719440038868143"><ele>469.0</ele><time>2026-03-25T10:58:15Z</time></trkpt><trkpt lat="43.12254375434337" lon="11.719340720143403"><ele>469.0</ele><time>2026-03-25T10:58:16Z</time></trkpt><trkpt lat="43.1226013455866" lon="11.719266808713337"><ele>469.0</ele><time>2026-03-25T10:58:17Z</time></trkpt><trkpt lat="43.12266693397429" lon="11.719212689993169"><ele>469.00000000000006</ele><time>2026-03-25T10:58:18Z</time></trkpt><trkpt lat="43.12274649827497" lon="11.719175226594661"><ele>469.0</ele><time>2026-03-25T10:58:19Z</time></trkpt><trkpt lat="43.12282389459038" lon="11.719162504860083"><ele>468.4</ele><time>2026-03-25T10:58:19.999Z</time></trkpt><trkpt lat="43.12291430724918" lon="11.719176997746668"><ele>467.79999999999995</ele><time>2026-03-25T10:58:20.999Z</time></trkpt><trkpt lat="43.12302839480693" lon="11.719203551523313"><ele>467.20000000000005</ele><time>2026-03-25T10:58:21.999Z</time></trkpt><trkpt lat="43.123134677473125" lon="11.719237329475716"><ele>466.6</ele><time>2026-03-25T10:58:22.999Z</time></trkpt><trkpt lat="43.123237527185076" lon="11.719267897487159"><ele>466.0</ele><time>2026-03-25T10:58:23.999Z</time></trkpt><trkpt lat="43.12333422132618" lon="11.719287333753725"><ele>465.50000000000006</ele><time>2026-03-25T10:58:24.999Z</time></trkpt><trkpt lat="43.12342171416145" lon="11.719306279131432"><ele>465.0</ele><time>2026-03-25T10:58:25.999Z</time></trkpt><trkpt lat="43.12349747141081" lon="11.719327483642184"><ele>464.5</ele><time>2026-03-25T10:58:26.999Z</time></trkpt><trkpt lat="43.12356575126165" lon="11.719315934754938"><ele>464.0</ele><time>2026-03-25T10:58:27.999Z</time></trkpt><trkpt lat="43.12363579613526" lon="11.719281969739876"><ele>463.50000000000006</ele><time>2026-03-25T10:58:28.999Z</time></trkpt><trkpt lat="43.123690212846526" lon="11.719217960412411"><ele>463.0</ele><time>2026-03-25T10:58:29.999Z</time></trkpt><trkpt lat="43.123740731419126" lon="11.7190640708984"><ele>463.0</ele><time>2026-03-25T10:58:31.999Z</time></trkpt><trkpt lat="43.12374965175266" lon="11.718947493542162"><ele>462.99999999999994</ele><time>2026-03-25T10:58:32.999Z</time></trkpt><trkpt lat="43.123750314992876" lon="11.718818518822848"><ele>462.99999999999994</ele><time>2026-03-25T10:58:33.999Z</time></trkpt><trkpt lat="43.12374489349477" lon="11.718677372937547"><ele>463.0</ele><time>2026-03-25T10:58:34.999Z</time></trkpt><trkpt lat="43.123733847294915" lon="11.718521759672534"><ele>463.0</ele><time>2026-03-25T10:58:35.999Z</time></trkpt><trkpt lat="43.123723025469786" lon="11.718358056495092"><ele>462.25</ele><time>2026-03-25T10:58:36.999Z</time></trkpt><trkpt lat="43.12373412864265" lon="11.718168182806929"><ele>461.5</ele><time>2026-03-25T10:58:37.999Z</time></trkpt><trkpt lat="43.123720025779" lon="11.717946280875788"><ele>460.75</ele><time>2026-03-25T10:58:38.999Z</time></trkpt><trkpt lat="43.1237165773792" lon="11.71775528904111"><ele>460.0</ele><time>2026-03-25T10:58:39.999Z</time></trkpt><trkpt lat="43.12370198455226" lon="11.717586669624986"><ele>459.0</ele><time>2026-03-25T10:58:40.999Z</time></trkpt><trkpt lat="43.12367742609387" lon="11.717425155090925"><ele>458.0</ele><time>2026-03-25T10:58:41.999Z</time></trkpt><trkpt lat="43.123666999293384" lon="11.717286595455747"><ele>457.0</ele><time>2026-03-25T10:58:42.999Z</time></trkpt><trkpt lat="43.12364436716983" lon="11.717171952208853"><ele>456.0</ele><time>2026-03-25T10:58:43.999Z</time></trkpt><trkpt lat="43.123622291338854" lon="11.717060126655284"><ele>455.0</ele><time>2026-03-25T10:58:44.999Z</time></trkpt><trkpt lat="43.1236016352" lon="11.716960651120939"><ele>454.8333333333333</ele><time>2026-03-25T10:58:45.999Z</time></trkpt><trkpt lat="43.12360347353998" lon="11.716871440756565"><ele>454.66666666666663</ele><time>2026-03-25T10:59:11Z</time></trkpt><trkpt lat="43.123657812675816" lon="11.716815392801509"><ele>454.5</ele><time>2026-03-25T10:59:12Z</time></trkpt><trkpt lat="43.12366294866958" lon="11.716715830661649"><ele>454.33333333333337</ele><time>2026-03-25T10:59:14Z</time></trkpt><trkpt lat="43.12366058070971" lon="11.716548402107877"><ele>454.1666666666667</ele><time>2026-03-25T10:59:16Z</time></trkpt><trkpt lat="43.123661961801176" lon="11.716447992119638"><ele>454.0</ele><time>2026-03-25T10:59:17Z</time></trkpt><trkpt lat="43.12366535114215" lon="11.716327678569565"><ele>454.0</ele><time>2026-03-25T10:59:18Z</time></trkpt><trkpt lat="43.12367962320449" lon="11.71620398322175"><ele>454.0</ele><time>2026-03-25T10:59:19Z</time></trkpt><trkpt lat="43.12369671895756" lon="11.71610526830769"><ele>454.0</ele><time>2026-03-25T10:59:20Z</time></trkpt><trkpt lat="43.12370491895635" lon="11.716015405732273"><ele>454.0</ele><time>2026-03-25T10:59:21Z</time></trkpt><trkpt lat="43.123713481512205" lon="11.715859724037356"><ele>454.0</ele><time>2026-03-25T10:59:29Z</time></trkpt><trkpt lat="43.12371424905188" lon="11.715715204331575"><ele>454.6</ele><time>2026-03-25T10:59:31Z</time></trkpt><trkpt lat="43.12372061760426" lon="11.715535954945128"><ele>455.2</ele><time>2026-03-25T10:59:33Z</time></trkpt><trkpt lat="43.123720879818514" lon="11.715421465334398"><ele>455.80000000000007</ele><time>2026-03-25T10:59:34Z</time></trkpt><trkpt lat="43.12375186316996" lon="11.715329869664359"><ele>456.40000000000003</ele><time>2026-03-25T10:59:35Z</time></trkpt><trkpt lat="43.12376235003034" lon="11.7152280303913"><ele>457.0</ele><time>2026-03-25T10:59:36Z</time></trkpt><trkpt lat="43.12379482747875" lon="11.715069295899681"><ele>455.8</ele><time>2026-03-25T10:59:38Z</time></trkpt><trkpt lat="43.123830371859704" lon="11.714989081834233"><ele>454.6</ele><time>2026-03-25T10:59:39Z</time></trkpt><trkpt lat="43.123946174042466" lon="11.714920030503725"><ele>453.40000000000003</ele><time>2026-03-25T10:59:41Z</time></trkpt><trkpt lat="43.12403324869911" lon="11.714871156234373"><ele>452.20000000000005</ele><time>2026-03-25T10:59:42Z</time></trkpt><trkpt lat="43.12415551351048" lon="11.714817589007515"><ele>451.0</ele><time>2026-03-25T10:59:43Z</time></trkpt><trkpt lat="43.124268138715195" lon="11.714778154933743"><ele>448.20000000000005</ele><time>2026-03-25T10:59:44Z</time></trkpt><trkpt lat="43.12436573606457" lon="11.714739731522338"><ele>445.40000000000003</ele><time>2026-03-25T10:59:45Z</time></trkpt><trkpt lat="43.12446032901071" lon="11.714705268044394"><ele>442.6</ele><time>2026-03-25T10:59:46Z</time></trkpt><trkpt lat="43.12456065949569" lon="11.714665120320934"><ele>439.8</ele><time>2026-03-25T10:59:47Z</time></trkpt><trkpt lat="43.12466325339178" lon="11.714617307109908"><ele>437.0</ele><time>2026-03-25T10:59:48Z</time></trkpt><trkpt lat="43.1247385830538" lon="11.714567726405647"><ele>436.99999999999994</ele><time>2026-03-25T10:59:49Z</time></trkpt><trkpt lat="43.12480773516512" lon="11.71450602384254"><ele>437.0</ele><time>2026-03-25T10:59:50Z</time></trkpt><trkpt lat="43.1248661987631" lon="11.714419599884302"><ele>437.0</ele><time>2026-03-25T10:59:51Z</time></trkpt><trkpt lat="43.1249123995122" lon="11.714326610258938"><ele>437.0</ele><time>2026-03-25T10:59:52Z</time></trkpt><trkpt lat="43.124943316408974" lon="11.71422786132581"><ele>436.99999999999994</ele><time>2026-03-25T10:59:53Z</time></trkpt><trkpt lat="43.124964602794876" lon="11.714117291994821"><ele>437.0</ele><time>2026-03-25T10:59:54Z</time></trkpt><trkpt lat="43.124978661124274" lon="11.713994308457345"><ele>435.6</ele><time>2026-03-25T10:59:55Z</time></trkpt><trkpt lat="43.12497580888569" lon="11.713873076976675"><ele>434.20000000000005</ele><time>2026-03-25T10:59:56Z</time></trkpt><trkpt lat="43.124984005927836" lon="11.7137444707399"><ele>432.8</ele><time>2026-03-25T10:59:57Z</time></trkpt><trkpt lat="43.124969359425606" lon="11.713618492992286"><ele>431.4</ele><time>2026-03-25T10:59:58Z</time></trkpt><trkpt lat="43.124952701633525" lon="11.713489468573707"><ele>430.0</ele><time>2026-03-25T10:59:59Z</time></trkpt><trkpt lat="43.12492656360317" lon="11.713331975357695"><ele>429.6</ele><time>2026-03-25T11:00:00Z</time></trkpt><trkpt lat="43.12489879281115" lon="11.713176630915212"><ele>429.2</ele><time>2026-03-25T11:00:01Z</time></trkpt><trkpt lat="43.12487353238373" lon="11.71303112372251"><ele>428.79999999999995</ele><time>2026-03-25T11:00:02Z</time></trkpt><trkpt lat="43.12485049299598" lon="11.712899209275118"><ele>428.4</ele><time>2026-03-25T11:00:03Z</time></trkpt><trkpt lat="43.124813049643876" lon="11.712782715825563"><ele>428.0</ele><time>2026-03-25T11:00:04Z</time></trkpt><trkpt lat="43.12479541370952" lon="11.712673636240648"><ele>428.2</ele><time>2026-03-25T11:00:05Z</time></trkpt><trkpt lat="43.12477808578057" lon="11.7125748252938"><ele>428.4</ele><time>2026-03-25T11:00:06Z</time></trkpt><trkpt lat="43.124782661848194" lon="11.712484876365998"><ele>428.59999999999997</ele><time>2026-03-25T11:00:07Z</time></trkpt><trkpt lat="43.12477666944334" lon="11.71234028441619"><ele>428.79999999999995</ele><time>2026-03-25T11:00:09Z</time></trkpt><trkpt lat="43.12490133127213" lon="11.712220303979148"><ele>429.0</ele><time>2026-03-25T11:00:11Z</time></trkpt><trkpt lat="43.12497493277327" lon="11.712153448098492"><ele>429.0</ele><time>2026-03-25T11:00:12Z</time></trkpt><trkpt lat="43.12507176574238" lon="11.712166204464387"><ele>429.0</ele><time>2026-03-25T11:00:13Z</time></trkpt><trkpt lat="43.12516092117684" lon="11.712172808205294"><ele>429.0</ele><time>2026-03-25T11:00:14Z</time></trkpt><trkpt lat="43.12523709207726" lon="11.712184910683474"><ele>429.0</ele><time>2026-03-25T11:00:15Z</time></trkpt><trkpt lat="43.125302999175" lon="11.71217681247603"><ele>429.0</ele><time>2026-03-25T11:00:16Z</time></trkpt><trkpt lat="43.12540481243713" lon="11.71219726605914"><ele>429.0</ele><time>2026-03-25T11:00:18Z</time></trkpt><trkpt lat="43.1255062871071" lon="11.71215577381785"><ele>429.0</ele><time>2026-03-25T11:00:21Z</time></trkpt><trkpt lat="43.125573010403116" lon="11.712130630717231"><ele>429.0</ele><time>2026-03-25T11:00:21.999Z</time></trkpt><trkpt lat="43.12564700114981" lon="11.712148864556937"><ele>429.0</ele><time>2026-03-25T11:00:22.999Z</time></trkpt><trkpt lat="43.12572227688706" lon="11.712155569136979"><ele>429.0</ele><time>2026-03-25T11:00:23.999Z</time></trkpt><trkpt lat="43.125799800610196" lon="11.712148285414237"><ele>429.0</ele><time>2026-03-25T11:00:24.999Z</time></trkpt><trkpt lat="43.12587982078153" lon="11.712123247993839"><ele>429.0</ele><time>2026-03-25T11:00:25.999Z</time></trkpt><trkpt lat="43.12596231813028" lon="11.712088185581715"><ele>428.6666666666667</ele><time>2026-03-25T11:00:26.999Z</time></trkpt><trkpt lat="43.12604548130088" lon="11.712057343961586"><ele>428.33333333333337</ele><time>2026-03-25T11:00:27.999Z</time></trkpt><trkpt lat="43.12612916740893" lon="11.71202400404418"><ele>428.0</ele><time>2026-03-25T11:00:28.999Z</time></trkpt><trkpt lat="43.12620883465402" lon="11.711984872848967"><ele>427.6666666666667</ele><time>2026-03-25T11:00:29.999Z</time></trkpt><trkpt lat="43.126279687056176" lon="11.71196259040465"><ele>427.33333333333337</ele><time>2026-03-25T11:00:30.999Z</time></trkpt><trkpt lat="43.1263412489832" lon="11.711936757421634"><ele>427.0</ele><time>2026-03-25T11:00:31.999Z</time></trkpt><trkpt lat="43.126449674674376" lon="11.711867976175888"><ele>427.00000000000006</ele><time>2026-03-25T11:00:33.999Z</time></trkpt><trkpt lat="43.12650781070117" lon="11.711807122780879"><ele>427.0</ele><time>2026-03-25T11:00:34.999Z</time></trkpt><trkpt lat="43.12656729463469" lon="11.711736197771733"><ele>427.0</ele><time>2026-03-25T11:00:35.999Z</time></trkpt><trkpt lat="43.126630429483306" lon="11.711682908639073"><ele>427.0</ele><time>2026-03-25T11:00:36.999Z</time></trkpt><trkpt lat="43.126664528629" lon="11.711604097322413"><ele>427.00000000000006</ele><time>2026-03-25T11:00:37.999Z</time></trkpt><trkpt lat="43.126723984783425" lon="11.711460150808435"><ele>427.0</ele><time>2026-03-25T11:00:39.999Z</time></trkpt><trkpt lat="43.126747356833384" lon="11.711377789088031"><ele>425.20000000000005</ele><time>2026-03-25T11:00:40.999Z</time></trkpt><trkpt lat="43.12676835575448" lon="11.711219625954108"><ele>423.40000000000003</ele><time>2026-03-25T11:00:42.999Z</time></trkpt><trkpt lat="43.12676468173626" lon="11.711052884176294"><ele>421.6</ele><time>2026-03-25T11:00:44.999Z</time></trkpt><trkpt lat="43.126741857395636" lon="11.710890528837053"><ele>419.79999999999995</ele><time>2026-03-25T11:00:46.999Z</time></trkpt><trkpt lat="43.126723491336584" lon="11.710798595084098"><ele>418.0</ele><time>2026-03-25T11:00:47.999Z</time></trkpt><trkpt lat="43.126693078165445" lon="11.710682644936142"><ele>417.0</ele><time>2026-03-25T11:00:48.999Z</time></trkpt><trkpt lat="43.12666879045897" lon="11.710568069021308"><ele>416.0</ele><time>2026-03-25T11:00:49.999Z</time></trkpt><trkpt lat="43.126636674631186" lon="11.710440377425474"><ele>415.0</ele><time>2026-03-25T11:00:50.999Z</time></trkpt><trkpt lat="43.126597287021326" lon="11.710326864943458"><ele>414.0</ele><time>2026-03-25T11:00:51.999Z</time></trkpt><trkpt lat="43.12656144305695" lon="11.710204264475832"><ele>413.0</ele><time>2026-03-25T11:00:52.999Z</time></trkpt><trkpt lat="43.12652152209419" lon="11.710068670248576"><ele>413.0</ele><time>2026-03-25T11:00:53.999Z</time></trkpt><trkpt lat="43.126480106993476" lon="11.709928007737258"><ele>413.0</ele><time>2026-03-25T11:00:54.999Z</time></trkpt><trkpt lat="43.1264295396637" lon="11.709761458208158"><ele>413.0</ele><time>2026-03-25T11:00:55.999Z</time></trkpt><trkpt lat="43.12638451873989" lon="11.709608440199126"><ele>413.0</ele><time>2026-03-25T11:00:56.999Z</time></trkpt><trkpt lat="43.126352469110515" lon="11.709484106821353"><ele>412.3333333333333</ele><time>2026-03-25T11:00:57.999Z</time></trkpt><trkpt lat="43.12632416387587" lon="11.709372723833503"><ele>411.66666666666663</ele><time>2026-03-25T11:00:58.999Z</time></trkpt><trkpt lat="43.12631068259912" lon="11.709269872492811"><ele>411.0</ele><time>2026-03-25T11:00:59.999Z</time></trkpt><trkpt lat="43.12631451063507" lon="11.709162508625326"><ele>410.33333333333337</ele><time>2026-03-25T11:01:00.999Z</time></trkpt><trkpt lat="43.12635583670048" lon="11.709062032505559"><ele>409.6666666666667</ele><time>2026-03-25T11:01:01.999Z</time></trkpt><trkpt lat="43.12640164785596" lon="11.708948234388806"><ele>409.0</ele><time>2026-03-25T11:01:02.999Z</time></trkpt><trkpt lat="43.12644225748265" lon="11.708834638323353"><ele>409.0</ele><time>2026-03-25T11:01:03.999Z</time></trkpt><trkpt lat="43.12649184406451" lon="11.7087017968652"><ele>409.0</ele><time>2026-03-25T11:01:04.999Z</time></trkpt><trkpt lat="43.126545768368814" lon="11.708575720199832"><ele>409.0</ele><time>2026-03-25T11:01:05.999Z</time></trkpt><trkpt lat="43.12659762881529" lon="11.708452128700385"><ele>409.0</ele><time>2026-03-25T11:01:06.999Z</time></trkpt><trkpt lat="43.12664778502889" lon="11.708331445957638"><ele>409.0</ele><time>2026-03-25T11:01:07.999Z</time></trkpt><trkpt lat="43.12669824883262" lon="11.708209059652619"><ele>405.75</ele><time>2026-03-25T11:01:08.999Z</time></trkpt><trkpt lat="43.126750125188494" lon="11.70808467495197"><ele>402.5</ele><time>2026-03-25T11:01:09.999Z</time></trkpt><trkpt lat="43.1268103486281" lon="11.707940114583783"><ele>399.25</ele><time>2026-03-25T11:01:10.999Z</time></trkpt><trkpt lat="43.126871923877765" lon="11.707792409165366"><ele>396.0</ele><time>2026-03-25T11:01:11.999Z</time></trkpt><trkpt lat="43.126925934328085" lon="11.707657793726854"><ele>395.20000000000005</ele><time>2026-03-25T11:01:12.999Z</time></trkpt><trkpt lat="43.12698518879886" lon="11.707526395213343"><ele>394.40000000000003</ele><time>2026-03-25T11:01:13.999Z</time></trkpt><trkpt lat="43.12703961182631" lon="11.70740115376837"><ele>393.6</ele><time>2026-03-25T11:01:14.999Z</time></trkpt><trkpt lat="43.127094342069874" lon="11.707269622387415"><ele>392.8</ele><time>2026-03-25T11:01:15.999Z</time></trkpt><trkpt lat="43.12714794689426" lon="11.70714375775583"><ele>392.0</ele><time>2026-03-25T11:01:16.999Z</time></trkpt><trkpt lat="43.12720330021097" lon="11.707013467131418"><ele>391.8</ele><time>2026-03-25T11:01:17.999Z</time></trkpt><trkpt lat="43.12725908553291" lon="11.706884353916019"><ele>391.6</ele><time>2026-03-25T11:01:18.999Z</time></trkpt><trkpt lat="43.1273111119477" lon="11.706759553589077"><ele>391.40000000000003</ele><time>2026-03-25T11:01:19.999Z</time></trkpt><trkpt lat="43.12735987728513" lon="11.706645374504012"><ele>391.20000000000005</ele><time>2026-03-25T11:01:20.999Z</time></trkpt><trkpt lat="43.12741109356597" lon="11.706524324181068"><ele>391.0</ele><time>2026-03-25T11:01:21.999Z</time></trkpt><trkpt lat="43.127461474288566" lon="11.706405855776831"><ele>390.00000000000006</ele><time>2026-03-25T11:01:22.999Z</time></trkpt><trkpt lat="43.127506455780676" lon="11.70629983664062"><ele>389.0</ele><time>2026-03-25T11:01:23.999Z</time></trkpt><trkpt lat="43.127551195647754" lon="11.706204944083883"><ele>388.0</ele><time>2026-03-25T11:01:24.999Z</time></trkpt><trkpt lat="43.1275930863084" lon="11.706110272833074"><ele>387.0</ele><time>2026-03-25T11:01:25.999Z</time></trkpt><trkpt lat="43.127635007522954" lon="11.706008936481162"><ele>386.00000000000006</ele><time>2026-03-25T11:01:26.999Z</time></trkpt><trkpt lat="43.12767942391639" lon="11.705916751059242"><ele>385.0</ele><time>2026-03-25T11:01:27.999Z</time></trkpt><trkpt lat="43.12771717449155" lon="11.705832398899238"><ele>385.0</ele><time>2026-03-25T11:01:28.999Z</time></trkpt><trkpt lat="43.12776802382898" lon="11.705761148020446"><ele>385.0</ele><time>2026-03-25T11:01:29.999Z</time></trkpt><trkpt lat="43.12780418125104" lon="11.705686369230351"><ele>385.0</ele><time>2026-03-25T11:01:30.999Z</time></trkpt><trkpt lat="43.12785390573401" lon="11.705558819342418"><ele>385.0</ele><time>2026-03-25T11:01:32.999Z</time></trkpt><trkpt lat="43.12795382804703" lon="11.70549582788026"><ele>385.0</ele><time>2026-03-25T11:01:34.999Z</time></trkpt><trkpt lat="43.128070641455274" lon="11.70550804808011"><ele>385.0</ele><time>2026-03-25T11:01:36.999Z</time></trkpt><trkpt lat="43.12815090113087" lon="11.705544390185267"><ele>385.0</ele><time>2026-03-25T11:01:37.999Z</time></trkpt><trkpt lat="43.12822200650104" lon="11.70561379944397"><ele>385.0</ele><time>2026-03-25T11:01:39Z</time></trkpt><trkpt lat="43.12828389491738" lon="11.705630022885767"><ele>385.0</ele><time>2026-03-25T11:01:40Z</time></trkpt><trkpt lat="43.12837514027615" lon="11.705499655818226"><ele>385.0</ele><time>2026-03-25T11:01:42Z</time></trkpt><trkpt lat="43.12843089679843" lon="11.705407609416786"><ele>384.8</ele><time>2026-03-25T11:01:43Z</time></trkpt><trkpt lat="43.12850326255569" lon="11.70532412080988"><ele>384.6</ele><time>2026-03-25T11:01:44Z</time></trkpt><trkpt lat="43.12855746156533" lon="11.705210714995982"><ele>384.4</ele><time>2026-03-25T11:01:45Z</time></trkpt><trkpt lat="43.12862487771909" lon="11.705114257228002"><ele>384.2</ele><time>2026-03-25T11:01:46Z</time></trkpt><trkpt lat="43.12869236650496" lon="11.705013341790888"><ele>384.0</ele><time>2026-03-25T11:01:47Z</time></trkpt><trkpt lat="43.12875148193181" lon="11.704908621507137"><ele>383.3333333333333</ele><time>2026-03-25T11:01:48Z</time></trkpt><trkpt lat="43.12880808721145" lon="11.704813859741277"><ele>382.6666666666667</ele><time>2026-03-25T11:01:49Z</time></trkpt><trkpt lat="43.128877268289955" lon="11.70473892354035"><ele>382.0</ele><time>2026-03-25T11:01:50Z</time></trkpt><trkpt lat="43.12892801924824" lon="11.704667088064058"><ele>381.33333333333337</ele><time>2026-03-25T11:01:51Z</time></trkpt><trkpt lat="43.12899844575044" lon="11.704628086604512"><ele>380.6666666666667</ele><time>2026-03-25T11:01:52Z</time></trkpt><trkpt lat="43.12906685154679" lon="11.704627159846794"><ele>380.0</ele><time>2026-03-25T11:01:53Z</time></trkpt><trkpt lat="43.12913812907419" lon="11.70463543993279"><ele>382.5</ele><time>2026-03-25T11:01:54Z</time></trkpt><trkpt lat="43.1292292820479" lon="11.704714624132107"><ele>385.0</ele><time>2026-03-25T11:01:56Z</time></trkpt><trkpt lat="43.12928880985742" lon="11.704780124829748"><ele>387.5</ele><time>2026-03-25T11:01:57Z</time></trkpt><trkpt lat="43.129335287751886" lon="11.70485445192584"><ele>390.0</ele><time>2026-03-25T11:01:58Z</time></trkpt><trkpt lat="43.12936527701867" lon="11.704933856226837"><ele>392.49999999999994</ele><time>2026-03-25T11:01:59Z</time></trkpt><trkpt lat="43.129386530196584" lon="11.705025330780245"><ele>395.0</ele><time>2026-03-25T11:02:00Z</time></trkpt><trkpt lat="43.12940006753843" lon="11.705127770233029"><ele>394.99999999999994</ele><time>2026-03-25T11:02:00.999Z</time></trkpt><trkpt lat="43.129406968078385" lon="11.70522856058441"><ele>395.0</ele><time>2026-03-25T11:02:01.999Z</time></trkpt><trkpt lat="43.12941085863178" lon="11.705339064814966"><ele>395.0</ele><time>2026-03-25T11:02:02.999Z</time></trkpt><trkpt lat="43.12941420524318" lon="11.705438660098268"><ele>395.0</ele><time>2026-03-25T11:02:03.999Z</time></trkpt><trkpt lat="43.1294367746302" lon="11.705525513891919"><ele>394.99999999999994</ele><time>2026-03-25T11:02:04.999Z</time></trkpt><trkpt lat="43.129468841756406" lon="11.705600689086653"><ele>395.0</ele><time>2026-03-25T11:02:05.999Z</time></trkpt><trkpt lat="43.12956525477445" lon="11.705696688137646"><ele>395.49999999999994</ele><time>2026-03-25T11:02:07.999Z</time></trkpt><trkpt lat="43.12963162747651" lon="11.705719862375428"><ele>396.0</ele><time>2026-03-25T11:02:08.999Z</time></trkpt><trkpt lat="43.12970197827698" lon="11.70574669163519"><ele>396.5</ele><time>2026-03-25T11:02:09.999Z</time></trkpt><trkpt lat="43.12974532890057" lon="11.705813732911503"><ele>397.0</ele><time>2026-03-25T11:02:10.999Z</time></trkpt><trkpt lat="43.12982439758783" lon="11.705940095900793"><ele>397.49999999999994</ele><time>2026-03-25T11:02:12.999Z</time></trkpt><trkpt lat="43.12988234024788" lon="11.706029012941668"><ele>398.0</ele><time>2026-03-25T11:02:13.999Z</time></trkpt><trkpt lat="43.12994194931514" lon="11.706141420811624"><ele>402.3333333333333</ele><time>2026-03-25T11:02:14.999Z</time></trkpt><trkpt lat="43.13000508571996" lon="11.706251205333123"><ele>406.66666666666663</ele><time>2026-03-25T11:02:15.999Z</time></trkpt><trkpt lat="43.130052252475544" lon="11.70633988116199"><ele>411.0</ele><time>2026-03-25T11:02:16.999Z</time></trkpt><trkpt lat="43.130090037291595" lon="11.706411605789441"><ele>415.33333333333337</ele><time>2026-03-25T11:02:17.999Z</time></trkpt><trkpt lat="43.13012127734127" lon="11.706491405482964"><ele>419.6666666666667</ele><time>2026-03-25T11:02:18.999Z</time></trkpt><trkpt lat="43.13009722610408" lon="11.706659010060086"><ele>424.0</ele><time>2026-03-25T11:02:20.999Z</time></trkpt><trkpt lat="43.13010056841159" lon="11.706767873942706"><ele>424.00000000000006</ele><time>2026-03-25T11:02:21.999Z</time></trkpt><trkpt lat="43.13010912406918" lon="11.70689613881612"><ele>424.0</ele><time>2026-03-25T11:02:22.999Z</time></trkpt><trkpt lat="43.130119263670814" lon="11.707003955250435"><ele>424.0</ele><time>2026-03-25T11:02:23.999Z</time></trkpt><trkpt lat="43.13013376349088" lon="11.70711802055904"><ele>424.0</ele><time>2026-03-25T11:02:24.999Z</time></trkpt><trkpt lat="43.13015768201554" lon="11.70720773398369"><ele>424.00000000000006</ele><time>2026-03-25T11:02:25.999Z</time></trkpt><trkpt lat="43.13016920917375" lon="11.707293039566034"><ele>424.0</ele><time>2026-03-25T11:02:26.999Z</time></trkpt><trkpt lat="43.13018246324289" lon="11.707379485910334"><ele>426.2</ele><time>2026-03-25T11:02:27.999Z</time></trkpt><trkpt lat="43.13021288610866" lon="11.707518000002855"><ele>428.4</ele><time>2026-03-25T11:02:29.999Z</time></trkpt><trkpt lat="43.1302849767801" lon="11.70761316159069"><ele>430.6</ele><time>2026-03-25T11:02:31.999Z</time></trkpt><trkpt lat="43.130347404652404" lon="11.70772980568559"><ele>432.8</ele><time>2026-03-25T11:02:33.999Z</time></trkpt><trkpt lat="43.13031022276292" lon="11.707653386917467"><ele>435.0</ele><time>2026-03-25T11:03:26.999Z</time></trkpt><trkpt lat="43.13026956170349" lon="11.707569820604757"><ele>435.0</ele><time>2026-03-25T11:03:30.999Z</time></trkpt><trkpt lat="43.13018678513976" lon="11.707185390063765"><ele>435.0</ele><time>2026-03-25T11:03:42Z</time></trkpt><trkpt lat="43.13037820154372" lon="11.70709489902699"><ele>435.00000000000006</ele><time>2026-03-25T11:03:43Z</time></trkpt><trkpt lat="43.130320247084335" lon="11.707054647076406"><ele>435.0</ele><time>2026-03-25T11:03:46Z</time></trkpt><trkpt lat="43.1302827405046" lon="11.7069835911073"><ele>435.0</ele><time>2026-03-25T11:03:49Z</time></trkpt><trkpt lat="43.13026830647304" lon="11.706894440137658"><ele>435.0</ele><time>2026-03-25T11:03:53Z</time></trkpt><trkpt lat="43.13025102357563" lon="11.706806435875478"><ele>435.0</ele><time>2026-03-25T11:03:56Z</time></trkpt><trkpt lat="43.1302271162146" lon="11.706705700143706"><ele>435.00000000000006</ele><time>2026-03-25T11:03:59Z</time></trkpt><trkpt lat="43.13019808905903" lon="11.706605610732629"><ele>435.0</ele><time>2026-03-25T11:04:02Z</time></trkpt><trkpt lat="43.13015910030892" lon="11.706515347460648"><ele>433.1666666666667</ele><time>2026-03-25T11:04:05Z</time></trkpt><trkpt lat="43.130165099491634" lon="11.70640134732961"><ele>431.33333333333337</ele><time>2026-03-25T11:04:12Z</time></trkpt><trkpt lat="43.13018012909251" lon="11.706268091272028"><ele>429.5</ele><time>2026-03-25T11:04:14Z</time></trkpt><trkpt lat="43.13018957577514" lon="11.70616120502824"><ele>427.6666666666667</ele><time>2026-03-25T11:04:15Z</time></trkpt><trkpt lat="43.130192329674045" lon="11.706039745450799"><ele>425.83333333333337</ele><time>2026-03-25T11:04:16Z</time></trkpt><trkpt lat="43.130200928839656" lon="11.705942889972375"><ele>424.0</ele><time>2026-03-25T11:04:17Z</time></trkpt><trkpt lat="43.130215267714526" lon="11.705836117386493"><ele>423.50000000000006</ele><time>2026-03-25T11:04:18Z</time></trkpt><trkpt lat="43.13021918875436" lon="11.705734418633366"><ele>423.0</ele><time>2026-03-25T11:04:19Z</time></trkpt><trkpt lat="43.13022337835235" lon="11.705614286598346"><ele>422.5</ele><time>2026-03-25T11:04:20Z</time></trkpt><trkpt lat="43.13023483864432" lon="11.705507751643"><ele>422.0</ele><time>2026-03-25T11:04:21Z</time></trkpt><trkpt lat="43.130251989344806" lon="11.705412002256338"><ele>421.50000000000006</ele><time>2026-03-25T11:04:22Z</time></trkpt><trkpt lat="43.130267779950664" lon="11.705282244613695"><ele>421.0</ele><time>2026-03-25T11:04:24Z</time></trkpt><trkpt lat="43.1302690463361" lon="11.705179903617152"><ele>420.1666666666667</ele><time>2026-03-25T11:04:26Z</time></trkpt><trkpt lat="43.13028024973562" lon="11.705067476422808"><ele>419.33333333333337</ele><time>2026-03-25T11:04:28Z</time></trkpt><trkpt lat="43.130297155026106" lon="11.704929963977403"><ele>418.5</ele><time>2026-03-25T11:04:30Z</time></trkpt><trkpt lat="43.130301173873434" lon="11.704796649036057"><ele>417.66666666666663</ele><time>2026-03-25T11:04:32Z</time></trkpt><trkpt lat="43.130354754732686" lon="11.704715802961111"><ele>416.8333333333333</ele><time>2026-03-25T11:04:35Z</time></trkpt><trkpt lat="43.130423132025044" lon="11.704760852288919"><ele>416.0</ele><time>2026-03-25T11:04:37Z</time></trkpt><trkpt lat="43.1304724274739" lon="11.704846062720195"><ele>416.0</ele><time>2026-03-25T11:04:39Z</time></trkpt><trkpt lat="43.13051687044096" lon="11.704921734302307"><ele>416.0</ele><time>2026-03-25T11:04:43Z</time></trkpt><trkpt lat="43.130581780395" lon="11.705046333546408"><ele>416.0</ele><time>2026-03-25T11:04:45.999Z</time></trkpt><trkpt lat="43.13062527298267" lon="11.705122505477314"><ele>416.0</ele><time>2026-03-25T11:04:46.999Z</time></trkpt><trkpt lat="43.130664893918194" lon="11.705292535643448"><ele>416.0</ele><time>2026-03-25T11:04:48.999Z</time></trkpt><trkpt lat="43.13069187005107" lon="11.705391744724595"><ele>415.8333333333333</ele><time>2026-03-25T11:04:49.999Z</time></trkpt><trkpt lat="43.130718674391765" lon="11.705525266508861"><ele>415.66666666666663</ele><time>2026-03-25T11:04:51.999Z</time></trkpt><trkpt lat="43.1307495942625" lon="11.705619750372124"><ele>415.5</ele><time>2026-03-25T11:04:53.999Z</time></trkpt><trkpt lat="43.13078560059985" lon="11.705694457825118"><ele>415.33333333333337</ele><time>2026-03-25T11:04:55.999Z</time></trkpt><trkpt lat="43.13086124713427" lon="11.705752894712631"><ele>415.1666666666667</ele><time>2026-03-25T11:04:57.999Z</time></trkpt><trkpt lat="43.13094526179632" lon="11.705701339267746"><ele>415.0</ele><time>2026-03-25T11:04:59.999Z</time></trkpt><trkpt lat="43.130945127167166" lon="11.705558191778993"><ele>415.0</ele><time>2026-03-25T11:05:01.999Z</time></trkpt><trkpt lat="43.130953777317416" lon="11.705462861257715"><ele>415.0</ele><time>2026-03-25T11:05:03.999Z</time></trkpt><trkpt lat="43.13097267462054" lon="11.705344439697058"><ele>415.0</ele><time>2026-03-25T11:05:05.999Z</time></trkpt><trkpt lat="43.13098118812306" lon="11.705216415481624"><ele>415.0</ele><time>2026-03-25T11:05:07.999Z</time></trkpt><trkpt lat="43.130997845142495" lon="11.705055299119824"><ele>415.0</ele><time>2026-03-25T11:05:09.999Z</time></trkpt><trkpt lat="43.13104437433689" lon="11.70492259477267"><ele>413.4</ele><time>2026-03-25T11:05:11.999Z</time></trkpt><trkpt lat="43.13108341102867" lon="11.70484750523772"><ele>411.8</ele><time>2026-03-25T11:05:12.999Z</time></trkpt><trkpt lat="43.13111691527186" lon="11.704742083687131"><ele>410.20000000000005</ele><time>2026-03-25T11:05:14.999Z</time></trkpt><trkpt lat="43.131144186301675" lon="11.704582826109634"><ele>408.6</ele><time>2026-03-25T11:05:16.999Z</time></trkpt><trkpt lat="43.1311613894436" lon="11.704412641148354"><ele>407.0</ele><time>2026-03-25T11:05:18.999Z</time></trkpt><trkpt lat="43.13115668065351" lon="11.704272611974284"><ele>405.6</ele><time>2026-03-25T11:05:20.999Z</time></trkpt><trkpt lat="43.131147719217665" lon="11.704116822942675"><ele>404.20000000000005</ele><time>2026-03-25T11:05:22.999Z</time></trkpt><trkpt lat="43.131153760545914" lon="11.703982559178128"><ele>402.8</ele><time>2026-03-25T11:05:24.999Z</time></trkpt><trkpt lat="43.13115336781648" lon="11.703854676630188"><ele>401.4</ele><time>2026-03-25T11:05:27Z</time></trkpt><trkpt lat="43.131149209335135" lon="11.703705650524977"><ele>400.0</ele><time>2026-03-25T11:05:29Z</time></trkpt><trkpt lat="43.13117485106671" lon="11.703572622801158"><ele>399.6</ele><time>2026-03-25T11:05:31Z</time></trkpt><trkpt lat="43.13122793378685" lon="11.703426866593658"><ele>399.2</ele><time>2026-03-25T11:05:33Z</time></trkpt><trkpt lat="43.131291214978845" lon="11.703309038801878"><ele>398.79999999999995</ele><time>2026-03-25T11:05:35Z</time></trkpt><trkpt lat="43.13133095086326" lon="11.70315833048842"><ele>398.4</ele><time>2026-03-25T11:05:37Z</time></trkpt><trkpt lat="43.131412372249294" lon="11.70312221060089"><ele>398.0</ele><time>2026-03-25T11:05:38Z</time></trkpt><trkpt lat="43.13148774943879" lon="11.702994886033434"><ele>402.0</ele><time>2026-03-25T11:05:40Z</time></trkpt><trkpt lat="43.13156686433639" lon="11.702876505447524"><ele>406.0</ele><time>2026-03-25T11:05:42Z</time></trkpt><trkpt lat="43.13166738652755" lon="11.70277771415477"><ele>410.0</ele><time>2026-03-25T11:05:44Z</time></trkpt><trkpt lat="43.13170702739826" lon="11.702706744923871"><ele>414.0</ele><time>2026-03-25T11:05:45Z</time></trkpt><trkpt lat="43.13180235693936" lon="11.702593640149923"><ele>418.0</ele><time>2026-03-25T11:05:47Z</time></trkpt><trkpt lat="43.13184809231162" lon="11.702527611630638"><ele>418.00000000000006</ele><time>2026-03-25T11:05:48Z</time></trkpt><trkpt lat="43.13193459903589" lon="11.702492457740888"><ele>418.0</ele><time>2026-03-25T11:05:49Z</time></trkpt><trkpt lat="43.131986301941694" lon="11.702439321753246"><ele>418.0</ele><time>2026-03-25T11:05:50Z</time></trkpt><trkpt lat="43.13204373799067" lon="11.7023706454207"><ele>418.0</ele><time>2026-03-25T11:05:51Z</time></trkpt><trkpt lat="43.1321011455801" lon="11.702303734422333"><ele>418.00000000000006</ele><time>2026-03-25T11:05:52Z</time></trkpt><trkpt lat="43.13215757767596" lon="11.702244854036085"><ele>418.0</ele><time>2026-03-25T11:05:53Z</time></trkpt><trkpt lat="43.13222404292138" lon="11.702177984040917"><ele>418.00000000000006</ele><time>2026-03-25T11:05:54Z</time></trkpt><trkpt lat="43.132293387293394" lon="11.702106944758453"><ele>418.0</ele><time>2026-03-25T11:05:55Z</time></trkpt><trkpt lat="43.13235818683617" lon="11.702041912978487"><ele>418.0</ele><time>2026-03-25T11:05:56Z</time></trkpt><trkpt lat="43.13242397766119" lon="11.701975287811912"><ele>418.0</ele><time>2026-03-25T11:05:57Z</time></trkpt><trkpt lat="43.13249040067024" lon="11.701908241612609"><ele>418.00000000000006</ele><time>2026-03-25T11:05:58Z</time></trkpt><trkpt lat="43.13256042208289" lon="11.701835037226589"><ele>418.0</ele><time>2026-03-25T11:05:59Z</time></trkpt><trkpt lat="43.13263758999554" lon="11.701777054064268"><ele>420.33333333333337</ele><time>2026-03-25T11:06:00Z</time></trkpt><trkpt lat="43.132701668892956" lon="11.701710669704807"><ele>422.6666666666667</ele><time>2026-03-25T11:06:01Z</time></trkpt><trkpt lat="43.13275346994872" lon="11.70162897857238"><ele>425.0</ele><time>2026-03-25T11:06:02Z</time></trkpt><trkpt lat="43.13281743919531" lon="11.701566988446178"><ele>427.33333333333337</ele><time>2026-03-25T11:06:03Z</time></trkpt><trkpt lat="43.13287848194811" lon="11.701508537825106"><ele>429.6666666666667</ele><time>2026-03-25T11:06:04Z</time></trkpt><trkpt lat="43.132945880283685" lon="11.701427047953384"><ele>432.0</ele><time>2026-03-25T11:06:05Z</time></trkpt><trkpt lat="43.13302388203244" lon="11.701364595001177"><ele>432.0</ele><time>2026-03-25T11:06:06Z</time></trkpt><trkpt lat="43.13307379551703" lon="11.701281380698905"><ele>432.00000000000006</ele><time>2026-03-25T11:06:07Z</time></trkpt><trkpt lat="43.13314244790962" lon="11.701228560239956"><ele>432.00000000000006</ele><time>2026-03-25T11:06:08Z</time></trkpt><trkpt lat="43.1331943432572" lon="11.701168711989943"><ele>432.0</ele><time>2026-03-25T11:06:09Z</time></trkpt><trkpt lat="43.13328196293791" lon="11.701053729146945"><ele>432.0</ele><time>2026-03-25T11:06:11Z</time></trkpt><trkpt lat="43.13337305448974" lon="11.700966054455087"><ele>433.6</ele><time>2026-03-25T11:06:13Z</time></trkpt><trkpt lat="43.13343909098865" lon="11.7009501974691"><ele>435.20000000000005</ele><time>2026-03-25T11:06:14Z</time></trkpt><trkpt lat="43.133559112027726" lon="11.700958133493993"><ele>436.8</ele><time>2026-03-25T11:06:16Z</time></trkpt><trkpt lat="43.133627615784235" lon="11.700950556135881"><ele>438.4</ele><time>2026-03-25T11:06:17Z</time></trkpt><trkpt lat="43.133707790900836" lon="11.700924024388742"><ele>440.0</ele><time>2026-03-25T11:06:18Z</time></trkpt><trkpt lat="43.13381874211397" lon="11.700937983803968"><ele>439.99999999999994</ele><time>2026-03-25T11:06:19Z</time></trkpt><trkpt lat="43.133910393635" lon="11.700909909560115"><ele>440.0</ele><time>2026-03-25T11:06:20Z</time></trkpt><trkpt lat="43.13398497643949" lon="11.700903927871005"><ele>440.0</ele><time>2026-03-25T11:06:21Z</time></trkpt><trkpt lat="43.13406061362661" lon="11.700913833290382"><ele>440.0</ele><time>2026-03-25T11:06:22Z</time></trkpt><trkpt lat="43.13413941917714" lon="11.700896400212686"><ele>439.99999999999994</ele><time>2026-03-25T11:06:23Z</time></trkpt><trkpt lat="43.1342154162369" lon="11.70085435532855"><ele>440.0</ele><time>2026-03-25T11:06:24Z</time></trkpt><trkpt lat="43.13428314087351" lon="11.700841671671812"><ele>442.0</ele><time>2026-03-25T11:06:25Z</time></trkpt><trkpt lat="43.13438816399517" lon="11.700723946092502"><ele>444.0</ele><time>2026-03-25T11:06:27Z</time></trkpt><trkpt lat="43.13445925371529" lon="11.700612782453131"><ele>446.0</ele><time>2026-03-25T11:06:28Z</time></trkpt><trkpt lat="43.1345471453197" lon="11.700527814609204"><ele>448.0</ele><time>2026-03-25T11:06:29Z</time></trkpt><trkpt lat="43.13462310837964" lon="11.700419098014244"><ele>448.00000000000006</ele><time>2026-03-25T11:06:30Z</time></trkpt><trkpt lat="43.13470983336646" lon="11.700348062907995"><ele>448.0</ele><time>2026-03-25T11:06:31Z</time></trkpt><trkpt lat="43.13477231611835" lon="11.700261615631899"><ele>448.0</ele><time>2026-03-25T11:06:32Z</time></trkpt><trkpt lat="43.13483323705471" lon="11.70018784102065"><ele>448.0</ele><time>2026-03-25T11:06:33Z</time></trkpt><trkpt lat="43.134899379759425" lon="11.700136072363014"><ele>448.00000000000006</ele><time>2026-03-25T11:06:34Z</time></trkpt><trkpt lat="43.13495121954619" lon="11.700049553311992"><ele>448.0</ele><time>2026-03-25T11:06:35Z</time></trkpt><trkpt lat="43.13502158396909" lon="11.699978789398529"><ele>448.6666666666667</ele><time>2026-03-25T11:06:36Z</time></trkpt><trkpt lat="43.13509041177342" lon="11.699905095523201"><ele>449.33333333333337</ele><time>2026-03-25T11:06:37Z</time></trkpt><trkpt lat="43.135173025778336" lon="11.699810503024619"><ele>450.0</ele><time>2026-03-25T11:06:39Z</time></trkpt><trkpt lat="43.13523031947208" lon="11.699767083153816"><ele>450.66666666666663</ele><time>2026-03-25T11:06:41Z</time></trkpt><trkpt lat="43.13529200473211" lon="11.699699095610953"><ele>451.3333333333333</ele><time>2026-03-25T11:06:44Z</time></trkpt><trkpt lat="43.13534793872488" lon="11.699637436752216"><ele>452.0</ele><time>2026-03-25T11:06:47Z</time></trkpt><trkpt lat="43.135412692505" lon="11.699566013983707"><ele>451.99999999999994</ele><time>2026-03-25T11:06:49Z</time></trkpt><trkpt lat="43.13545954468563" lon="11.699506079121418"><ele>452.0</ele><time>2026-03-25T11:06:51Z</time></trkpt><trkpt lat="43.13551994818498" lon="11.699458567078448"><ele>452.0</ele><time>2026-03-25T11:06:53Z</time></trkpt><trkpt lat="43.13559073165653" lon="11.699369638359236"><ele>452.0</ele><time>2026-03-25T11:06:55Z</time></trkpt><trkpt lat="43.1356808132687" lon="11.699389901975463"><ele>451.99999999999994</ele><time>2026-03-25T11:06:56Z</time></trkpt><trkpt lat="43.13575008649199" lon="11.69936565201106"><ele>452.0</ele><time>2026-03-25T11:06:57Z</time></trkpt><trkpt lat="43.1358241726382" lon="11.6993696000664"><ele>450.40000000000003</ele><time>2026-03-25T11:06:58Z</time></trkpt><trkpt lat="43.135898014217624" lon="11.699357497348652"><ele>448.80000000000007</ele><time>2026-03-25T11:06:59Z</time></trkpt><trkpt lat="43.1359659292277" lon="11.699327909018223"><ele>447.2</ele><time>2026-03-25T11:07:00Z</time></trkpt><trkpt lat="43.136085719936" lon="11.699318016210386"><ele>445.6</ele><time>2026-03-25T11:07:02Z</time></trkpt><trkpt lat="43.136196136247484" lon="11.699278492163774"><ele>444.0</ele><time>2026-03-25T11:07:04Z</time></trkpt><trkpt lat="43.13627297342372" lon="11.699257436709491"><ele>444.0</ele><time>2026-03-25T11:07:05Z</time></trkpt><trkpt lat="43.136355109858" lon="11.699226436346418"><ele>444.0</ele><time>2026-03-25T11:07:06Z</time></trkpt><trkpt lat="43.136442464619755" lon="11.699216268444262"><ele>444.0</ele><time>2026-03-25T11:07:07Z</time></trkpt><trkpt lat="43.13652851481665" lon="11.69916044127631"><ele>444.0</ele><time>2026-03-25T11:07:08Z</time></trkpt><trkpt lat="43.13662235289526" lon="11.699124496672646"><ele>444.0</ele><time>2026-03-25T11:07:09Z</time></trkpt><trkpt lat="43.136706750477025" lon="11.699094508587066"><ele>445.0</ele><time>2026-03-25T11:07:10Z</time></trkpt><trkpt lat="43.136789336518206" lon="11.699051112712466"><ele>446.0</ele><time>2026-03-25T11:07:11Z</time></trkpt><trkpt lat="43.136846660110116" lon="11.69898685568298"><ele>447.0</ele><time>2026-03-25T11:07:12Z</time></trkpt><trkpt lat="43.13690904010935" lon="11.698926207662282"><ele>448.0</ele><time>2026-03-25T11:07:13Z</time></trkpt><trkpt lat="43.13697256520662" lon="11.698859396171889"><ele>449.0</ele><time>2026-03-25T11:07:14Z</time></trkpt><trkpt lat="43.13702919038848" lon="11.698786561733323"><ele>450.0</ele><time>2026-03-25T11:07:15Z</time></trkpt><trkpt lat="43.13708075481717" lon="11.69870516453646"><ele>450.0</ele><time>2026-03-25T11:07:16Z</time></trkpt><trkpt lat="43.13712458405479" lon="11.69862191281138"><ele>450.0</ele><time>2026-03-25T11:07:17Z</time></trkpt><trkpt lat="43.137170382930556" lon="11.698461042161709"><ele>450.0</ele><time>2026-03-25T11:07:19Z</time></trkpt><trkpt lat="43.137193046326246" lon="11.698372926220376"><ele>450.0</ele><time>2026-03-25T11:07:20Z</time></trkpt><trkpt lat="43.13722379158639" lon="11.698264293386845"><ele>450.0</ele><time>2026-03-25T11:07:21Z</time></trkpt><trkpt lat="43.13725319128099" lon="11.698162360980497"><ele>450.0</ele><time>2026-03-25T11:07:22Z</time></trkpt><trkpt lat="43.137286142397365" lon="11.69804556032208"><ele>450.6</ele><time>2026-03-25T11:07:23Z</time></trkpt><trkpt lat="43.137337236818475" lon="11.697924464215072"><ele>451.2</ele><time>2026-03-25T11:07:24Z</time></trkpt><trkpt lat="43.13737261924661" lon="11.697800161199616"><ele>451.79999999999995</ele><time>2026-03-25T11:07:25Z</time></trkpt><trkpt lat="43.13739553272012" lon="11.697665545513813"><ele>452.4</ele><time>2026-03-25T11:07:26Z</time></trkpt><trkpt lat="43.137445012455984" lon="11.697550835177571"><ele>453.0</ele><time>2026-03-25T11:07:27Z</time></trkpt><trkpt lat="43.13747265850374" lon="11.697403640274576"><ele>456.1666666666667</ele><time>2026-03-25T11:07:28Z</time></trkpt><trkpt lat="43.1375130670993" lon="11.697282902392855"><ele>459.33333333333337</ele><time>2026-03-25T11:07:29Z</time></trkpt><trkpt lat="43.13754694104619" lon="11.697173251851588"><ele>462.5</ele><time>2026-03-25T11:07:30Z</time></trkpt><trkpt lat="43.13757075092929" lon="11.697090793985256"><ele>465.6666666666667</ele><time>2026-03-25T11:07:31Z</time></trkpt><trkpt lat="43.13757317415927" lon="11.696933592393133"><ele>468.83333333333337</ele><time>2026-03-25T11:07:33Z</time></trkpt><trkpt lat="43.13756040133508" lon="11.696819946504032"><ele>472.0</ele><time>2026-03-25T11:07:34Z</time></trkpt><trkpt lat="43.1375647687272" lon="11.696693706310173"><ele>472.6</ele><time>2026-03-25T11:07:35Z</time></trkpt><trkpt lat="43.13756858180588" lon="11.696573583940943"><ele>473.20000000000005</ele><time>2026-03-25T11:07:36Z</time></trkpt><trkpt lat="43.13757265136906" lon="11.696474001401656"><ele>473.8</ele><time>2026-03-25T11:07:37Z</time></trkpt><trkpt lat="43.137598039694936" lon="11.696357185810689"><ele>474.4</ele><time>2026-03-25T11:07:39Z</time></trkpt><trkpt lat="43.13776221380975" lon="11.696443578685027"><ele>475.0</ele><time>2026-03-25T11:07:44Z</time></trkpt><trkpt lat="43.13784943481497" lon="11.696509829739401"><ele>475.00000000000006</ele><time>2026-03-25T11:07:45Z</time></trkpt><trkpt lat="43.13793071619371" lon="11.696595034143865"><ele>475.0</ele><time>2026-03-25T11:07:46Z</time></trkpt><trkpt lat="43.137996996552026" lon="11.696659902037686"><ele>475.0</ele><time>2026-03-25T11:07:47Z</time></trkpt><trkpt lat="43.13806243241723" lon="11.69671884839769"><ele>475.0</ele><time>2026-03-25T11:07:48Z</time></trkpt><trkpt lat="43.1381322302083" lon="11.696774745685424"><ele>475.00000000000006</ele><time>2026-03-25T11:07:49Z</time></trkpt><trkpt lat="43.138208893443284" lon="11.696838225584735"><ele>475.0</ele><time>2026-03-25T11:07:50Z</time></trkpt><trkpt lat="43.138291560710556" lon="11.696910336137831"><ele>477.4</ele><time>2026-03-25T11:07:51Z</time></trkpt><trkpt lat="43.13837601979225" lon="11.696985937004817"><ele>479.8</ele><time>2026-03-25T11:07:52Z</time></trkpt><trkpt lat="43.13846036924402" lon="11.697058802334931"><ele>482.20000000000005</ele><time>2026-03-25T11:07:53Z</time></trkpt><trkpt lat="43.138536954963605" lon="11.697115030311942"><ele>484.6</ele><time>2026-03-25T11:07:54Z</time></trkpt><trkpt lat="43.13861644704209" lon="11.697162110284415"><ele>487.0</ele><time>2026-03-25T11:07:55Z</time></trkpt><trkpt lat="43.138700647638345" lon="11.69719955007011"><ele>487.00000000000006</ele><time>2026-03-25T11:07:56Z</time></trkpt><trkpt lat="43.13877073426094" lon="11.69720673592358"><ele>487.0</ele><time>2026-03-25T11:07:57Z</time></trkpt><trkpt lat="43.13885161919171" lon="11.697206961760388"><ele>487.0</ele><time>2026-03-25T11:07:58Z</time></trkpt><trkpt lat="43.13893113903674" lon="11.697208146579408"><ele>487.0</ele><time>2026-03-25T11:07:59Z</time></trkpt><trkpt lat="43.13902702265474" lon="11.697215212452264"><ele>487.00000000000006</ele><time>2026-03-25T11:08:00Z</time></trkpt><trkpt lat="43.13912093492424" lon="11.697213955676029"><ele>487.0</ele><time>2026-03-25T11:08:01Z</time></trkpt><trkpt lat="43.13920471040966" lon="11.697201336353116"><ele>489.0</ele><time>2026-03-25T11:08:02Z</time></trkpt><trkpt lat="43.13930216859072" lon="11.697197773804174"><ele>491.00000000000006</ele><time>2026-03-25T11:08:03Z</time></trkpt><trkpt lat="43.13940661883511" lon="11.697184034846579"><ele>493.00000000000006</ele><time>2026-03-25T11:08:04Z</time></trkpt><trkpt lat="43.13951288933184" lon="11.697173002998756"><ele>495.0</ele><time>2026-03-25T11:08:05Z</time></trkpt><trkpt lat="43.13961908071941" lon="11.697160631202228"><ele>497.0</ele><time>2026-03-25T11:08:06Z</time></trkpt><trkpt lat="43.13973177695409" lon="11.697162077412559"><ele>497.0</ele><time>2026-03-25T11:08:07Z</time></trkpt><trkpt lat="43.13983890526748" lon="11.697168250746127"><ele>497.00000000000006</ele><time>2026-03-25T11:08:08Z</time></trkpt><trkpt lat="43.13995096143211" lon="11.697181304224996"><ele>497.00000000000006</ele><time>2026-03-25T11:08:09Z</time></trkpt><trkpt lat="43.14005505201782" lon="11.697197024613596"><ele>497.0</ele><time>2026-03-25T11:08:10Z</time></trkpt><trkpt lat="43.1401604324053" lon="11.69721003606842"><ele>497.0</ele><time>2026-03-25T11:08:11Z</time></trkpt><trkpt lat="43.14027048460451" lon="11.697222120848418"><ele>499.40000000000003</ele><time>2026-03-25T11:08:12Z</time></trkpt><trkpt lat="43.140370819911155" lon="11.697240400955106"><ele>501.80000000000007</ele><time>2026-03-25T11:08:13Z</time></trkpt><trkpt lat="43.140464354838464" lon="11.697250956903225"><ele>504.2</ele><time>2026-03-25T11:08:14Z</time></trkpt><trkpt lat="43.140549030794" lon="11.697260928912593"><ele>506.6</ele><time>2026-03-25T11:08:15Z</time></trkpt><trkpt lat="43.14064008161924" lon="11.697274280148111"><ele>509.0</ele><time>2026-03-25T11:08:16Z</time></trkpt><trkpt lat="43.14073627239097" lon="11.697298824508557"><ele>511.6</ele><time>2026-03-25T11:08:17Z</time></trkpt><trkpt lat="43.140840782817364" lon="11.697316609683924"><ele>514.2</ele><time>2026-03-25T11:08:18Z</time></trkpt><trkpt lat="43.14091356764392" lon="11.697334076449843"><ele>516.8000000000001</ele><time>2026-03-25T11:08:19Z</time></trkpt><trkpt lat="43.14104868853234" lon="11.697323898816133"><ele>519.4</ele><time>2026-03-25T11:08:21Z</time></trkpt><trkpt lat="43.14113360046493" lon="11.697319773722095"><ele>522.0</ele><time>2026-03-25T11:08:22Z</time></trkpt><trkpt lat="43.141215980488155" lon="11.697326121201538"><ele>522.0</ele><time>2026-03-25T11:08:23Z</time></trkpt><trkpt lat="43.141302558587185" lon="11.697328530758305"><ele>522.0</ele><time>2026-03-25T11:08:24Z</time></trkpt><trkpt lat="43.14138840127671" lon="11.697338924628452"><ele>522.0</ele><time>2026-03-25T11:08:25Z</time></trkpt><trkpt lat="43.14147677070948" lon="11.69734736097254"><ele>522.0</ele><time>2026-03-25T11:08:26Z</time></trkpt><trkpt lat="43.141574348629874" lon="11.69734532416904"><ele>522.0</ele><time>2026-03-25T11:08:27Z</time></trkpt><trkpt lat="43.14168012939126" lon="11.697343764902337"><ele>523.2</ele><time>2026-03-25T11:08:28Z</time></trkpt><trkpt lat="43.141784381206676" lon="11.697341746618635"><ele>524.4000000000001</ele><time>2026-03-25T11:08:29Z</time></trkpt><trkpt lat="43.14187810224041" lon="11.697329835456534"><ele>525.5999999999999</ele><time>2026-03-25T11:08:30Z</time></trkpt><trkpt lat="43.14197406124654" lon="11.697338918074138"><ele>526.8</ele><time>2026-03-25T11:08:31Z</time></trkpt><trkpt lat="43.14207225644897" lon="11.697345178893187"><ele>528.0</ele><time>2026-03-25T11:08:32Z</time></trkpt><trkpt lat="43.1421530372395" lon="11.697346513136731"><ele>528.0</ele><time>2026-03-25T11:08:33Z</time></trkpt><trkpt lat="43.1422458757219" lon="11.69734732858127"><ele>528.0</ele><time>2026-03-25T11:08:35Z</time></trkpt><trkpt lat="43.14231805623032" lon="11.69730832350472"><ele>528.0</ele><time>2026-03-25T11:08:41Z</time></trkpt><trkpt lat="43.1423446831332" lon="11.697056834023908"><ele>528.0</ele><time>2026-03-25T11:08:42Z</time></trkpt><trkpt lat="43.142380551501844" lon="11.696934580937517"><ele>528.1428571428571</ele><time>2026-03-25T11:08:43Z</time></trkpt><trkpt lat="43.142408735738066" lon="11.696838334419484"><ele>528.2857142857143</ele><time>2026-03-25T11:08:44Z</time></trkpt><trkpt lat="43.142441924640956" lon="11.696754263895567"><ele>528.4285714285714</ele><time>2026-03-25T11:08:45Z</time></trkpt><trkpt lat="43.14248037663154" lon="11.69667236944348"><ele>528.5714285714286</ele><time>2026-03-25T11:08:47Z</time></trkpt><trkpt lat="43.14251051487796" lon="11.696590418056896"><ele>528.7142857142857</ele><time>2026-03-25T11:08:49Z</time></trkpt><trkpt lat="43.14253947789682" lon="11.696501072554662"><ele>528.8571428571429</ele><time>2026-03-25T11:08:51Z</time></trkpt><trkpt lat="43.14257143858083" lon="11.69640364645136"><ele>529.0</ele><time>2026-03-25T11:08:53Z</time></trkpt><trkpt lat="43.14259025031285" lon="11.696311252358795"><ele>529.0</ele><time>2026-03-25T11:08:55Z</time></trkpt><trkpt lat="43.14261081080603" lon="11.696188290206116"><ele>529.0</ele><time>2026-03-25T11:08:57Z</time></trkpt><trkpt lat="43.142623691577576" lon="11.696041320280061"><ele>529.0</ele><time>2026-03-25T11:08:59Z</time></trkpt><trkpt lat="43.14262401501142" lon="11.69586646931722"><ele>529.0</ele><time>2026-03-25T11:09:01Z</time></trkpt><trkpt lat="43.14263113846701" lon="11.695759181370134"><ele>529.0</ele><time>2026-03-25T11:09:02Z</time></trkpt><trkpt lat="43.14263470120069" lon="11.69566015852362"><ele>527.3333333333334</ele><time>2026-03-25T11:09:04Z</time></trkpt><trkpt lat="43.142668005582166" lon="11.695578729449712"><ele>525.6666666666666</ele><time>2026-03-25T11:09:08Z</time></trkpt><trkpt lat="43.14299848870158" lon="11.695612389232815"><ele>524.0</ele><time>2026-03-25T11:09:09Z</time></trkpt><trkpt lat="43.14306192952255" lon="11.69561050948983"><ele>524.0</ele><time>2026-03-25T11:09:10Z</time></trkpt><trkpt lat="43.143119473459194" lon="11.695677846738343"><ele>524.0</ele><time>2026-03-25T11:09:11Z</time></trkpt><trkpt lat="43.14317560728386" lon="11.695746513137369"><ele>524.0</ele><time>2026-03-25T11:09:12Z</time></trkpt><trkpt lat="43.14324988703525" lon="11.695830902322234"><ele>524.0</ele><time>2026-03-25T11:09:13Z</time></trkpt><trkpt lat="43.14331134147591" lon="11.695893341981352"><ele>524.0</ele><time>2026-03-25T11:09:14Z</time></trkpt><trkpt lat="43.14337116463146" lon="11.695948509585259"><ele>524.0</ele><time>2026-03-25T11:09:15Z</time></trkpt><trkpt lat="43.14347603146329" lon="11.695993136919252"><ele>522.2</ele><time>2026-03-25T11:09:17Z</time></trkpt><trkpt lat="43.143539499224545" lon="11.695978499234956"><ele>520.4</ele><time>2026-03-25T11:09:18Z</time></trkpt><trkpt lat="43.14360212930125" lon="11.69592497914335"><ele>518.6</ele><time>2026-03-25T11:09:19Z</time></trkpt><trkpt lat="43.14365698005792" lon="11.69584595885321"><ele>516.8</ele><time>2026-03-25T11:09:20Z</time></trkpt><trkpt lat="43.143715375587604" lon="11.695717889533404"><ele>515.0</ele><time>2026-03-25T11:09:21Z</time></trkpt><trkpt lat="43.143776516947376" lon="11.695564499144753"><ele>515.0</ele><time>2026-03-25T11:09:22Z</time></trkpt><trkpt lat="43.14384531118956" lon="11.695398883702167"><ele>515.0</ele><time>2026-03-25T11:09:23Z</time></trkpt><trkpt lat="43.1438960958671" lon="11.695255056024294"><ele>515.0</ele><time>2026-03-25T11:09:24Z</time></trkpt><trkpt lat="43.14393025736889" lon="11.695120331897952"><ele>515.0</ele><time>2026-03-25T11:09:25Z</time></trkpt><trkpt lat="43.14395411621458" lon="11.69499064745889"><ele>514.6</ele><time>2026-03-25T11:09:26Z</time></trkpt><trkpt lat="43.143975511792654" lon="11.694833169603813"><ele>514.2</ele><time>2026-03-25T11:09:27Z</time></trkpt><trkpt lat="43.14398967964133" lon="11.694711394926909"><ele>513.8</ele><time>2026-03-25T11:09:28Z</time></trkpt><trkpt lat="43.14402818337191" lon="11.694583034673204"><ele>513.4</ele><time>2026-03-25T11:09:30Z</time></trkpt><trkpt lat="43.14407832017347" lon="11.694439250559766"><ele>513.0</ele><time>2026-03-25T11:09:32Z</time></trkpt><trkpt lat="43.14411693499245" lon="11.694294762495375"><ele>511.0</ele><time>2026-03-25T11:09:34Z</time></trkpt><trkpt lat="43.144149590421" lon="11.694186547149334"><ele>508.99999999999994</ele><time>2026-03-25T11:09:36Z</time></trkpt><trkpt lat="43.14421373988775" lon="11.694095922794316"><ele>506.99999999999994</ele><time>2026-03-25T11:09:38Z</time></trkpt><trkpt lat="43.14428001761976" lon="11.694023919442717"><ele>505.0</ele><time>2026-03-25T11:09:40Z</time></trkpt><trkpt lat="43.14436177081884" lon="11.693958564647016"><ele>503.0</ele><time>2026-03-25T11:09:42Z</time></trkpt><trkpt lat="43.1444693256544" lon="11.69394252811607"><ele>502.99999999999994</ele><time>2026-03-25T11:09:44Z</time></trkpt><trkpt lat="43.14457039484651" lon="11.693948191572899"><ele>503.0</ele><time>2026-03-25T11:09:46Z</time></trkpt><trkpt lat="43.144683146335986" lon="11.693993189260715"><ele>503.0</ele><time>2026-03-25T11:09:48Z</time></trkpt><trkpt lat="43.14473970653866" lon="11.69403113719042"><ele>503.0</ele><time>2026-03-25T11:09:49Z</time></trkpt><trkpt lat="43.14481675108429" lon="11.694121219975367"><ele>502.99999999999994</ele><time>2026-03-25T11:09:51Z</time></trkpt><trkpt lat="43.14486303930832" lon="11.694183223383465"><ele>503.0</ele><time>2026-03-25T11:09:52Z</time></trkpt><trkpt lat="43.14491182368768" lon="11.694253425782867"><ele>502.5714285714286</ele><time>2026-03-25T11:09:53Z</time></trkpt><trkpt lat="43.14495757392814" lon="11.694333615931669"><ele>502.1428571428572</ele><time>2026-03-25T11:09:54Z</time></trkpt><trkpt lat="43.1450120900112" lon="11.694418131739644"><ele>501.7142857142857</ele><time>2026-03-25T11:09:55Z</time></trkpt><trkpt lat="43.14506461736852" lon="11.694505824530289"><ele>501.28571428571433</ele><time>2026-03-25T11:09:56Z</time></trkpt><trkpt lat="43.14511479347899" lon="11.694578331190076"><ele>500.8571428571429</ele><time>2026-03-25T11:09:57Z</time></trkpt><trkpt lat="43.14516597351751" lon="11.694644839586966"><ele>500.42857142857144</ele><time>2026-03-25T11:09:58Z</time></trkpt><trkpt lat="43.14520945700877" lon="11.694712217542616"><ele>500.0</ele><time>2026-03-25T11:09:59Z</time></trkpt><trkpt lat="43.14527774967878" lon="11.694832658104396"><ele>500.0</ele><time>2026-03-25T11:10:01Z</time></trkpt><trkpt lat="43.14534488738438" lon="11.694950366933945"><ele>500.0</ele><time>2026-03-25T11:10:03Z</time></trkpt><trkpt lat="43.14544049980338" lon="11.695019608540088"><ele>500.0</ele><time>2026-03-25T11:10:05Z</time></trkpt><trkpt lat="43.14554217092864" lon="11.695077105232292"><ele>500.0</ele><time>2026-03-25T11:10:07Z</time></trkpt><trkpt lat="43.145623793479956" lon="11.695156018786069"><ele>500.0</ele><time>2026-03-25T11:10:09Z</time></trkpt><trkpt lat="43.145702013897754" lon="11.695253809973382"><ele>496.8</ele><time>2026-03-25T11:10:11Z</time></trkpt><trkpt lat="43.14574649205318" lon="11.695343324452338"><ele>493.6</ele><time>2026-03-25T11:10:12Z</time></trkpt><trkpt lat="43.14581876496121" lon="11.69541663821836"><ele>490.4</ele><time>2026-03-25T11:10:13Z</time></trkpt><trkpt lat="43.14587362436934" lon="11.695512300675967"><ele>487.2</ele><time>2026-03-25T11:10:14Z</time></trkpt><trkpt lat="43.14592869494065" lon="11.695595322327048"><ele>484.0</ele><time>2026-03-25T11:10:15Z</time></trkpt><trkpt lat="43.1460337578671" lon="11.695698322774595"><ele>484.0</ele><time>2026-03-25T11:10:17Z</time></trkpt><trkpt lat="43.146146868369286" lon="11.695711030654776"><ele>484.0</ele><time>2026-03-25T11:10:19Z</time></trkpt><trkpt lat="43.146248596986844" lon="11.695651301104522"><ele>484.0</ele><time>2026-03-25T11:10:21Z</time></trkpt><trkpt lat="43.14631331536476" lon="11.695618440249536"><ele>484.0</ele><time>2026-03-25T11:10:23Z</time></trkpt><trkpt lat="43.146365537352786" lon="11.695762135065646"><ele>484.0</ele><time>2026-03-25T11:10:27Z</time></trkpt><trkpt lat="43.14639396601582" lon="11.695901557262026"><ele>484.0</ele><time>2026-03-25T11:10:28Z</time></trkpt><trkpt lat="43.146442152377574" lon="11.696053755371647"><ele>484.0</ele><time>2026-03-25T11:10:29Z</time></trkpt><trkpt lat="43.14647926716053" lon="11.696216991484553"><ele>484.0</ele><time>2026-03-25T11:10:30Z</time></trkpt><trkpt lat="43.146524510958756" lon="11.6963895110554"><ele>484.0</ele><time>2026-03-25T11:10:31Z</time></trkpt><trkpt lat="43.14659188598833" lon="11.696562424229231"><ele>485.25</ele><time>2026-03-25T11:10:32Z</time></trkpt><trkpt lat="43.146642823482544" lon="11.696730963761883"><ele>486.5</ele><time>2026-03-25T11:10:33Z</time></trkpt><trkpt lat="43.14671699847326" lon="11.69689324958694"><ele>487.75</ele><time>2026-03-25T11:10:34Z</time></trkpt><trkpt lat="43.14679088407841" lon="11.697060920596215"><ele>489.0</ele><time>2026-03-25T11:10:35Z</time></trkpt><trkpt lat="43.146899279600596" lon="11.69721837585073"><ele>491.0</ele><time>2026-03-25T11:10:36Z</time></trkpt><trkpt lat="43.14701832632333" lon="11.697375322633992"><ele>493.0</ele><time>2026-03-25T11:10:37Z</time></trkpt><trkpt lat="43.14713282850595" lon="11.697522535515278"><ele>495.0</ele><time>2026-03-25T11:10:38Z</time></trkpt><trkpt lat="43.147268282848515" lon="11.697645728544119"><ele>497.0</ele><time>2026-03-25T11:10:39Z</time></trkpt><trkpt lat="43.14743037694182" lon="11.697748220571054"><ele>499.0</ele><time>2026-03-25T11:10:40Z</time></trkpt><trkpt lat="43.14760396837664" lon="11.69785739849924"><ele>501.0</ele><time>2026-03-25T11:10:41Z</time></trkpt><trkpt lat="43.14777277596632" lon="11.697976414752869"><ele>502.66666666666663</ele><time>2026-03-25T11:10:42Z</time></trkpt><trkpt lat="43.147950373378144" lon="11.698101158045173"><ele>504.3333333333333</ele><time>2026-03-25T11:10:43Z</time></trkpt><trkpt lat="43.148125366210856" lon="11.698250785202351"><ele>506.0</ele><time>2026-03-25T11:10:44Z</time></trkpt><trkpt lat="43.148303259461876" lon="11.6984450898322"><ele>509.0</ele><time>2026-03-25T11:10:45Z</time></trkpt><trkpt lat="43.14848520893025" lon="11.69863156983577"><ele>512.0</ele><time>2026-03-25T11:10:46Z</time></trkpt><trkpt lat="43.14866045075749" lon="11.698797120326983"><ele>515.0</ele><time>2026-03-25T11:10:47Z</time></trkpt><trkpt lat="43.14880731139823" lon="11.698956645948492"><ele>515.0</ele><time>2026-03-25T11:10:48Z</time></trkpt><trkpt lat="43.14893439501082" lon="11.699034272235094"><ele>515.0</ele><time>2026-03-25T11:10:49Z</time></trkpt><trkpt lat="43.14902866709339" lon="11.699096712412752"><ele>515.0</ele><time>2026-03-25T11:10:50Z</time></trkpt><trkpt lat="43.14913034965301" lon="11.699130606776063"><ele>515.0</ele><time>2026-03-25T11:10:51Z</time></trkpt><trkpt lat="43.14924195187799" lon="11.699187095922133"><ele>515.0</ele><time>2026-03-25T11:10:52Z</time></trkpt><trkpt lat="43.14936438699296" lon="11.699226917040672"><ele>515.0</ele><time>2026-03-25T11:10:53Z</time></trkpt><trkpt lat="43.149482658763674" lon="11.699257809250026"><ele>515.0</ele><time>2026-03-25T11:10:54Z</time></trkpt><trkpt lat="43.149669987324216" lon="11.698833033099918"><ele>515.0</ele><time>2026-03-25T11:10:55Z</time></trkpt><trkpt lat="43.14984206260371" lon="11.6986959867314"><ele>515.0</ele><time>2026-03-25T11:10:56Z</time></trkpt><trkpt lat="43.15005410873218" lon="11.698592153605855"><ele>515.0</ele><time>2026-03-25T11:10:57Z</time></trkpt><trkpt lat="43.150274226510696" lon="11.698519047300174"><ele>518.0</ele><time>2026-03-25T11:10:58Z</time></trkpt><trkpt lat="43.1504906116388" lon="11.698438679750256"><ele>521.0</ele><time>2026-03-25T11:10:59Z</time></trkpt><trkpt lat="43.150693415650295" lon="11.698359234263474"><ele>524.0</ele><time>2026-03-25T11:11:00Z</time></trkpt><trkpt lat="43.150878078133005" lon="11.698295528276558"><ele>525.6666666666666</ele><time>2026-03-25T11:11:01Z</time></trkpt><trkpt lat="43.15105338028834" lon="11.698246431960246"><ele>527.3333333333334</ele><time>2026-03-25T11:11:02Z</time></trkpt><trkpt lat="43.1512143677331" lon="11.698200266953412"><ele>529.0</ele><time>2026-03-25T11:11:03Z</time></trkpt><trkpt lat="43.15137567118128" lon="11.698149471557098"><ele>529.0</ele><time>2026-03-25T11:11:04Z</time></trkpt><trkpt lat="43.151516703306385" lon="11.698108255045739"><ele>529.0</ele><time>2026-03-25T11:11:05Z</time></trkpt><trkpt lat="43.151641834901405" lon="11.698031728137979"><ele>529.0</ele><time>2026-03-25T11:11:06Z</time></trkpt><trkpt lat="43.151774303103245" lon="11.697908841584393"><ele>529.0</ele><time>2026-03-25T11:11:07Z</time></trkpt><trkpt lat="43.15191628502448" lon="11.697752691545496"><ele>532.0</ele><time>2026-03-25T11:11:08Z</time></trkpt><trkpt lat="43.1520565154313" lon="11.69761752317357"><ele>535.0</ele><time>2026-03-25T11:11:09Z</time></trkpt><trkpt lat="43.15218233746779" lon="11.697496863652093"><ele>538.0</ele><time>2026-03-25T11:11:10Z</time></trkpt><trkpt lat="43.152291100724554" lon="11.697384870727788"><ele>538.25</ele><time>2026-03-25T11:11:11Z</time></trkpt><trkpt lat="43.152382514333574" lon="11.697266613847178"><ele>538.5</ele><time>2026-03-25T11:11:12Z</time></trkpt><trkpt lat="43.15244758624227" lon="11.69711158082847"><ele>538.75</ele><time>2026-03-25T11:11:13Z</time></trkpt><trkpt lat="43.15251856835942" lon="11.696931053356744"><ele>539.0</ele><time>2026-03-25T11:11:14Z</time></trkpt><trkpt lat="43.15261267315692" lon="11.696762279012255"><ele>539.0</ele><time>2026-03-25T11:11:15Z</time></trkpt><trkpt lat="43.15271095215721" lon="11.696608387674113"><ele>539.0</ele><time>2026-03-25T11:11:16Z</time></trkpt><trkpt lat="43.15280889030157" lon="11.696501946760455"><ele>539.0</ele><time>2026-03-25T11:11:17Z</time></trkpt><trkpt lat="43.15290822663615" lon="11.696443960851319"><ele>539.0</ele><time>2026-03-25T11:11:18Z</time></trkpt><trkpt lat="43.1530013215718" lon="11.696428413860522"><ele>539.0</ele><time>2026-03-25T11:11:19Z</time></trkpt><trkpt lat="43.153080723994556" lon="11.696461908542581"><ele>539.0</ele><time>2026-03-25T11:11:20Z</time></trkpt><trkpt lat="43.15314493110173" lon="11.696538179602964"><ele>539.0</ele><time>2026-03-25T11:11:21Z</time></trkpt><trkpt lat="43.15317766754509" lon="11.696634869147326"><ele>539.0</ele><time>2026-03-25T11:11:22Z</time></trkpt><trkpt lat="43.153198708479614" lon="11.69677012251553"><ele>539.0</ele><time>2026-03-25T11:11:23Z</time></trkpt><trkpt lat="43.15318248969764" lon="11.696923751275964"><ele>538.0</ele><time>2026-03-25T11:11:24Z</time></trkpt><trkpt lat="43.15312098674672" lon="11.697077059628345"><ele>537.0</ele><time>2026-03-25T11:11:25Z</time></trkpt><trkpt lat="43.153040995090755" lon="11.697256330252742"><ele>536.0</ele><time>2026-03-25T11:11:26Z</time></trkpt><trkpt lat="43.152967460286014" lon="11.697449953024458"><ele>535.0</ele><time>2026-03-25T11:11:27Z</time></trkpt><trkpt lat="43.15290859260377" lon="11.697642302801656"><ele>535.3333333333334</ele><time>2026-03-25T11:11:28Z</time></trkpt><trkpt lat="43.152887046947654" lon="11.697869525739952"><ele>535.6666666666666</ele><time>2026-03-25T11:11:29Z</time></trkpt><trkpt lat="43.15287610891689" lon="11.698103142270986"><ele>536.0</ele><time>2026-03-25T11:11:30Z</time></trkpt><trkpt lat="43.15287271808115" lon="11.698292950070028"><ele>536.0</ele><time>2026-03-25T11:11:31Z</time></trkpt><trkpt lat="43.15289512662381" lon="11.698474022276645"><ele>536.0</ele><time>2026-03-25T11:11:32Z</time></trkpt><trkpt lat="43.152930950429514" lon="11.69867311465331"><ele>536.0</ele><time>2026-03-25T11:11:33Z</time></trkpt><trkpt lat="43.153002310904476" lon="11.698876136026202"><ele>536.0</ele><time>2026-03-25T11:11:34Z</time></trkpt><trkpt lat="43.15307415984983" lon="11.699065382770304"><ele>537.6</ele><time>2026-03-25T11:11:35Z</time></trkpt><trkpt lat="43.153131972305985" lon="11.699214779564052"><ele>539.2</ele><time>2026-03-25T11:11:36Z</time></trkpt><trkpt lat="43.15319067933427" lon="11.69930943239831"><ele>540.8</ele><time>2026-03-25T11:11:37Z</time></trkpt><trkpt lat="43.15323899500633" lon="11.699374815888946"><ele>542.4</ele><time>2026-03-25T11:11:38Z</time></trkpt><trkpt lat="43.153296833522326" lon="11.699428858025454"><ele>544.0</ele><time>2026-03-25T11:11:39Z</time></trkpt><trkpt lat="43.153390004515934" lon="11.699485525069468"><ele>546.0</ele><time>2026-03-25T11:11:40Z</time></trkpt><trkpt lat="43.15351880319135" lon="11.699534894445526"><ele>548.0</ele><time>2026-03-25T11:11:41Z</time></trkpt><trkpt lat="43.153678469900974" lon="11.69956697900189"><ele>550.0</ele><time>2026-03-25T11:11:42Z</time></trkpt><trkpt lat="43.15385934644431" lon="11.699592900314817"><ele>547.6666666666667</ele><time>2026-03-25T11:11:43Z</time></trkpt><trkpt lat="43.15405994929588" lon="11.699627402632892"><ele>545.3333333333334</ele><time>2026-03-25T11:11:44Z</time></trkpt><trkpt lat="43.15426289480054" lon="11.699676410627374"><ele>543.0</ele><time>2026-03-25T11:11:45Z</time></trkpt><trkpt lat="43.1544766180846" lon="11.699717701181953"><ele>543.0</ele><time>2026-03-25T11:11:46Z</time></trkpt><trkpt lat="43.15469699147464" lon="11.699751183811923"><ele>543.0</ele><time>2026-03-25T11:11:47Z</time></trkpt><trkpt lat="43.154912379902775" lon="11.699798183441791"><ele>543.0</ele><time>2026-03-25T11:11:48Z</time></trkpt><trkpt lat="43.15510902886384" lon="11.699843595730085"><ele>541.6666666666666</ele><time>2026-03-25T11:11:49Z</time></trkpt><trkpt lat="43.155281568672834" lon="11.69988604077203"><ele>540.3333333333333</ele><time>2026-03-25T11:11:50Z</time></trkpt><trkpt lat="43.155449284180676" lon="11.699922207488378"><ele>539.0</ele><time>2026-03-25T11:11:51Z</time></trkpt><trkpt lat="43.155610984642344" lon="11.699952350970184"><ele>539.3333333333333</ele><time>2026-03-25T11:11:52Z</time></trkpt><trkpt lat="43.15578613380016" lon="11.699960022655794"><ele>539.6666666666666</ele><time>2026-03-25T11:11:53Z</time></trkpt><trkpt lat="43.15597453079431" lon="11.699935430963885"><ele>540.0</ele><time>2026-03-25T11:11:54Z</time></trkpt><trkpt lat="43.15617799835242" lon="11.699893942553786"><ele>540.0</ele><time>2026-03-25T11:11:55Z</time></trkpt><trkpt lat="43.15640272898935" lon="11.699842207737559"><ele>540.0</ele><time>2026-03-25T11:11:56Z</time></trkpt><trkpt lat="43.15662227903335" lon="11.699803372072898"><ele>540.0</ele><time>2026-03-25T11:11:57Z</time></trkpt><trkpt lat="43.15682838720226" lon="11.69977228035582"><ele>538.6666666666666</ele><time>2026-03-25T11:11:58Z</time></trkpt><trkpt lat="43.157019734294714" lon="11.69973738576818"><ele>537.3333333333333</ele><time>2026-03-25T11:11:59Z</time></trkpt><trkpt lat="43.1572104443102" lon="11.699716459549737"><ele>536.0</ele><time>2026-03-25T11:12:00Z</time></trkpt><trkpt lat="43.15742135581623" lon="11.699720371182456"><ele>533.3333333333333</ele><time>2026-03-25T11:12:01Z</time></trkpt><trkpt lat="43.1576409617153" lon="11.69975491889602"><ele>530.6666666666666</ele><time>2026-03-25T11:12:02Z</time></trkpt><trkpt lat="43.15786373720161" lon="11.699801465663294"><ele>528.0</ele><time>2026-03-25T11:12:03Z</time></trkpt><trkpt lat="43.15807990115416" lon="11.699846197787652"><ele>527.3333333333334</ele><time>2026-03-25T11:12:04Z</time></trkpt><trkpt lat="43.15828398952817" lon="11.699889975249937"><ele>526.6666666666667</ele><time>2026-03-25T11:12:05Z</time></trkpt><trkpt lat="43.15847454740906" lon="11.699929360266635"><ele>526.0</ele><time>2026-03-25T11:12:06Z</time></trkpt><trkpt lat="43.158631586030715" lon="11.699974034651097"><ele>526.0</ele><time>2026-03-25T11:12:07Z</time></trkpt><trkpt lat="43.15876326164521" lon="11.700022629937756"><ele>526.0</ele><time>2026-03-25T11:12:08Z</time></trkpt><trkpt lat="43.15886622839178" lon="11.70007147324749"><ele>526.0</ele><time>2026-03-25T11:12:09Z</time></trkpt><trkpt lat="43.158953505107924" lon="11.700119783979952"><ele>526.0</ele><time>2026-03-25T11:12:10Z</time></trkpt><trkpt lat="43.159023965543845" lon="11.700189137856887"><ele>526.0</ele><time>2026-03-25T11:12:11Z</time></trkpt><trkpt lat="43.159090643981045" lon="11.70024391800669"><ele>524.75</ele><time>2026-03-25T11:12:12Z</time></trkpt><trkpt lat="43.15920310393" lon="11.700177520482809"><ele>523.5</ele><time>2026-03-25T11:12:13Z</time></trkpt><trkpt lat="43.159314613337514" lon="11.700135152387004"><ele>522.25</ele><time>2026-03-25T11:12:14Z</time></trkpt><trkpt lat="43.15943624680368" lon="11.700102194820895"><ele>521.0</ele><time>2026-03-25T11:12:15Z</time></trkpt><trkpt lat="43.15953210244127" lon="11.700063160392762"><ele>521.0</ele><time>2026-03-25T11:12:16Z</time></trkpt><trkpt lat="43.159609118320596" lon="11.69997308536615"><ele>521.0</ele><time>2026-03-25T11:12:17Z</time></trkpt><trkpt lat="43.15969504649808" lon="11.699833086547603"><ele>521.0</ele><time>2026-03-25T11:12:18Z</time></trkpt><trkpt lat="43.159766372310614" lon="11.699660471514495"><ele>521.0</ele><time>2026-03-25T11:12:19Z</time></trkpt><trkpt lat="43.15983258654093" lon="11.699489151865366"><ele>520.75</ele><time>2026-03-25T11:12:20Z</time></trkpt><trkpt lat="43.15989762767983" lon="11.699333059053311"><ele>520.5</ele><time>2026-03-25T11:12:21Z</time></trkpt><trkpt lat="43.159959419503224" lon="11.699185456268774"><ele>520.25</ele><time>2026-03-25T11:12:22Z</time></trkpt><trkpt lat="43.16002429204837" lon="11.699027629038747"><ele>520.0</ele><time>2026-03-25T11:12:23Z</time></trkpt><trkpt lat="43.16011823361218" lon="11.69885004829839"><ele>520.0</ele><time>2026-03-25T11:12:24Z</time></trkpt><trkpt lat="43.16025935053934" lon="11.698707982338163"><ele>520.0</ele><time>2026-03-25T11:12:25Z</time></trkpt><trkpt lat="43.16042392954066" lon="11.69861812137092"><ele>520.0</ele><time>2026-03-25T11:12:26Z</time></trkpt><trkpt lat="43.16057541736302" lon="11.69854431010105"><ele>519.5</ele><time>2026-03-25T11:12:27Z</time></trkpt><trkpt lat="43.160727802590074" lon="11.698470061557101"><ele>519.0</ele><time>2026-03-25T11:12:28Z</time></trkpt><trkpt lat="43.16086000847102" lon="11.698405645275244"><ele>518.5</ele><time>2026-03-25T11:12:29Z</time></trkpt><trkpt lat="43.160983314641136" lon="11.69834556527058"><ele>518.0</ele><time>2026-03-25T11:12:30Z</time></trkpt><trkpt lat="43.16110729228162" lon="11.698283634432487"><ele>518.0</ele><time>2026-03-25T11:12:31Z</time></trkpt><trkpt lat="43.16127258854028" lon="11.698190978098589"><ele>518.0</ele><time>2026-03-25T11:12:32Z</time></trkpt><trkpt lat="43.16146525525517" lon="11.698079200160313"><ele>518.0</ele><time>2026-03-25T11:12:33Z</time></trkpt><trkpt lat="43.16163620714094" lon="11.697950414197624"><ele>518.6666666666666</ele><time>2026-03-25T11:12:34Z</time></trkpt><trkpt lat="43.16179388869283" lon="11.697827417215908"><ele>519.3333333333334</ele><time>2026-03-25T11:12:35Z</time></trkpt><trkpt lat="43.16194694440964" lon="11.697727597048122"><ele>520.0</ele><time>2026-03-25T11:12:36Z</time></trkpt><trkpt lat="43.16209632347668" lon="11.697653862893615"><ele>520.0</ele><time>2026-03-25T11:12:37Z</time></trkpt><trkpt lat="43.16222843677702" lon="11.697598825971767"><ele>520.0</ele><time>2026-03-25T11:12:38Z</time></trkpt><trkpt lat="43.162357393797684" lon="11.69755119762419"><ele>520.0</ele><time>2026-03-25T11:12:39Z</time></trkpt><trkpt lat="43.16249925399009" lon="11.697511193917615"><ele>520.0</ele><time>2026-03-25T11:12:40Z</time></trkpt><trkpt lat="43.162624567828985" lon="11.69747080248173"><ele>516.25</ele><time>2026-03-25T11:12:41Z</time></trkpt><trkpt lat="43.1627333669697" lon="11.697411816797874"><ele>512.5</ele><time>2026-03-25T11:12:42Z</time></trkpt><trkpt lat="43.162818688131416" lon="11.697318409775942"><ele>508.75</ele><time>2026-03-25T11:12:43Z</time></trkpt><trkpt lat="43.16291806049074" lon="11.697169366724493"><ele>505.0</ele><time>2026-03-25T11:12:44Z</time></trkpt><trkpt lat="43.16303842201265" lon="11.697003050699934"><ele>504.6666666666667</ele><time>2026-03-25T11:12:45Z</time></trkpt><trkpt lat="43.16317053761672" lon="11.696846211393206"><ele>504.33333333333337</ele><time>2026-03-25T11:12:46Z</time></trkpt><trkpt lat="43.1633074476821" lon="11.696712687669818"><ele>504.0</ele><time>2026-03-25T11:12:47Z</time></trkpt><trkpt lat="43.16345006877017" lon="11.696604928138733"><ele>504.0</ele><time>2026-03-25T11:12:48Z</time></trkpt><trkpt lat="43.163617033533264" lon="11.696509340775325"><ele>504.0</ele><time>2026-03-25T11:12:49Z</time></trkpt><trkpt lat="43.163783825948755" lon="11.69640855571387"><ele>504.0</ele><time>2026-03-25T11:12:50Z</time></trkpt><trkpt lat="43.16393931624422" lon="11.696318271300646"><ele>504.66666666666663</ele><time>2026-03-25T11:12:51Z</time></trkpt><trkpt lat="43.16408407255592" lon="11.69624461931526"><ele>505.3333333333333</ele><time>2026-03-25T11:12:52Z</time></trkpt><trkpt lat="43.16421353388866" lon="11.696153979670846"><ele>506.0</ele><time>2026-03-25T11:12:53Z</time></trkpt><trkpt lat="43.16434693355998" lon="11.696035220522816"><ele>506.0</ele><time>2026-03-25T11:12:54Z</time></trkpt><trkpt lat="43.164487596481266" lon="11.695913240244113"><ele>506.0</ele><time>2026-03-25T11:12:55Z</time></trkpt><trkpt lat="43.164628352035784" lon="11.695775049331456"><ele>506.0</ele><time>2026-03-25T11:12:56Z</time></trkpt><trkpt lat="43.16477528982463" lon="11.695643909985806"><ele>499.3333333333333</ele><time>2026-03-25T11:12:57Z</time></trkpt><trkpt lat="43.16491532360434" lon="11.695515039658758"><ele>492.66666666666663</ele><time>2026-03-25T11:12:58Z</time></trkpt><trkpt lat="43.165058444336246" lon="11.695388970746901"><ele>486.0</ele><time>2026-03-25T11:12:59Z</time></trkpt><trkpt lat="43.165207855012945" lon="11.695267343258589"><ele>492.0</ele><time>2026-03-25T11:13:00Z</time></trkpt><trkpt lat="43.16534661413046" lon="11.695153152088647"><ele>498.0</ele><time>2026-03-25T11:13:01Z</time></trkpt><trkpt lat="43.1654895572765" lon="11.695050406233191"><ele>504.0</ele><time>2026-03-25T11:13:02Z</time></trkpt><trkpt lat="43.165620372946435" lon="11.694944304057387"><ele>499.5</ele><time>2026-03-25T11:13:03Z</time></trkpt><trkpt lat="43.165744119505874" lon="11.694844496257437"><ele>495.0</ele><time>2026-03-25T11:13:04Z</time></trkpt><trkpt lat="43.16587582738866" lon="11.694745045903755"><ele>490.5</ele><time>2026-03-25T11:13:05Z</time></trkpt><trkpt lat="43.16600769539946" lon="11.694648373680623"><ele>486.0</ele><time>2026-03-25T11:13:06Z</time></trkpt><trkpt lat="43.16613970920762" lon="11.69456092559708"><ele>486.0</ele><time>2026-03-25T11:13:07Z</time></trkpt><trkpt lat="43.16628245175988" lon="11.694481495185345"><ele>486.0</ele><time>2026-03-25T11:13:08Z</time></trkpt><trkpt lat="43.166428974998944" lon="11.694411885612034"><ele>486.0</ele><time>2026-03-25T11:13:09Z</time></trkpt><trkpt lat="43.16660489731008" lon="11.694375444778538"><ele>487.66666666666663</ele><time>2026-03-25T11:13:10Z</time></trkpt><trkpt lat="43.16681275948689" lon="11.694363992659978"><ele>489.3333333333333</ele><time>2026-03-25T11:13:11Z</time></trkpt><trkpt lat="43.167010036591485" lon="11.694363549139702"><ele>491.0</ele><time>2026-03-25T11:13:12Z</time></trkpt><trkpt lat="43.167189091024404" lon="11.694359364604137"><ele>491.0</ele><time>2026-03-25T11:13:13Z</time></trkpt><trkpt lat="43.167356136096245" lon="11.69434023033087"><ele>491.0</ele><time>2026-03-25T11:13:14Z</time></trkpt><trkpt lat="43.167509140401044" lon="11.694315435266288"><ele>491.0</ele><time>2026-03-25T11:13:15Z</time></trkpt><trkpt lat="43.16764066224987" lon="11.69428872235354"><ele>490.3333333333333</ele><time>2026-03-25T11:13:16Z</time></trkpt><trkpt lat="43.16776608694619" lon="11.694240951953423"><ele>489.66666666666663</ele><time>2026-03-25T11:13:17Z</time></trkpt><trkpt lat="43.1679100101524" lon="11.694142922023198"><ele>489.0</ele><time>2026-03-25T11:13:18Z</time></trkpt><trkpt lat="43.16806804288991" lon="11.694002560477717"><ele>486.66666666666663</ele><time>2026-03-25T11:13:19Z</time></trkpt><trkpt lat="43.16823043455635" lon="11.693882714123067"><ele>484.3333333333333</ele><time>2026-03-25T11:13:20Z</time></trkpt><trkpt lat="43.16839678899893" lon="11.693774419597293"><ele>482.0</ele><time>2026-03-25T11:13:21Z</time></trkpt><trkpt lat="43.16854129181247" lon="11.69368133599846"><ele>482.0</ele><time>2026-03-25T11:13:22Z</time></trkpt><trkpt lat="43.16867583800136" lon="11.693621206168515"><ele>482.0</ele><time>2026-03-25T11:13:23Z</time></trkpt><trkpt lat="43.16882545543701" lon="11.69357216150685"><ele>482.0</ele><time>2026-03-25T11:13:24Z</time></trkpt><trkpt lat="43.16898899519799" lon="11.693545510829738"><ele>489.3333333333333</ele><time>2026-03-25T11:13:25Z</time></trkpt><trkpt lat="43.16917188348649" lon="11.69353407643504"><ele>496.66666666666663</ele><time>2026-03-25T11:13:26Z</time></trkpt><trkpt lat="43.1693544069043" lon="11.69352612949678"><ele>504.0</ele><time>2026-03-25T11:13:27Z</time></trkpt><trkpt lat="43.16954404824717" lon="11.693519164420414"><ele>504.0</ele><time>2026-03-25T11:13:28Z</time></trkpt><trkpt lat="43.16974610334377" lon="11.693509463000598"><ele>504.0</ele><time>2026-03-25T11:13:29Z</time></trkpt><trkpt lat="43.169918095220154" lon="11.693530873817735"><ele>504.0</ele><time>2026-03-25T11:13:30Z</time></trkpt><trkpt lat="43.17006419835587" lon="11.693532748010709"><ele>504.75</ele><time>2026-03-25T11:13:31Z</time></trkpt><trkpt lat="43.170201960849376" lon="11.693537654887662"><ele>505.5</ele><time>2026-03-25T11:13:32Z</time></trkpt><trkpt lat="43.17032069783669" lon="11.69353423122852"><ele>506.25</ele><time>2026-03-25T11:13:33Z</time></trkpt><trkpt lat="43.170428278679076" lon="11.693511786586757"><ele>507.0</ele><time>2026-03-25T11:13:34Z</time></trkpt><trkpt lat="43.17054468958017" lon="11.693486811187451"><ele>507.0</ele><time>2026-03-25T11:13:35Z</time></trkpt><trkpt lat="43.17067061813154" lon="11.693415344417756"><ele>507.0</ele><time>2026-03-25T11:13:36Z</time></trkpt><trkpt lat="43.17081271966204" lon="11.693273705946343"><ele>507.0</ele><time>2026-03-25T11:13:37Z</time></trkpt><trkpt lat="43.170974463468546" lon="11.693134876585225"><ele>506.66666666666663</ele><time>2026-03-25T11:13:38Z</time></trkpt><trkpt lat="43.17114679337417" lon="11.692997181754397"><ele>506.3333333333333</ele><time>2026-03-25T11:13:39Z</time></trkpt><trkpt lat="43.17133278815819" lon="11.69285226668334"><ele>506.0</ele><time>2026-03-25T11:13:40Z</time></trkpt><trkpt lat="43.171506727475276" lon="11.692727247156721"><ele>504.3333333333333</ele><time>2026-03-25T11:13:41Z</time></trkpt><trkpt lat="43.17166971966214" lon="11.692614871967658"><ele>502.66666666666663</ele><time>2026-03-25T11:13:42Z</time></trkpt><trkpt lat="43.17183405248476" lon="11.69250546196782"><ele>501.0</ele><time>2026-03-25T11:13:43Z</time></trkpt><trkpt lat="43.17200097522181" lon="11.69237383115818"><ele>501.0</ele><time>2026-03-25T11:13:44Z</time></trkpt><trkpt lat="43.17217441331955" lon="11.692248276444463"><ele>501.0</ele><time>2026-03-25T11:13:45Z</time></trkpt><trkpt lat="43.17233673583319" lon="11.692142500668313"><ele>501.0</ele><time>2026-03-25T11:13:46Z</time></trkpt><trkpt lat="43.172496794533394" lon="11.69206017529263"><ele>496.66666666666663</ele><time>2026-03-25T11:13:47Z</time></trkpt><trkpt lat="43.17267350872835" lon="11.692013929186649"><ele>492.3333333333333</ele><time>2026-03-25T11:13:48Z</time></trkpt><trkpt lat="43.17287884072879" lon="11.6919779245348"><ele>488.0</ele><time>2026-03-25T11:13:49Z</time></trkpt><trkpt lat="43.173101046288735" lon="11.691953820174666"><ele>488.3333333333333</ele><time>2026-03-25T11:13:50Z</time></trkpt><trkpt lat="43.173325000662906" lon="11.691931078649136"><ele>488.66666666666663</ele><time>2026-03-25T11:13:51Z</time></trkpt><trkpt lat="43.17354105155432" lon="11.69190583622452"><ele>489.0</ele><time>2026-03-25T11:13:52Z</time></trkpt><trkpt lat="43.1737433900013" lon="11.691873077717222"><ele>489.0</ele><time>2026-03-25T11:13:53Z</time></trkpt><trkpt lat="43.17393841592442" lon="11.691853798194593"><ele>489.0</ele><time>2026-03-25T11:13:54Z</time></trkpt><trkpt lat="43.1741144800021" lon="11.69184396574203"><ele>489.0</ele><time>2026-03-25T11:13:55Z</time></trkpt><trkpt lat="43.17428003615545" lon="11.691841543495029"><ele>487.5</ele><time>2026-03-25T11:13:56Z</time></trkpt><trkpt lat="43.17442098798169" lon="11.69182435167406"><ele>486.0</ele><time>2026-03-25T11:13:57Z</time></trkpt><trkpt lat="43.17455790199516" lon="11.691768589068"><ele>484.5</ele><time>2026-03-25T11:13:58Z</time></trkpt><trkpt lat="43.17469889611727" lon="11.691699781169309"><ele>483.0</ele><time>2026-03-25T11:13:59Z</time></trkpt><trkpt lat="43.1748215368916" lon="11.69163892337873"><ele>481.0</ele><time>2026-03-25T11:14:00Z</time></trkpt><trkpt lat="43.17493838145201" lon="11.691581790580821"><ele>478.99999999999994</ele><time>2026-03-25T11:14:01Z</time></trkpt><trkpt lat="43.175033951288825" lon="11.691545297421778"><ele>476.99999999999994</ele><time>2026-03-25T11:14:02Z</time></trkpt><trkpt lat="43.17512778285231" lon="11.691501394172628"><ele>475.0</ele><time>2026-03-25T11:14:03Z</time></trkpt><trkpt lat="43.17521067673316" lon="11.691448150629757"><ele>473.0</ele><time>2026-03-25T11:14:04Z</time></trkpt><trkpt lat="43.17528905991392" lon="11.691410608480384"><ele>473.0</ele><time>2026-03-25T11:14:05Z</time></trkpt><trkpt lat="43.175421430604544" lon="11.691330375449708"><ele>473.0</ele><time>2026-03-25T11:14:07Z</time></trkpt><trkpt lat="43.17549424292578" lon="11.691246626029416"><ele>473.0</ele><time>2026-03-25T11:14:09Z</time></trkpt><trkpt lat="43.17540305933323" lon="11.691497218999395"><ele>473.0</ele><time>2026-03-25T11:14:17Z</time></trkpt><trkpt lat="43.175335829645896" lon="11.691651283554801"><ele>472.99999999999994</ele><time>2026-03-25T11:14:18Z</time></trkpt><trkpt lat="43.17528582197946" lon="11.69177530941865"><ele>473.0</ele><time>2026-03-25T11:14:19Z</time></trkpt><trkpt lat="43.17523834537143" lon="11.691857406423528"><ele>473.0</ele><time>2026-03-25T11:14:20Z</time></trkpt><trkpt lat="43.17519552022537" lon="11.691963781289376"><ele>473.0</ele><time>2026-03-25T11:14:21Z</time></trkpt><trkpt lat="43.17516947409429" lon="11.69206019666535"><ele>472.99999999999994</ele><time>2026-03-25T11:14:22Z</time></trkpt><trkpt lat="43.17509374223048" lon="11.692146770165929"><ele>473.0</ele><time>2026-03-25T11:14:24Z</time></trkpt><trkpt lat="43.175059504555996" lon="11.692239957270875"><ele>470.75</ele><time>2026-03-25T11:14:27Z</time></trkpt><trkpt lat="43.17487331031246" lon="11.69215740307136"><ele>468.5</ele><time>2026-03-25T11:14:28Z</time></trkpt><trkpt lat="43.174780496664404" lon="11.692156624751423"><ele>466.25</ele><time>2026-03-25T11:14:29Z</time></trkpt><trkpt lat="43.17468683008836" lon="11.692176327847392"><ele>464.0</ele><time>2026-03-25T11:14:30Z</time></trkpt><trkpt lat="43.17460071725974" lon="11.692201558006051"><ele>464.0</ele><time>2026-03-25T11:14:31Z</time></trkpt><trkpt lat="43.17451233554535" lon="11.692248547932396"><ele>464.0</ele><time>2026-03-25T11:14:32Z</time></trkpt><trkpt lat="43.1744057213463" lon="11.692313934703535"><ele>464.0</ele><time>2026-03-25T11:14:33Z</time></trkpt><trkpt lat="43.17427048551452" lon="11.692390171776578"><ele>464.0</ele><time>2026-03-25T11:14:34Z</time></trkpt><trkpt lat="43.17415514111095" lon="11.692463729419599"><ele>464.0</ele><time>2026-03-25T11:14:35Z</time></trkpt><trkpt lat="43.174079425415954" lon="11.692506921687379"><ele>464.0</ele><time>2026-03-25T11:14:36Z</time></trkpt><trkpt lat="43.1740132707114" lon="11.692545813495968"><ele>464.0</ele><time>2026-03-25T11:14:38Z</time></trkpt><trkpt lat="43.17393111255512" lon="11.692589616688029"><ele>464.0</ele><time>2026-03-25T11:14:42Z</time></trkpt><trkpt lat="43.17400301453566" lon="11.692589479684592"><ele>464.0</ele><time>2026-03-25T11:14:57Z</time></trkpt><trkpt lat="43.17413095224402" lon="11.692502295936102"><ele>464.0</ele><time>2026-03-25T11:14:58Z</time></trkpt><trkpt lat="43.17426834208463" lon="11.692421387178703"><ele>464.0</ele><time>2026-03-25T11:14:59Z</time></trkpt><trkpt lat="43.17438298077258" lon="11.692354294927458"><ele>464.0</ele><time>2026-03-25T11:15:00Z</time></trkpt><trkpt lat="43.17447906003474" lon="11.692298938318586"><ele>464.0</ele><time>2026-03-25T11:15:01Z</time></trkpt><trkpt lat="43.17457120301424" lon="11.692254620401817"><ele>463.99999999999994</ele><time>2026-03-25T11:15:02Z</time></trkpt><trkpt lat="43.17465279023211" lon="11.692222870856716"><ele>464.0</ele><time>2026-03-25T11:15:03Z</time></trkpt><trkpt lat="43.17472970908506" lon="11.69220031291277"><ele>464.0</ele><time>2026-03-25T11:15:04Z</time></trkpt><trkpt lat="43.174793367060396" lon="11.692183784329119"><ele>464.0</ele><time>2026-03-25T11:15:05Z</time></trkpt><trkpt lat="43.1749040677991" lon="11.692173253249758"><ele>463.99999999999994</ele><time>2026-03-25T11:15:07Z</time></trkpt><trkpt lat="43.17498742603075" lon="11.6921856561941"><ele>464.0</ele><time>2026-03-25T11:15:09Z</time></trkpt><trkpt lat="43.1750467572039" lon="11.692217542663096"><ele>464.0</ele><time>2026-03-25T11:15:18Z</time></trkpt><trkpt lat="43.17498306980117" lon="11.692164102529711"><ele>464.0</ele><time>2026-03-25T11:15:22Z</time></trkpt><trkpt lat="43.174764930162475" lon="11.692171302113382"><ele>464.0</ele><time>2026-03-25T11:15:24Z</time></trkpt><trkpt lat="43.17464623359924" lon="11.692202918299063"><ele>464.0</ele><time>2026-03-25T11:15:25Z</time></trkpt><trkpt lat="43.17450492095444" lon="11.692258778546645"><ele>464.0</ele><time>2026-03-25T11:15:26Z</time></trkpt><trkpt lat="43.1743731937396" lon="11.692332603161606"><ele>464.0</ele><time>2026-03-25T11:15:27Z</time></trkpt><trkpt lat="43.17424717290251" lon="11.692410905657638"><ele>464.0</ele><time>2026-03-25T11:15:28Z</time></trkpt><trkpt lat="43.17414509997012" lon="11.692466961237939"><ele>464.0</ele><time>2026-03-25T11:15:29Z</time></trkpt><trkpt lat="43.174057403821244" lon="11.69251722363618"><ele>464.8571428571429</ele><time>2026-03-25T11:15:30Z</time></trkpt><trkpt lat="43.173988674325194" lon="11.692566986790544"><ele>465.7142857142857</ele><time>2026-03-25T11:15:31Z</time></trkpt><trkpt lat="43.173940569790176" lon="11.692630688436466"><ele>466.57142857142856</ele><time>2026-03-25T11:15:32Z</time></trkpt><trkpt lat="43.173907073844546" lon="11.692713556707318"><ele>467.42857142857144</ele><time>2026-03-25T11:15:33Z</time></trkpt><trkpt lat="43.173885170575865" lon="11.692810412714332"><ele>468.2857142857142</ele><time>2026-03-25T11:15:34Z</time></trkpt><trkpt lat="43.17388594808477" lon="11.692904695252953"><ele>469.1428571428571</ele><time>2026-03-25T11:15:35Z</time></trkpt><trkpt lat="43.17389608820493" lon="11.69301389328676"><ele>470.0</ele><time>2026-03-25T11:15:36Z</time></trkpt><trkpt lat="43.17391847337101" lon="11.693123991960386"><ele>469.99999999999994</ele><time>2026-03-25T11:15:37Z</time></trkpt><trkpt lat="43.17394672356663" lon="11.693239617496346"><ele>470.0</ele><time>2026-03-25T11:15:38Z</time></trkpt><trkpt lat="43.173983321755905" lon="11.693367113475912"><ele>470.0</ele><time>2026-03-25T11:15:39Z</time></trkpt><trkpt lat="43.174014504778995" lon="11.693487343306984"><ele>470.0</ele><time>2026-03-25T11:15:40Z</time></trkpt><trkpt lat="43.17403082781581" lon="11.693599735887107"><ele>469.99999999999994</ele><time>2026-03-25T11:15:41Z</time></trkpt><trkpt lat="43.17403724748871" lon="11.693709996851444"><ele>470.0</ele><time>2026-03-25T11:15:42Z</time></trkpt><trkpt lat="43.17403479491768" lon="11.693819541590125"><ele>469.49999999999994</ele><time>2026-03-25T11:15:43Z</time></trkpt><trkpt lat="43.17402413618331" lon="11.693927316644968"><ele>469.0</ele><time>2026-03-25T11:15:44Z</time></trkpt><trkpt lat="43.17400898110676" lon="11.694036125659625"><ele>468.5</ele><time>2026-03-25T11:15:45Z</time></trkpt><trkpt lat="43.17398847416491" lon="11.694136618702048"><ele>468.0</ele><time>2026-03-25T11:15:46Z</time></trkpt><trkpt lat="43.173968751211035" lon="11.694233533972543"><ele>467.49999999999994</ele><time>2026-03-25T11:15:47Z</time></trkpt><trkpt lat="43.173947373839134" lon="11.694330219595502"><ele>467.0</ele><time>2026-03-25T11:15:48Z</time></trkpt><trkpt lat="43.17392182971873" lon="11.694436519841947"><ele>465.8</ele><time>2026-03-25T11:15:49Z</time></trkpt><trkpt lat="43.17389143355191" lon="11.694565694912425"><ele>464.6</ele><time>2026-03-25T11:15:50Z</time></trkpt><trkpt lat="43.17386405840454" lon="11.694716100620864"><ele>463.40000000000003</ele><time>2026-03-25T11:15:51Z</time></trkpt><trkpt lat="43.173845369824456" lon="11.694872587966106"><ele>462.20000000000005</ele><time>2026-03-25T11:15:52Z</time></trkpt><trkpt lat="43.17382895203219" lon="11.695032209399605"><ele>461.0</ele><time>2026-03-25T11:15:53Z</time></trkpt><trkpt lat="43.17381137999532" lon="11.695178527287437"><ele>459.0</ele><time>2026-03-25T11:15:54Z</time></trkpt><trkpt lat="43.1738087013004" lon="11.695326035432469"><ele>457.0</ele><time>2026-03-25T11:15:55Z</time></trkpt><trkpt lat="43.17380980819451" lon="11.695479482404679"><ele>455.0</ele><time>2026-03-25T11:15:56.001Z</time></trkpt><trkpt lat="43.17393027443226" lon="11.695656562346809"><ele>453.0</ele><time>2026-03-25T11:15:57.001Z</time></trkpt><trkpt lat="43.17392079044882" lon="11.69579573872274"><ele>453.0</ele><time>2026-03-25T11:15:58.001Z</time></trkpt><trkpt lat="43.173925748170035" lon="11.69594517463355"><ele>452.99999999999994</ele><time>2026-03-25T11:15:59.001Z</time></trkpt><trkpt lat="43.17393572097229" lon="11.696089603155073"><ele>452.99999999999994</ele><time>2026-03-25T11:16:00.001Z</time></trkpt><trkpt lat="43.173946582686895" lon="11.69622395010302"><ele>453.0</ele><time>2026-03-25T11:16:01.001Z</time></trkpt><trkpt lat="43.173956078389466" lon="11.696341401109736"><ele>453.0</ele><time>2026-03-25T11:16:02Z</time></trkpt><trkpt lat="43.17396437434751" lon="11.696458182363997"><ele>451.5</ele><time>2026-03-25T11:16:03Z</time></trkpt><trkpt lat="43.173972523003094" lon="11.69657305363488"><ele>450.0</ele><time>2026-03-25T11:16:04Z</time></trkpt><trkpt lat="43.173980560991915" lon="11.6966770140886"><ele>448.5</ele><time>2026-03-25T11:16:05Z</time></trkpt><trkpt lat="43.17399607052501" lon="11.696785867868416"><ele>447.0</ele><time>2026-03-25T11:16:06Z</time></trkpt><trkpt lat="43.174008017524024" lon="11.696888264851003"><ele>445.5</ele><time>2026-03-25T11:16:07Z</time></trkpt><trkpt lat="43.174017590831006" lon="11.69700519783961"><ele>444.0</ele><time>2026-03-25T11:16:08Z</time></trkpt><trkpt lat="43.1740250780579" lon="11.697126485662212"><ele>443.6666666666667</ele><time>2026-03-25T11:16:09Z</time></trkpt><trkpt lat="43.17402839784771" lon="11.697248216367546"><ele>443.33333333333337</ele><time>2026-03-25T11:16:10Z</time></trkpt><trkpt lat="43.17402769512971" lon="11.697356343417646"><ele>443.0</ele><time>2026-03-25T11:16:11Z</time></trkpt><trkpt lat="43.174026158540016" lon="11.697461082229033"><ele>442.6666666666667</ele><time>2026-03-25T11:16:12Z</time></trkpt><trkpt lat="43.17402456169409" lon="11.697569928321842"><ele>442.33333333333337</ele><time>2026-03-25T11:16:13Z</time></trkpt><trkpt lat="43.17400724236816" lon="11.697683005797865"><ele>442.0</ele><time>2026-03-25T11:16:14Z</time></trkpt><trkpt lat="43.17404026455563" lon="11.69780230164439"><ele>442.0</ele><time>2026-03-25T11:16:15Z</time></trkpt><trkpt lat="43.17408252782313" lon="11.69792862713071"><ele>442.0</ele><time>2026-03-25T11:16:16Z</time></trkpt><trkpt lat="43.17412066695548" lon="11.698081418802255"><ele>442.0</ele><time>2026-03-25T11:16:17Z</time></trkpt><trkpt lat="43.17418893474769" lon="11.698242865777045"><ele>442.0</ele><time>2026-03-25T11:16:18Z</time></trkpt><trkpt lat="43.174279605706566" lon="11.698396467892488"><ele>442.0</ele><time>2026-03-25T11:16:19Z</time></trkpt><trkpt lat="43.17434810611816" lon="11.698543229814712"><ele>442.00000000000006</ele><time>2026-03-25T11:16:20Z</time></trkpt><trkpt lat="43.17438778102445" lon="11.698683985812263"><ele>442.00000000000006</ele><time>2026-03-25T11:16:21Z</time></trkpt><trkpt lat="43.17445164917106" lon="11.698761894642496"><ele>442.0</ele><time>2026-03-25T11:16:22Z</time></trkpt><trkpt lat="43.1744978919139" lon="11.698825934568754"><ele>442.0</ele><time>2026-03-25T11:16:23Z</time></trkpt><trkpt lat="43.17456148633858" lon="11.698883549778174"><ele>443.0</ele><time>2026-03-25T11:16:24Z</time></trkpt><trkpt lat="43.174642657126874" lon="11.698962642088867"><ele>444.0</ele><time>2026-03-25T11:16:25Z</time></trkpt><trkpt lat="43.174737633711636" lon="11.699059076481637"><ele>445.0</ele><time>2026-03-25T11:16:26Z</time></trkpt><trkpt lat="43.17483276451558" lon="11.699156144863569"><ele>446.0</ele><time>2026-03-25T11:16:27Z</time></trkpt><trkpt lat="43.17492877331924" lon="11.699255515813965"><ele>443.75</ele><time>2026-03-25T11:16:28Z</time></trkpt><trkpt lat="43.17502326588315" lon="11.699343857830222"><ele>441.5</ele><time>2026-03-25T11:16:29Z</time></trkpt><trkpt lat="43.1751247353891" lon="11.699434665745285"><ele>439.25</ele><time>2026-03-25T11:16:30Z</time></trkpt><trkpt lat="43.17522551777497" lon="11.699521013922226"><ele>437.0</ele><time>2026-03-25T11:16:31Z</time></trkpt><trkpt lat="43.17531461152266" lon="11.699607448312841"><ele>436.5</ele><time>2026-03-25T11:16:32Z</time></trkpt><trkpt lat="43.175416608597" lon="11.699699452026644"><ele>436.0</ele><time>2026-03-25T11:16:33Z</time></trkpt><trkpt lat="43.17553454898676" lon="11.699806013344261"><ele>435.5</ele><time>2026-03-25T11:16:34Z</time></trkpt><trkpt lat="43.1756298311541" lon="11.699893171162289"><ele>435.0</ele><time>2026-03-25T11:16:35Z</time></trkpt><trkpt lat="43.17571255350563" lon="11.699975305067905"><ele>434.4</ele><time>2026-03-25T11:16:36Z</time></trkpt><trkpt lat="43.17578984449291" lon="11.700068911291734"><ele>433.8</ele><time>2026-03-25T11:16:37Z</time></trkpt><trkpt lat="43.17585229712947" lon="11.700173201889742"><ele>433.20000000000005</ele><time>2026-03-25T11:16:38Z</time></trkpt><trkpt lat="43.175906345208546" lon="11.7002853109397"><ele>432.6</ele><time>2026-03-25T11:16:39Z</time></trkpt><trkpt lat="43.17594421804897" lon="11.70042682173971"><ele>432.0</ele><time>2026-03-25T11:16:40Z</time></trkpt><trkpt lat="43.1760158074758" lon="11.70054893266446"><ele>431.75</ele><time>2026-03-25T11:16:41Z</time></trkpt><trkpt lat="43.17607840547862" lon="11.700693928797113"><ele>431.5</ele><time>2026-03-25T11:16:42Z</time></trkpt><trkpt lat="43.17614085986585" lon="11.700854934909763"><ele>431.25</ele><time>2026-03-25T11:16:43Z</time></trkpt><trkpt lat="43.1762069567298" lon="11.700994586044589"><ele>431.0</ele><time>2026-03-25T11:16:44Z</time></trkpt><trkpt lat="43.17627060810639" lon="11.701102276965777"><ele>430.6</ele><time>2026-03-25T11:16:45Z</time></trkpt><trkpt lat="43.176324565309905" lon="11.701198452388544"><ele>430.20000000000005</ele><time>2026-03-25T11:16:46Z</time></trkpt><trkpt lat="43.17637094680995" lon="11.701283275617316"><ele>429.79999999999995</ele><time>2026-03-25T11:16:47Z</time></trkpt><trkpt lat="43.17642493700277" lon="11.701378089619277"><ele>429.4</ele><time>2026-03-25T11:16:48Z</time></trkpt><trkpt lat="43.17649457635996" lon="11.701480387188742"><ele>429.0</ele><time>2026-03-25T11:16:49Z</time></trkpt><trkpt lat="43.17658220439201" lon="11.701578921524211"><ele>429.0</ele><time>2026-03-25T11:16:50Z</time></trkpt><trkpt lat="43.17666388527105" lon="11.701665597407262"><ele>429.0</ele><time>2026-03-25T11:16:51Z</time></trkpt><trkpt lat="43.176737667830196" lon="11.701749444888879"><ele>429.0</ele><time>2026-03-25T11:16:52Z</time></trkpt><trkpt lat="43.17680776356039" lon="11.701842491262674"><ele>429.0</ele><time>2026-03-25T11:16:53Z</time></trkpt><trkpt lat="43.17687383516298" lon="11.701936675587923"><ele>429.0</ele><time>2026-03-25T11:16:54Z</time></trkpt><trkpt lat="43.17694934212122" lon="11.70205012068426"><ele>429.4</ele><time>2026-03-25T11:16:55Z</time></trkpt><trkpt lat="43.17701549036484" lon="11.702178780257084"><ele>429.79999999999995</ele><time>2026-03-25T11:16:56Z</time></trkpt><trkpt lat="43.177077214171206" lon="11.702310733513679"><ele>430.20000000000005</ele><time>2026-03-25T11:16:57Z</time></trkpt><trkpt lat="43.17713390186844" lon="11.70243110652965"><ele>430.6</ele><time>2026-03-25T11:16:58Z</time></trkpt><trkpt lat="43.1771959441955" lon="11.702548618737644"><ele>431.0</ele><time>2026-03-25T11:16:59Z</time></trkpt><trkpt lat="43.17726300358975" lon="11.702660659483428"><ele>430.0</ele><time>2026-03-25T11:17:00Z</time></trkpt><trkpt lat="43.177321348024286" lon="11.702761522014121"><ele>429.0</ele><time>2026-03-25T11:17:01Z</time></trkpt><trkpt lat="43.177376045179" lon="11.702870755447748"><ele>428.0</ele><time>2026-03-25T11:17:02Z</time></trkpt><trkpt lat="43.17742974182297" lon="11.702992711102553"><ele>427.0</ele><time>2026-03-25T11:17:03Z</time></trkpt><trkpt lat="43.17748328397083" lon="11.703107216084074"><ele>426.0</ele><time>2026-03-25T11:17:04Z</time></trkpt><trkpt lat="43.17753499403536" lon="11.70320713753249"><ele>424.1666666666667</ele><time>2026-03-25T11:17:05Z</time></trkpt><trkpt lat="43.177593765135754" lon="11.703292051329074"><ele>422.33333333333337</ele><time>2026-03-25T11:17:06Z</time></trkpt><trkpt lat="43.17765651449168" lon="11.703364725356304"><ele>420.5</ele><time>2026-03-25T11:17:07Z</time></trkpt><trkpt lat="43.177708277461456" lon="11.703414329711993"><ele>418.6666666666667</ele><time>2026-03-25T11:17:08Z</time></trkpt><trkpt lat="43.17780582635363" lon="11.703515232157159"><ele>416.83333333333337</ele><time>2026-03-25T11:17:10Z</time></trkpt><trkpt lat="43.17786272276308" lon="11.703555847618274"><ele>415.0</ele><time>2026-03-25T11:17:11Z</time></trkpt><trkpt lat="43.17792269760364" lon="11.703589094287256"><ele>413.33333333333337</ele><time>2026-03-25T11:17:12Z</time></trkpt><trkpt lat="43.17798682329161" lon="11.703622666489673"><ele>411.6666666666667</ele><time>2026-03-25T11:17:13Z</time></trkpt><trkpt lat="43.1780569579743" lon="11.703668613574914"><ele>410.0</ele><time>2026-03-25T11:17:14Z</time></trkpt><trkpt lat="43.17813210409595" lon="11.703712411654886"><ele>408.33333333333337</ele><time>2026-03-25T11:17:15Z</time></trkpt><trkpt lat="43.17820407920909" lon="11.7037612268713"><ele>406.6666666666667</ele><time>2026-03-25T11:17:16Z</time></trkpt><trkpt lat="43.17827590267783" lon="11.703815682023361"><ele>405.0</ele><time>2026-03-25T11:17:17Z</time></trkpt><trkpt lat="43.17834854536964" lon="11.70386458901133"><ele>403.0</ele><time>2026-03-25T11:17:18Z</time></trkpt><trkpt lat="43.17845035183981" lon="11.703902603746704"><ele>401.0</ele><time>2026-03-25T11:17:20Z</time></trkpt><trkpt lat="43.17855099302299" lon="11.703862502040925"><ele>399.0</ele><time>2026-03-25T11:17:22Z</time></trkpt><trkpt lat="43.17861684642728" lon="11.703824233003195"><ele>397.0</ele><time>2026-03-25T11:17:23Z</time></trkpt><trkpt lat="43.17868995530619" lon="11.70377106029673"><ele>395.0</ele><time>2026-03-25T11:17:24Z</time></trkpt><trkpt lat="43.1787571949322" lon="11.703729559578862"><ele>393.0</ele><time>2026-03-25T11:17:25Z</time></trkpt><trkpt lat="43.178823797846135" lon="11.703720013094674"><ele>393.0</ele><time>2026-03-25T11:17:26Z</time></trkpt><trkpt lat="43.17893481739587" lon="11.703801334678268"><ele>393.0</ele><time>2026-03-25T11:17:28Z</time></trkpt><trkpt lat="43.17896424687986" lon="11.70389749729727"><ele>393.0</ele><time>2026-03-25T11:17:29Z</time></trkpt><trkpt lat="43.179001214328856" lon="11.703999292648188"><ele>393.0</ele><time>2026-03-25T11:17:30Z</time></trkpt><trkpt lat="43.179047002243415" lon="11.70409489795025"><ele>393.0</ele><time>2026-03-25T11:17:31Z</time></trkpt><trkpt lat="43.17908509997478" lon="11.704225795650236"><ele>393.3333333333333</ele><time>2026-03-25T11:17:32Z</time></trkpt><trkpt lat="43.17912981718637" lon="11.704346901922136"><ele>393.66666666666663</ele><time>2026-03-25T11:17:33Z</time></trkpt><trkpt lat="43.1791742713624" lon="11.704453292778014"><ele>394.0</ele><time>2026-03-25T11:17:34Z</time></trkpt><trkpt lat="43.17922352292977" lon="11.704538042814052"><ele>394.3333333333333</ele><time>2026-03-25T11:17:35Z</time></trkpt><trkpt lat="43.1792759872121" lon="11.704602302445364"><ele>394.66666666666663</ele><time>2026-03-25T11:17:36Z</time></trkpt><trkpt lat="43.179347434179036" lon="11.704649103669166"><ele>395.0</ele><time>2026-03-25T11:17:37Z</time></trkpt><trkpt lat="43.17942327577423" lon="11.704683229744532"><ele>392.8</ele><time>2026-03-25T11:17:38Z</time></trkpt><trkpt lat="43.179498453147716" lon="11.704684711289172"><ele>390.6</ele><time>2026-03-25T11:17:39Z</time></trkpt><trkpt lat="43.17956650085695" lon="11.704671828811302"><ele>388.4</ele><time>2026-03-25T11:17:40Z</time></trkpt><trkpt lat="43.17968244358948" lon="11.704603137004977"><ele>386.2</ele><time>2026-03-25T11:17:42Z</time></trkpt><trkpt lat="43.17975924869424" lon="11.704531690895532"><ele>384.0</ele><time>2026-03-25T11:17:43Z</time></trkpt><trkpt lat="43.179840038336096" lon="11.70446067582186"><ele>387.0</ele><time>2026-03-25T11:17:44Z</time></trkpt><trkpt lat="43.17990650146562" lon="11.704401435615003"><ele>390.0</ele><time>2026-03-25T11:17:45Z</time></trkpt><trkpt lat="43.17996984550379" lon="11.704357033787385"><ele>393.0</ele><time>2026-03-25T11:17:46Z</time></trkpt><trkpt lat="43.180038007025026" lon="11.704311728720764"><ele>396.0</ele><time>2026-03-25T11:17:47Z</time></trkpt><trkpt lat="43.18011065259" lon="11.704260067949143"><ele>399.0</ele><time>2026-03-25T11:17:48Z</time></trkpt><trkpt lat="43.180172156724595" lon="11.704231613751283"><ele>402.0</ele><time>2026-03-25T11:17:49Z</time></trkpt><trkpt lat="43.180272143379746" lon="11.704359017354244"><ele>400.20000000000005</ele><time>2026-03-25T11:17:51Z</time></trkpt><trkpt lat="43.180348843188476" lon="11.704429613000594"><ele>398.4</ele><time>2026-03-25T11:17:52Z</time></trkpt><trkpt lat="43.180447844646814" lon="11.704559423045772"><ele>396.6</ele><time>2026-03-25T11:17:53Z</time></trkpt><trkpt lat="43.18052024997196" lon="11.704645886856031"><ele>394.79999999999995</ele><time>2026-03-25T11:17:54Z</time></trkpt><trkpt lat="43.18057929222633" lon="11.704738626986664"><ele>393.0</ele><time>2026-03-25T11:17:55Z</time></trkpt><trkpt lat="43.18060903439076" lon="11.704865379862238"><ele>393.0</ele><time>2026-03-25T11:17:55.999Z</time></trkpt><trkpt lat="43.18065911279633" lon="11.70502558512623"><ele>393.0</ele><time>2026-03-25T11:17:56.999Z</time></trkpt><trkpt lat="43.180738188131045" lon="11.705161158912427"><ele>393.0</ele><time>2026-03-25T11:17:57.999Z</time></trkpt><trkpt lat="43.18079204093141" lon="11.705286178812875"><ele>393.0</ele><time>2026-03-25T11:17:58.999Z</time></trkpt><trkpt lat="43.180862172976674" lon="11.705388390311976"><ele>395.25</ele><time>2026-03-25T11:17:59.999Z</time></trkpt><trkpt lat="43.18095691192057" lon="11.705489177584179"><ele>397.5</ele><time>2026-03-25T11:18:00.999Z</time></trkpt><trkpt lat="43.18107215976277" lon="11.705609461590203"><ele>399.75</ele><time>2026-03-25T11:18:02.001Z</time></trkpt><trkpt lat="43.18119365421357" lon="11.705742476312686"><ele>402.0</ele><time>2026-03-25T11:18:03.001Z</time></trkpt><trkpt lat="43.18131262432426" lon="11.705872138019394"><ele>402.0</ele><time>2026-03-25T11:18:04Z</time></trkpt><trkpt lat="43.18142972723886" lon="11.705997868189911"><ele>402.0</ele><time>2026-03-25T11:18:05Z</time></trkpt><trkpt lat="43.18154463224917" lon="11.706111857070928"><ele>402.0</ele><time>2026-03-25T11:18:06Z</time></trkpt><trkpt lat="43.1816317344742" lon="11.706195605291219"><ele>402.0</ele><time>2026-03-25T11:18:07Z</time></trkpt><trkpt lat="43.18173619272921" lon="11.70628213725767"><ele>404.20000000000005</ele><time>2026-03-25T11:18:08Z</time></trkpt><trkpt lat="43.18182840709651" lon="11.706376211041691"><ele>406.4</ele><time>2026-03-25T11:18:09Z</time></trkpt><trkpt lat="43.18190179011759" lon="11.706464136871688"><ele>408.6</ele><time>2026-03-25T11:18:10Z</time></trkpt><trkpt lat="43.181975253585165" lon="11.706571880621176"><ele>410.79999999999995</ele><time>2026-03-25T11:18:11Z</time></trkpt><trkpt lat="43.182049039464715" lon="11.706700303861956"><ele>413.0</ele><time>2026-03-25T11:18:12Z</time></trkpt><trkpt lat="43.18212007583481" lon="11.706832177581001"><ele>413.0</ele><time>2026-03-25T11:18:13Z</time></trkpt><trkpt lat="43.18219267641837" lon="11.706931546916858"><ele>413.0</ele><time>2026-03-25T11:18:14Z</time></trkpt><trkpt lat="43.182249755336876" lon="11.707042584305626"><ele>413.0</ele><time>2026-03-25T11:18:15Z</time></trkpt><trkpt lat="43.182334241540794" lon="11.70716810749626"><ele>413.0</ele><time>2026-03-25T11:18:16Z</time></trkpt><trkpt lat="43.182426954216936" lon="11.70729739975865"><ele>412.66666666666663</ele><time>2026-03-25T11:18:17Z</time></trkpt><trkpt lat="43.182489112982694" lon="11.70741459854384"><ele>412.3333333333333</ele><time>2026-03-25T11:18:18Z</time></trkpt><trkpt lat="43.18253692259655" lon="11.707500663525295"><ele>412.0</ele><time>2026-03-25T11:18:19Z</time></trkpt><trkpt lat="43.18257760408175" lon="11.707589110865728"><ele>411.66666666666663</ele><time>2026-03-25T11:18:20Z</time></trkpt><trkpt lat="43.18259833887733" lon="11.707690266755769"><ele>411.3333333333333</ele><time>2026-03-25T11:18:21Z</time></trkpt><trkpt lat="43.18261870705196" lon="11.707827220023505"><ele>411.0</ele><time>2026-03-25T11:18:22Z</time></trkpt><trkpt lat="43.182649241781476" lon="11.707999839951245"><ele>411.0</ele><time>2026-03-25T11:18:23Z</time></trkpt><trkpt lat="43.182691024517936" lon="11.708155288046317"><ele>411.0</ele><time>2026-03-25T11:18:24Z</time></trkpt><trkpt lat="43.18269859352476" lon="11.708299268352178"><ele>411.0</ele><time>2026-03-25T11:18:25Z</time></trkpt><trkpt lat="43.18272019457064" lon="11.708418886686395"><ele>411.0</ele><time>2026-03-25T11:18:26Z</time></trkpt><trkpt lat="43.182757603681225" lon="11.70851799867322"><ele>411.0</ele><time>2026-03-25T11:18:27Z</time></trkpt><trkpt lat="43.1827764064115" lon="11.708608421543714"><ele>409.1666666666667</ele><time>2026-03-25T11:18:28Z</time></trkpt><trkpt lat="43.18284240010565" lon="11.708732352327036"><ele>407.33333333333337</ele><time>2026-03-25T11:18:30Z</time></trkpt><trkpt lat="43.18290143545002" lon="11.708787547610157"><ele>405.5</ele><time>2026-03-25T11:18:31Z</time></trkpt><trkpt lat="43.182970207103786" lon="11.708835278460551"><ele>403.6666666666667</ele><time>2026-03-25T11:18:32Z</time></trkpt><trkpt lat="43.18303045524292" lon="11.708877448408904"><ele>401.83333333333337</ele><time>2026-03-25T11:18:33Z</time></trkpt><trkpt lat="43.1830925158088" lon="11.708922448441882"><ele>400.0</ele><time>2026-03-25T11:18:34Z</time></trkpt><trkpt lat="43.18318041622816" lon="11.709029354821206"><ele>400.33333333333337</ele><time>2026-03-25T11:18:36Z</time></trkpt><trkpt lat="43.18321890349625" lon="11.709099670001764"><ele>400.6666666666667</ele><time>2026-03-25T11:18:37Z</time></trkpt><trkpt lat="43.18324768505399" lon="11.709178556768048"><ele>401.0</ele><time>2026-03-25T11:18:38Z</time></trkpt><trkpt lat="43.1833134475545" lon="11.709337278799058"><ele>401.33333333333337</ele><time>2026-03-25T11:18:40Z</time></trkpt><trkpt lat="43.18336101989756" lon="11.709403873733098"><ele>401.6666666666667</ele><time>2026-03-25T11:18:41Z</time></trkpt><trkpt lat="43.18339417872371" lon="11.709482270845303"><ele>402.0</ele><time>2026-03-25T11:18:42Z</time></trkpt><trkpt lat="43.18342174167732" lon="11.709568186978592"><ele>402.0</ele><time>2026-03-25T11:18:43Z</time></trkpt><trkpt lat="43.18347547046011" lon="11.709666096922637"><ele>402.0</ele><time>2026-03-25T11:18:45Z</time></trkpt><trkpt lat="43.183521150210595" lon="11.709754791139687"><ele>402.0</ele><time>2026-03-25T11:18:47Z</time></trkpt><trkpt lat="43.1835603695763" lon="11.70987065182885"><ele>402.0</ele><time>2026-03-25T11:18:49Z</time></trkpt><trkpt lat="43.18356518346143" lon="11.710001601084036"><ele>402.0</ele><time>2026-03-25T11:18:51Z</time></trkpt><trkpt lat="43.183528592282016" lon="11.710088485745292"><ele>402.0</ele><time>2026-03-25T11:18:53Z</time></trkpt><trkpt lat="43.18347809562712" lon="11.710178015662487"><ele>398.8</ele><time>2026-03-25T11:18:55Z</time></trkpt><trkpt lat="43.1833970026613" lon="11.710248406555726"><ele>395.6</ele><time>2026-03-25T11:18:57Z</time></trkpt><trkpt lat="43.18334947997175" lon="11.710310649208965"><ele>392.40000000000003</ele><time>2026-03-25T11:18:59Z</time></trkpt><trkpt lat="43.18329712676917" lon="11.710417749814228"><ele>389.20000000000005</ele><time>2026-03-25T11:19:02Z</time></trkpt><trkpt lat="43.18335104735156" lon="11.710518436427101"><ele>386.0</ele><time>2026-03-25T11:19:04Z</time></trkpt><trkpt lat="43.183458195081776" lon="11.710514191830452"><ele>385.99999999999994</ele><time>2026-03-25T11:19:06Z</time></trkpt><trkpt lat="43.18355270185949" lon="11.710468415635077"><ele>386.0</ele><time>2026-03-25T11:19:08Z</time></trkpt><trkpt lat="43.18361902368727" lon="11.710450886078256"><ele>386.0</ele><time>2026-03-25T11:19:10Z</time></trkpt><trkpt lat="43.183681301955296" lon="11.710426388467386"><ele>386.0</ele><time>2026-03-25T11:19:12Z</time></trkpt><trkpt lat="43.18376187123725" lon="11.710390269919834"><ele>385.99999999999994</ele><time>2026-03-25T11:19:15Z</time></trkpt><trkpt lat="43.183830332065874" lon="11.710372269955808"><ele>386.0</ele><time>2026-03-25T11:19:17Z</time></trkpt><trkpt lat="43.18390147894116" lon="11.710351261389686"><ele>385.99999999999994</ele><time>2026-03-25T11:19:19Z</time></trkpt><trkpt lat="43.18400982035893" lon="11.710327992636737"><ele>386.0</ele><time>2026-03-25T11:19:21Z</time></trkpt><trkpt lat="43.18409253143647" lon="11.710318156423565"><ele>386.0</ele><time>2026-03-25T11:19:23Z</time></trkpt><trkpt lat="43.184163329834846" lon="11.710311529476385"><ele>386.0</ele><time>2026-03-25T11:19:25Z</time></trkpt><trkpt lat="43.184252376272475" lon="11.710298412443285"><ele>385.99999999999994</ele><time>2026-03-25T11:19:28Z</time></trkpt><trkpt lat="43.18433269621252" lon="11.710289478698884"><ele>386.0</ele><time>2026-03-25T11:19:30Z</time></trkpt><trkpt lat="43.18440715160334" lon="11.710246512496242"><ele>386.3333333333333</ele><time>2026-03-25T11:19:31.999Z</time></trkpt><trkpt lat="43.18447056252562" lon="11.710192396222457"><ele>386.66666666666663</ele><time>2026-03-25T11:19:33.999Z</time></trkpt><trkpt lat="43.184543814087014" lon="11.710153422274523"><ele>387.0</ele><time>2026-03-25T11:19:35.999Z</time></trkpt><trkpt lat="43.18459994849634" lon="11.710095991833118"><ele>387.33333333333337</ele><time>2026-03-25T11:19:37.999Z</time></trkpt><trkpt lat="43.18466519865778" lon="11.710067580023878"><ele>387.6666666666667</ele><time>2026-03-25T11:19:39.999Z</time></trkpt><trkpt lat="43.18475098469907" lon="11.710080453947734"><ele>388.0</ele><time>2026-03-25T11:19:41.999Z</time></trkpt><trkpt lat="43.18484697095927" lon="11.710073896464696"><ele>383.59999999999997</ele><time>2026-03-25T11:19:43.999Z</time></trkpt><trkpt lat="43.184932566494965" lon="11.710100633257367"><ele>379.2</ele><time>2026-03-25T11:19:45.999Z</time></trkpt><trkpt lat="43.18500997757641" lon="11.710132874465554"><ele>374.8</ele><time>2026-03-25T11:19:48.999Z</time></trkpt><trkpt lat="43.185080317424195" lon="11.710163965578307"><ele>370.4</ele><time>2026-03-25T11:19:50.999Z</time></trkpt><trkpt lat="43.18518589251179" lon="11.71019395751353"><ele>366.0</ele><time>2026-03-25T11:19:52.999Z</time></trkpt><trkpt lat="43.1852945736472" lon="11.710237167138457"><ele>364.6</ele><time>2026-03-25T11:19:54.999Z</time></trkpt><trkpt lat="43.18541837085994" lon="11.710263359129348"><ele>363.20000000000005</ele><time>2026-03-25T11:19:56.999Z</time></trkpt><trkpt lat="43.185521363528665" lon="11.710283701512749"><ele>361.79999999999995</ele><time>2026-03-25T11:19:58.999Z</time></trkpt><trkpt lat="43.18559424544152" lon="11.710296673469195"><ele>360.4</ele><time>2026-03-25T11:20:00.999Z</time></trkpt><trkpt lat="43.185690354387795" lon="11.710307104652433"><ele>359.0</ele><time>2026-03-25T11:20:02.999Z</time></trkpt><trkpt lat="43.185802627865016" lon="11.710326894473384"><ele>357.4</ele><time>2026-03-25T11:20:04.999Z</time></trkpt><trkpt lat="43.185904261377715" lon="11.710358725630009"><ele>355.79999999999995</ele><time>2026-03-25T11:20:07Z</time></trkpt><trkpt lat="43.18599532799952" lon="11.710379043469032"><ele>354.20000000000005</ele><time>2026-03-25T11:20:09Z</time></trkpt><trkpt lat="43.18609108673623" lon="11.710425146550646"><ele>352.6</ele><time>2026-03-25T11:20:11Z</time></trkpt><trkpt lat="43.186193841177264" lon="11.710460914431016"><ele>351.0</ele><time>2026-03-25T11:20:13Z</time></trkpt><trkpt lat="43.186293373787336" lon="11.710481665364444"><ele>351.0</ele><time>2026-03-25T11:20:15Z</time></trkpt><trkpt lat="43.186403527667146" lon="11.710560275834599"><ele>351.0</ele><time>2026-03-25T11:20:17Z</time></trkpt><trkpt lat="43.18646681875554" lon="11.710617741917192"><ele>351.0</ele><time>2026-03-25T11:20:18Z</time></trkpt><trkpt lat="43.18652803254576" lon="11.710681742632651"><ele>351.0</ele><time>2026-03-25T11:20:19Z</time></trkpt><trkpt lat="43.18656447960103" lon="11.710754343807672"><ele>351.0</ele><time>2026-03-25T11:20:20Z</time></trkpt><trkpt lat="43.18663451419945" lon="11.710874741372537"><ele>351.00000000000006</ele><time>2026-03-25T11:20:22Z</time></trkpt><trkpt lat="43.18668179772338" lon="11.710937702076164"><ele>351.0</ele><time>2026-03-25T11:20:23Z</time></trkpt><trkpt lat="43.18671367083908" lon="11.711024316439989"><ele>351.0</ele><time>2026-03-25T11:20:24Z</time></trkpt><trkpt lat="43.18675106122926" lon="11.711103329433831"><ele>351.0</ele><time>2026-03-25T11:20:25Z</time></trkpt><trkpt lat="43.18678574527395" lon="11.711198047510681"><ele>351.0</ele><time>2026-03-25T11:20:26Z</time></trkpt><trkpt lat="43.186819053023406" lon="11.711283369625535"><ele>351.00000000000006</ele><time>2026-03-25T11:20:27Z</time></trkpt><trkpt lat="43.18684612123236" lon="11.711385288718965"><ele>351.0</ele><time>2026-03-25T11:20:28Z</time></trkpt><trkpt lat="43.186880165343894" lon="11.711490199592166"><ele>350.1666666666667</ele><time>2026-03-25T11:20:29Z</time></trkpt><trkpt lat="43.18692027538425" lon="11.711587593056414"><ele>349.3333333333333</ele><time>2026-03-25T11:20:30Z</time></trkpt><trkpt lat="43.18693766253539" lon="11.711697279004243"><ele>348.5</ele><time>2026-03-25T11:20:31Z</time></trkpt><trkpt lat="43.186970526306645" lon="11.71179870130534"><ele>347.66666666666663</ele><time>2026-03-25T11:20:32Z</time></trkpt><trkpt lat="43.18700517718491" lon="11.71191315434471"><ele>346.8333333333333</ele><time>2026-03-25T11:20:33Z</time></trkpt><trkpt lat="43.18703093394035" lon="11.712012845504912"><ele>346.0</ele><time>2026-03-25T11:20:34Z</time></trkpt><trkpt lat="43.18704764558827" lon="11.712097184524263"><ele>345.3333333333333</ele><time>2026-03-25T11:20:35Z</time></trkpt><trkpt lat="43.18706297926623" lon="11.71218134087206"><ele>344.66666666666663</ele><time>2026-03-25T11:20:36Z</time></trkpt><trkpt lat="43.18707858575173" lon="11.712337618180344"><ele>344.0</ele><time>2026-03-25T11:20:38Z</time></trkpt><trkpt lat="43.187073121760086" lon="11.712439080636349"><ele>343.3333333333333</ele><time>2026-03-25T11:20:41Z</time></trkpt><trkpt lat="43.1871170353099" lon="11.712504780821895"><ele>342.6666666666667</ele><time>2026-03-25T11:22:02.999Z</time></trkpt><trkpt lat="43.18708589079339" lon="11.712588586032966"><ele>342.0</ele><time>2026-03-25T11:22:21Z</time></trkpt><trkpt lat="43.18706999264738" lon="11.712682100915877"><ele>341.3333333333333</ele><time>2026-03-25T11:22:22Z</time></trkpt><trkpt lat="43.1870584192695" lon="11.712791947258424"><ele>340.6666666666667</ele><time>2026-03-25T11:22:23Z</time></trkpt><trkpt lat="43.18700055907331" lon="11.712892635307986"><ele>340.0</ele><time>2026-03-25T11:22:24Z</time></trkpt><trkpt lat="43.18698862950107" lon="11.713002086701117"><ele>339.33333333333337</ele><time>2026-03-25T11:22:25Z</time></trkpt><trkpt lat="43.186980326115076" lon="11.713104964512908"><ele>338.6666666666667</ele><time>2026-03-25T11:22:26Z</time></trkpt><trkpt lat="43.18697458606755" lon="11.7132078239214"><ele>338.0</ele><time>2026-03-25T11:22:27Z</time></trkpt><trkpt lat="43.18697294870404" lon="11.713300818686944"><ele>338.0</ele><time>2026-03-25T11:22:28Z</time></trkpt><trkpt lat="43.18698234137263" lon="11.713495595636278"><ele>338.0</ele><time>2026-03-25T11:22:30Z</time></trkpt><trkpt lat="43.18699694049405" lon="11.713602859634342"><ele>338.0</ele><time>2026-03-25T11:22:31Z</time></trkpt><trkpt lat="43.18701609539418" lon="11.713699848981772"><ele>338.0</ele><time>2026-03-25T11:22:32Z</time></trkpt><trkpt lat="43.187039414939186" lon="11.713793987228497"><ele>338.0</ele><time>2026-03-25T11:22:33Z</time></trkpt><trkpt lat="43.18706457136225" lon="11.713897337655387"><ele>338.0</ele><time>2026-03-25T11:22:34Z</time></trkpt><trkpt lat="43.18709141559453" lon="11.713983415798854"><ele>337.79999999999995</ele><time>2026-03-25T11:22:35Z</time></trkpt><trkpt lat="43.187134381635296" lon="11.714132224653525"><ele>337.6</ele><time>2026-03-25T11:22:37Z</time></trkpt><trkpt lat="43.18715042574562" lon="11.71427015427142"><ele>337.4</ele><time>2026-03-25T11:22:39Z</time></trkpt><trkpt lat="43.18715498714599" lon="11.714399987473913"><ele>337.20000000000005</ele><time>2026-03-25T11:22:42Z</time></trkpt><trkpt lat="43.187175736122775" lon="11.714532472238261"><ele>337.0</ele><time>2026-03-25T11:22:44Z</time></trkpt><trkpt lat="43.187197002894436" lon="11.714623623701872"><ele>336.40000000000003</ele><time>2026-03-25T11:22:45Z</time></trkpt><trkpt lat="43.18721785172393" lon="11.714712583710249"><ele>335.8</ele><time>2026-03-25T11:22:46Z</time></trkpt><trkpt lat="43.187241763445165" lon="11.714869116489728"><ele>335.2</ele><time>2026-03-25T11:22:48Z</time></trkpt><trkpt lat="43.187265635992745" lon="11.715042575517133"><ele>334.6</ele><time>2026-03-25T11:22:50Z</time></trkpt><trkpt lat="43.18730681327587" lon="11.715184745589307"><ele>334.0</ele><time>2026-03-25T11:22:52Z</time></trkpt><trkpt lat="43.18735234117249" lon="11.715286104819864"><ele>335.0</ele><time>2026-03-25T11:22:54Z</time></trkpt><trkpt lat="43.18738010831859" lon="11.71536367793505"><ele>336.0</ele><time>2026-03-25T11:22:55Z</time></trkpt><trkpt lat="43.18740784354184" lon="11.715447828426099"><ele>337.0</ele><time>2026-03-25T11:22:56Z</time></trkpt><trkpt lat="43.18743618637115" lon="11.715537287802118"><ele>338.0</ele><time>2026-03-25T11:22:57Z</time></trkpt><trkpt lat="43.187469973162735" lon="11.71562489186775"><ele>339.0</ele><time>2026-03-25T11:22:58Z</time></trkpt><trkpt lat="43.18754303592006" lon="11.715758618417643"><ele>340.0</ele><time>2026-03-25T11:23:00Z</time></trkpt><trkpt lat="43.18758274186447" lon="11.71588954704387"><ele>340.0</ele><time>2026-03-25T11:23:02Z</time></trkpt><trkpt lat="43.18764463861937" lon="11.716039775215739"><ele>340.0</ele><time>2026-03-25T11:23:04Z</time></trkpt><trkpt lat="43.187687478394594" lon="11.716141727715689"><ele>340.0</ele><time>2026-03-25T11:23:05Z</time></trkpt><trkpt lat="43.1877249049257" lon="11.716244251675601"><ele>340.0</ele><time>2026-03-25T11:23:06Z</time></trkpt><trkpt lat="43.18776519988077" lon="11.71631298783636"><ele>340.0</ele><time>2026-03-25T11:23:07Z</time></trkpt><trkpt lat="43.18785431894636" lon="11.716421644011543"><ele>339.66666666666663</ele><time>2026-03-25T11:23:08.999Z</time></trkpt><trkpt lat="43.18790754309861" lon="11.716553009953419"><ele>339.3333333333333</ele><time>2026-03-25T11:23:10.999Z</time></trkpt><trkpt lat="43.18797110366141" lon="11.716691254392307"><ele>339.0</ele><time>2026-03-25T11:23:12.999Z</time></trkpt><trkpt lat="43.18799719473894" lon="11.716779153980848"><ele>338.6666666666667</ele><time>2026-03-25T11:23:13.999Z</time></trkpt><trkpt lat="43.18802920373973" lon="11.716866945670235"><ele>338.33333333333337</ele><time>2026-03-25T11:23:14.999Z</time></trkpt><trkpt lat="43.188063897847904" lon="11.716941275414609"><ele>338.0</ele><time>2026-03-25T11:23:15.999Z</time></trkpt><trkpt lat="43.18815282239262" lon="11.717066772994809"><ele>338.59999999999997</ele><time>2026-03-25T11:23:17.999Z</time></trkpt><trkpt lat="43.18821743174088" lon="11.717113696809392"><ele>339.2</ele><time>2026-03-25T11:23:18.999Z</time></trkpt><trkpt lat="43.18828460532454" lon="11.717157929213498"><ele>339.8</ele><time>2026-03-25T11:23:19.999Z</time></trkpt><trkpt lat="43.188400900061154" lon="11.717210554206682"><ele>340.4</ele><time>2026-03-25T11:23:21.999Z</time></trkpt><trkpt lat="43.188502431205826" lon="11.717226233602243"><ele>341.0</ele><time>2026-03-25T11:23:23.999Z</time></trkpt><trkpt lat="43.188627571472416" lon="11.717277230898123"><ele>341.0</ele><time>2026-03-25T11:23:25.999Z</time></trkpt><trkpt lat="43.18868927761571" lon="11.71730453445"><ele>341.0</ele><time>2026-03-25T11:23:26.999Z</time></trkpt><trkpt lat="43.18882122770694" lon="11.717339811913368"><ele>341.0</ele><time>2026-03-25T11:23:28.999Z</time></trkpt><trkpt lat="43.18892663998625" lon="11.717418893632761"><ele>341.0</ele><time>2026-03-25T11:23:30.999Z</time></trkpt><trkpt lat="43.18898289408637" lon="11.717471347293248"><ele>341.0</ele><time>2026-03-25T11:23:31.999Z</time></trkpt><trkpt lat="43.189018534033195" lon="11.717561399364333"><ele>341.6666666666667</ele><time>2026-03-25T11:23:32.999Z</time></trkpt><trkpt lat="43.18906251321588" lon="11.71763692692234"><ele>342.33333333333337</ele><time>2026-03-25T11:23:33.999Z</time></trkpt><trkpt lat="43.18911138602876" lon="11.717722514565464"><ele>343.0</ele><time>2026-03-25T11:23:34.999Z</time></trkpt><trkpt lat="43.189171328624454" lon="11.717792887792399"><ele>343.6666666666667</ele><time>2026-03-25T11:23:35.999Z</time></trkpt><trkpt lat="43.18920449016369" lon="11.717894456285533"><ele>344.3333333333333</ele><time>2026-03-25T11:23:36.999Z</time></trkpt><trkpt lat="43.18924202532144" lon="11.71798079774996"><ele>345.0</ele><time>2026-03-25T11:23:37.999Z</time></trkpt><trkpt lat="43.189314291239654" lon="11.718067054862033"><ele>345.0</ele><time>2026-03-25T11:23:39.999Z</time></trkpt><trkpt lat="43.18938488924132" lon="11.718206708859167"><ele>345.0</ele><time>2026-03-25T11:23:41.999Z</time></trkpt><trkpt lat="43.18942884472596" lon="11.71827687308796"><ele>345.0</ele><time>2026-03-25T11:23:42.999Z</time></trkpt><trkpt lat="43.189471243353246" lon="11.71834455218023"><ele>345.0</ele><time>2026-03-25T11:23:43.999Z</time></trkpt><trkpt lat="43.18951754168074" lon="11.718424234963521"><ele>345.0</ele><time>2026-03-25T11:23:44.999Z</time></trkpt><trkpt lat="43.18955738967092" lon="11.718511342881374"><ele>345.0</ele><time>2026-03-25T11:23:45.999Z</time></trkpt><trkpt lat="43.189592543341035" lon="11.718602542617568"><ele>345.14285714285717</ele><time>2026-03-25T11:23:46.999Z</time></trkpt><trkpt lat="43.1896278776279" lon="11.718698172040133"><ele>345.2857142857143</ele><time>2026-03-25T11:23:47.999Z</time></trkpt><trkpt lat="43.18966720161271" lon="11.718795242695712"><ele>345.42857142857144</ele><time>2026-03-25T11:23:48.999Z</time></trkpt><trkpt lat="43.189714866307305" lon="11.718861211734355"><ele>345.57142857142856</ele><time>2026-03-25T11:23:49.999Z</time></trkpt><trkpt lat="43.18974085265672" lon="11.71894122582489"><ele>345.7142857142857</ele><time>2026-03-25T11:23:50.999Z</time></trkpt><trkpt lat="43.18978544276363" lon="11.719008198255748"><ele>345.85714285714283</ele><time>2026-03-25T11:23:51.999Z</time></trkpt><trkpt lat="43.18982688964906" lon="11.71907735123298"><ele>346.0</ele><time>2026-03-25T11:23:52.999Z</time></trkpt><trkpt lat="43.18988876610488" lon="11.719186625188499"><ele>343.8</ele><time>2026-03-25T11:23:54.999Z</time></trkpt><trkpt lat="43.189935373392025" lon="11.719299801264404"><ele>341.6</ele><time>2026-03-25T11:23:56.999Z</time></trkpt><trkpt lat="43.18993481576684" lon="11.719474367003588"><ele>339.4</ele><time>2026-03-25T11:23:58.999Z</time></trkpt><trkpt lat="43.189930470169564" lon="11.719617444271144"><ele>337.2</ele><time>2026-03-25T11:24:00.999Z</time></trkpt><trkpt lat="43.189914037965046" lon="11.719783962419521"><ele>335.0</ele><time>2026-03-25T11:24:02.999Z</time></trkpt><trkpt lat="43.18990564344105" lon="11.71986961446336"><ele>334.71428571428567</ele><time>2026-03-25T11:24:03.999Z</time></trkpt><trkpt lat="43.189908981630246" lon="11.719962954178623"><ele>334.42857142857144</ele><time>2026-03-25T11:24:04.999Z</time></trkpt><trkpt lat="43.18989619065356" lon="11.720049393568049"><ele>334.1428571428571</ele><time>2026-03-25T11:24:05.999Z</time></trkpt><trkpt lat="43.18987792104623" lon="11.720134439444726"><ele>333.85714285714283</ele><time>2026-03-25T11:24:06.999Z</time></trkpt><trkpt lat="43.18988484558215" lon="11.72023261201258"><ele>333.57142857142856</ele><time>2026-03-25T11:24:07.999Z</time></trkpt><trkpt lat="43.189863083200706" lon="11.720329044575074"><ele>333.2857142857143</ele><time>2026-03-25T11:24:08.999Z</time></trkpt><trkpt lat="43.18986777943494" lon="11.720431995820213"><ele>333.0</ele><time>2026-03-25T11:24:09.999Z</time></trkpt><trkpt lat="43.189855786207396" lon="11.720537210464062"><ele>333.0</ele><time>2026-03-25T11:24:10.999Z</time></trkpt><trkpt lat="43.18985593922396" lon="11.720700691245892"><ele>333.0</ele><time>2026-03-25T11:24:12.999Z</time></trkpt><trkpt lat="43.18987636184055" lon="11.720786611051057"><ele>333.0</ele><time>2026-03-25T11:24:13.999Z</time></trkpt><trkpt lat="43.189884782285695" lon="11.720886218426118"><ele>333.0</ele><time>2026-03-25T11:24:15.999Z</time></trkpt><trkpt lat="43.18990927569679" lon="11.721042980284036"><ele>333.0</ele><time>2026-03-25T11:24:17.999Z</time></trkpt><trkpt lat="43.18992980030689" lon="11.721150602269596"><ele>333.2</ele><time>2026-03-25T11:24:19.999Z</time></trkpt><trkpt lat="43.189962171366986" lon="11.721253235164943"><ele>333.4</ele><time>2026-03-25T11:24:22.999Z</time></trkpt><trkpt lat="43.18999649923573" lon="11.72132948094775"><ele>333.59999999999997</ele><time>2026-03-25T11:24:25Z</time></trkpt><trkpt lat="43.19004929510651" lon="11.72143550216134"><ele>333.79999999999995</ele><time>2026-03-25T11:24:28Z</time></trkpt><trkpt lat="43.19013598939771" lon="11.721503456096826"><ele>334.0</ele><time>2026-03-25T11:24:30Z</time></trkpt><trkpt lat="43.19022798669809" lon="11.721603540742134"><ele>334.0</ele><time>2026-03-25T11:24:32Z</time></trkpt><trkpt lat="43.19028291426038" lon="11.721653576354749"><ele>334.0</ele><time>2026-03-25T11:24:33Z</time></trkpt><trkpt lat="43.1903486813513" lon="11.721703270241257"><ele>334.0</ele><time>2026-03-25T11:24:34Z</time></trkpt><trkpt lat="43.190425461901235" lon="11.721754943278825"><ele>334.0</ele><time>2026-03-25T11:24:35Z</time></trkpt><trkpt lat="43.19049581426117" lon="11.721811349037427"><ele>334.0</ele><time>2026-03-25T11:24:36Z</time></trkpt><trkpt lat="43.19056532564456" lon="11.721867115136734"><ele>334.0</ele><time>2026-03-25T11:24:37Z</time></trkpt><trkpt lat="43.190631086771084" lon="11.721925260939614"><ele>332.7142857142857</ele><time>2026-03-25T11:24:38Z</time></trkpt><trkpt lat="43.190698130496834" lon="11.721981171755035"><ele>331.42857142857144</ele><time>2026-03-25T11:24:39Z</time></trkpt><trkpt lat="43.19075302407321" lon="11.722042707395492"><ele>330.1428571428571</ele><time>2026-03-25T11:24:40Z</time></trkpt><trkpt lat="43.19081060366259" lon="11.72209849013431"><ele>328.8571428571429</ele><time>2026-03-25T11:24:41Z</time></trkpt><trkpt lat="43.19086830277701" lon="11.722163311540736"><ele>327.5714285714286</ele><time>2026-03-25T11:24:42Z</time></trkpt><trkpt lat="43.19093180086684" lon="11.722218164635304"><ele>326.2857142857143</ele><time>2026-03-25T11:24:43Z</time></trkpt><trkpt lat="43.190992923203524" lon="11.72227842663147"><ele>325.0</ele><time>2026-03-25T11:24:44Z</time></trkpt><trkpt lat="43.19105248805948" lon="11.722339989151285"><ele>325.0</ele><time>2026-03-25T11:24:45Z</time></trkpt><trkpt lat="43.191125215753395" lon="11.722416351858364"><ele>325.0</ele><time>2026-03-25T11:24:46Z</time></trkpt><trkpt lat="43.19116930201187" lon="11.722489643137228"><ele>325.0</ele><time>2026-03-25T11:24:47Z</time></trkpt><trkpt lat="43.191220539133056" lon="11.722567678282525"><ele>325.0</ele><time>2026-03-25T11:24:49Z</time></trkpt><trkpt lat="43.19127517825846" lon="11.722670257737885"><ele>325.0</ele><time>2026-03-25T11:24:51Z</time></trkpt><trkpt lat="43.191316349246364" lon="11.722750654251467"><ele>325.0</ele><time>2026-03-25T11:24:52Z</time></trkpt><trkpt lat="43.191362201448925" lon="11.722833532065298"><ele>324.66666666666663</ele><time>2026-03-25T11:24:53Z</time></trkpt><trkpt lat="43.19140920185832" lon="11.722914971384002"><ele>324.3333333333333</ele><time>2026-03-25T11:24:54Z</time></trkpt><trkpt lat="43.19145763039163" lon="11.722997611844377"><ele>324.0</ele><time>2026-03-25T11:24:55Z</time></trkpt><trkpt lat="43.19152125964916" lon="11.723094151333646"><ele>323.6666666666667</ele><time>2026-03-25T11:24:57Z</time></trkpt><trkpt lat="43.191556650482546" lon="11.723185029687993"><ele>323.33333333333337</ele><time>2026-03-25T11:25:00.999Z</time></trkpt><trkpt lat="43.19160489567823" lon="11.723290660960153"><ele>323.0</ele><time>2026-03-25T11:25:03.999Z</time></trkpt><trkpt lat="43.191646786424094" lon="11.723364090607136"><ele>323.0</ele><time>2026-03-25T11:25:05.999Z</time></trkpt><trkpt lat="43.1916921946721" lon="11.723435493715295"><ele>323.0</ele><time>2026-03-25T11:25:07.999Z</time></trkpt><trkpt lat="43.19177900434343" lon="11.72343937505276"><ele>323.0</ele><time>2026-03-25T11:25:09.999Z</time></trkpt><trkpt lat="43.19184886102228" lon="11.723509281452253"><ele>323.0</ele><time>2026-03-25T11:25:11.999Z</time></trkpt><trkpt lat="43.19191324672711" lon="11.723573814529134"><ele>323.0</ele><time>2026-03-25T11:25:13.999Z</time></trkpt><trkpt lat="43.19199228135219" lon="11.72367541349865"><ele>323.0</ele><time>2026-03-25T11:25:16.999Z</time></trkpt><trkpt lat="43.19204112401128" lon="11.723757760689262"><ele>322.83333333333337</ele><time>2026-03-25T11:25:18.999Z</time></trkpt><trkpt lat="43.192107423870546" lon="11.723856816242053"><ele>322.6666666666667</ele><time>2026-03-25T11:25:20.999Z</time></trkpt><trkpt lat="43.19215193469189" lon="11.723936988662727"><ele>322.5</ele><time>2026-03-25T11:25:22.999Z</time></trkpt><trkpt lat="43.192193752788405" lon="11.724028973441065"><ele>322.3333333333333</ele><time>2026-03-25T11:25:24.999Z</time></trkpt><trkpt lat="43.192233497112035" lon="11.724127814834718"><ele>322.16666666666663</ele><time>2026-03-25T11:25:26.999Z</time></trkpt><trkpt lat="43.19227726096991" lon="11.72419363607207"><ele>322.0</ele><time>2026-03-25T11:25:28.999Z</time></trkpt><trkpt lat="43.19233142545685" lon="11.724251776967877"><ele>321.6</ele><time>2026-03-25T11:25:30.999Z</time></trkpt><trkpt lat="43.19239612678768" lon="11.724319479844265"><ele>321.20000000000005</ele><time>2026-03-25T11:25:33.999Z</time></trkpt><trkpt lat="43.19246514142876" lon="11.724398924097695"><ele>320.8</ele><time>2026-03-25T11:25:36.999Z</time></trkpt><trkpt lat="43.19255772981335" lon="11.724492233528197"><ele>320.4</ele><time>2026-03-25T11:25:38.999Z</time></trkpt><trkpt lat="43.19265865166552" lon="11.724575290982155"><ele>320.0</ele><time>2026-03-25T11:25:40.999Z</time></trkpt><trkpt lat="43.19273020964722" lon="11.724699678556847"><ele>320.0</ele><time>2026-03-25T11:25:42.999Z</time></trkpt><trkpt lat="43.192777841397024" lon="11.72484245968816"><ele>320.0</ele><time>2026-03-25T11:25:44.999Z</time></trkpt><trkpt lat="43.192825120387766" lon="11.724962723156153"><ele>320.0</ele><time>2026-03-25T11:25:46.999Z</time></trkpt><trkpt lat="43.19289441779032" lon="11.725134020513654"><ele>320.0</ele><time>2026-03-25T11:25:48.999Z</time></trkpt><trkpt lat="43.19293907563227" lon="11.725233139087623"><ele>320.0</ele><time>2026-03-25T11:25:49.999Z</time></trkpt><trkpt lat="43.19298279529245" lon="11.725318967372205"><ele>319.42857142857144</ele><time>2026-03-25T11:25:50.999Z</time></trkpt><trkpt lat="43.193024718350856" lon="11.725392063663955"><ele>318.8571428571429</ele><time>2026-03-25T11:25:51.999Z</time></trkpt><trkpt lat="43.1930689811537" lon="11.725467693415379"><ele>318.28571428571433</ele><time>2026-03-25T11:25:52.999Z</time></trkpt><trkpt lat="43.19310655206257" lon="11.72554763471675"><ele>317.7142857142857</ele><time>2026-03-25T11:25:53.999Z</time></trkpt><trkpt lat="43.19312854492335" lon="11.725642053874527"><ele>317.14285714285717</ele><time>2026-03-25T11:25:54.999Z</time></trkpt><trkpt lat="43.19316448165614" lon="11.725722445778294"><ele>316.5714285714286</ele><time>2026-03-25T11:25:55.999Z</time></trkpt><trkpt lat="43.19320102218058" lon="11.725809161913102"><ele>316.0</ele><time>2026-03-25T11:25:56.999Z</time></trkpt><trkpt lat="43.193247686869185" lon="11.725895583579826"><ele>316.0</ele><time>2026-03-25T11:25:57.999Z</time></trkpt><trkpt lat="43.193274439095134" lon="11.7259858189187"><ele>316.0</ele><time>2026-03-25T11:25:58.999Z</time></trkpt><trkpt lat="43.19330405068965" lon="11.726088385644125"><ele>316.0</ele><time>2026-03-25T11:25:59.999Z</time></trkpt><trkpt lat="43.193331465430276" lon="11.726188305552538"><ele>316.0</ele><time>2026-03-25T11:26:00.999Z</time></trkpt><trkpt lat="43.193355136310075" lon="11.726293783183785"><ele>316.0</ele><time>2026-03-25T11:26:01.999Z</time></trkpt><trkpt lat="43.19333002968633" lon="11.72640032268857"><ele>316.0</ele><time>2026-03-25T11:26:02.999Z</time></trkpt><trkpt lat="43.19333935093471" lon="11.72655177840529"><ele>315.16666666666663</ele><time>2026-03-25T11:26:03.999Z</time></trkpt><trkpt lat="43.19336949666919" lon="11.726667038352423"><ele>314.3333333333333</ele><time>2026-03-25T11:26:04.999Z</time></trkpt><trkpt lat="43.193397813784806" lon="11.726789308038855"><ele>313.5</ele><time>2026-03-25T11:26:05.999Z</time></trkpt><trkpt lat="43.19342272420362" lon="11.726896868074906"><ele>312.6666666666667</ele><time>2026-03-25T11:26:06.999Z</time></trkpt><trkpt lat="43.19345306322909" lon="11.727015212613308"><ele>311.83333333333337</ele><time>2026-03-25T11:26:07.999Z</time></trkpt><trkpt lat="43.19348989626819" lon="11.727115327482704"><ele>311.0</ele><time>2026-03-25T11:26:08.999Z</time></trkpt><trkpt lat="43.193524315911645" lon="11.727209806541223"><ele>309.0</ele><time>2026-03-25T11:26:09.999Z</time></trkpt><trkpt lat="43.19359449351864" lon="11.727342672009533"><ele>307.0</ele><time>2026-03-25T11:26:10.999Z</time></trkpt><trkpt lat="43.19364999646205" lon="11.727473031182198"><ele>305.0</ele><time>2026-03-25T11:26:11.999Z</time></trkpt><trkpt lat="43.193729570416465" lon="11.727608565172856"><ele>303.0</ele><time>2026-03-25T11:26:12.999Z</time></trkpt><trkpt lat="43.193813343183905" lon="11.727745138532876"><ele>303.1666666666667</ele><time>2026-03-25T11:26:13.999Z</time></trkpt><trkpt lat="43.19387637845382" lon="11.727849404732728"><ele>303.3333333333333</ele><time>2026-03-25T11:26:14.999Z</time></trkpt><trkpt lat="43.1939483869646" lon="11.727936824968417"><ele>303.5</ele><time>2026-03-25T11:26:15.999Z</time></trkpt><trkpt lat="43.194001790949414" lon="11.728036894806115"><ele>303.66666666666663</ele><time>2026-03-25T11:26:16.999Z</time></trkpt><trkpt lat="43.19405288270462" lon="11.728122046231649"><ele>303.8333333333333</ele><time>2026-03-25T11:26:17.999Z</time></trkpt><trkpt lat="43.194089247840196" lon="11.7281946269573"><ele>304.0</ele><time>2026-03-25T11:26:18.999Z</time></trkpt><trkpt lat="43.19414749929152" lon="11.72830281036049"><ele>304.0</ele><time>2026-03-25T11:26:19.999Z</time></trkpt><trkpt lat="43.194209392594296" lon="11.72840495576422"><ele>304.0</ele><time>2026-03-25T11:26:20.999Z</time></trkpt><trkpt lat="43.19426796768951" lon="11.72850886112953"><ele>304.0</ele><time>2026-03-25T11:26:21.999Z</time></trkpt><trkpt lat="43.194327875534945" lon="11.728620155794097"><ele>304.0</ele><time>2026-03-25T11:26:22.999Z</time></trkpt><trkpt lat="43.19439133029683" lon="11.728728627661896"><ele>304.0</ele><time>2026-03-25T11:26:23.999Z</time></trkpt><trkpt lat="43.19445262847835" lon="11.728837379941588"><ele>302.4</ele><time>2026-03-25T11:26:24.999Z</time></trkpt><trkpt lat="43.19451266449431" lon="11.728945950598108"><ele>300.79999999999995</ele><time>2026-03-25T11:26:25.999Z</time></trkpt><trkpt lat="43.19456735585208" lon="11.729058833958149"><ele>299.20000000000005</ele><time>2026-03-25T11:26:27Z</time></trkpt><trkpt lat="43.19461956707867" lon="11.729172943794264"><ele>297.6</ele><time>2026-03-25T11:26:28Z</time></trkpt><trkpt lat="43.194681130297774" lon="11.729294251826557"><ele>296.0</ele><time>2026-03-25T11:26:29Z</time></trkpt><trkpt lat="43.194749735927864" lon="11.729414285677777"><ele>296.0</ele><time>2026-03-25T11:26:30Z</time></trkpt><trkpt lat="43.19481357079496" lon="11.729522985866902"><ele>296.0</ele><time>2026-03-25T11:26:31Z</time></trkpt><trkpt lat="43.194853679743595" lon="11.729648264968395"><ele>296.0</ele><time>2026-03-25T11:26:32Z</time></trkpt><trkpt lat="43.194904638595865" lon="11.729783643706607"><ele>296.0</ele><time>2026-03-25T11:26:33Z</time></trkpt><trkpt lat="43.19494074865691" lon="11.729952101313861"><ele>296.0</ele><time>2026-03-25T11:26:34Z</time></trkpt><trkpt lat="43.19498231439188" lon="11.730112812670283"><ele>295.25</ele><time>2026-03-25T11:26:35Z</time></trkpt><trkpt lat="43.195017003606445" lon="11.730282697892754"><ele>294.5</ele><time>2026-03-25T11:26:36Z</time></trkpt><trkpt lat="43.195047677612585" lon="11.73045399426952"><ele>293.75</ele><time>2026-03-25T11:26:37Z</time></trkpt><trkpt lat="43.19507293247657" lon="11.730625453462553"><ele>293.0</ele><time>2026-03-25T11:26:38Z</time></trkpt><trkpt lat="43.195101194370224" lon="11.730782421995384"><ele>293.0</ele><time>2026-03-25T11:26:39Z</time></trkpt><trkpt lat="43.195139667652896" lon="11.73094051514588"><ele>293.0</ele><time>2026-03-25T11:26:40Z</time></trkpt><trkpt lat="43.19517788381607" lon="11.731101239264488"><ele>293.0</ele><time>2026-03-25T11:26:41Z</time></trkpt><trkpt lat="43.19519884515003" lon="11.731209757634877"><ele>293.0</ele><time>2026-03-25T11:26:42Z</time></trkpt><trkpt lat="43.195224911253064" lon="11.731304502076522"><ele>293.0</ele><time>2026-03-25T11:26:43Z</time></trkpt><trkpt lat="43.19526477524962" lon="11.731405668608424"><ele>290.5</ele><time>2026-03-25T11:26:44Z</time></trkpt><trkpt lat="43.195326495396834" lon="11.731518870145793"><ele>288.0</ele><time>2026-03-25T11:26:45Z</time></trkpt><trkpt lat="43.195402626949395" lon="11.731630368967993"><ele>285.5</ele><time>2026-03-25T11:26:46Z</time></trkpt><trkpt lat="43.19549898504448" lon="11.731738332206353"><ele>283.0</ele><time>2026-03-25T11:26:47Z</time></trkpt><trkpt lat="43.19557659526031" lon="11.731849313138076"><ele>283.2</ele><time>2026-03-25T11:26:48Z</time></trkpt><trkpt lat="43.19564089195723" lon="11.731962308192845"><ele>283.4</ele><time>2026-03-25T11:26:49Z</time></trkpt><trkpt lat="43.19568340774218" lon="11.732075562924178"><ele>283.59999999999997</ele><time>2026-03-25T11:26:50Z</time></trkpt><trkpt lat="43.195706838911875" lon="11.732185177150548"><ele>283.8</ele><time>2026-03-25T11:26:51Z</time></trkpt><trkpt lat="43.19573078065425" lon="11.732319159323596"><ele>284.0</ele><time>2026-03-25T11:26:52Z</time></trkpt><trkpt lat="43.195751590741914" lon="11.732430941802132"><ele>284.0</ele><time>2026-03-25T11:26:53Z</time></trkpt><trkpt lat="43.19578332703661" lon="11.732539659364292"><ele>284.0</ele><time>2026-03-25T11:26:54Z</time></trkpt><trkpt lat="43.195828364160135" lon="11.732654597445697"><ele>284.0</ele><time>2026-03-25T11:26:55Z</time></trkpt><trkpt lat="43.19588083850338" lon="11.7327740137251"><ele>284.0</ele><time>2026-03-25T11:26:56Z</time></trkpt><trkpt lat="43.19593454726413" lon="11.732873049517334"><ele>284.0</ele><time>2026-03-25T11:26:57Z</time></trkpt><trkpt lat="43.19600856360935" lon="11.732980115868948"><ele>282.8</ele><time>2026-03-25T11:26:58Z</time></trkpt><trkpt lat="43.196097975380766" lon="11.733082788651389"><ele>281.59999999999997</ele><time>2026-03-25T11:26:59Z</time></trkpt><trkpt lat="43.19619218357479" lon="11.733181916583463"><ele>280.4</ele><time>2026-03-25T11:27:00Z</time></trkpt><trkpt lat="43.19626033690115" lon="11.733292471165106"><ele>279.2</ele><time>2026-03-25T11:27:01Z</time></trkpt><trkpt lat="43.196340339121825" lon="11.733389946860289"><ele>278.0</ele><time>2026-03-25T11:27:02Z</time></trkpt><trkpt lat="43.19640974842465" lon="11.733480657165098"><ele>277.4</ele><time>2026-03-25T11:27:03Z</time></trkpt><trkpt lat="43.19648929381286" lon="11.733568362679174"><ele>276.8</ele><time>2026-03-25T11:27:04Z</time></trkpt><trkpt lat="43.196532598230164" lon="11.73369503871388"><ele>276.2</ele><time>2026-03-25T11:27:05Z</time></trkpt><trkpt lat="43.196575219932555" lon="11.733808123854377"><ele>275.6</ele><time>2026-03-25T11:27:06Z</time></trkpt><trkpt lat="43.19661971570583" lon="11.733922800543628"><ele>275.0</ele><time>2026-03-25T11:27:07Z</time></trkpt><trkpt lat="43.19667352428455" lon="11.734021034271114"><ele>275.0</ele><time>2026-03-25T11:27:08Z</time></trkpt><trkpt lat="43.19671242584376" lon="11.734095251190485"><ele>275.0</ele><time>2026-03-25T11:27:09Z</time></trkpt><trkpt lat="43.19678835230865" lon="11.734162761164262"><ele>275.0</ele><time>2026-03-25T11:27:10Z</time></trkpt><trkpt lat="43.19686335607155" lon="11.734208813844788"><ele>275.0</ele><time>2026-03-25T11:27:11Z</time></trkpt><trkpt lat="43.19694840211103" lon="11.734240761137011"><ele>275.0</ele><time>2026-03-25T11:27:12Z</time></trkpt><trkpt lat="43.19704389344304" lon="11.734240658751439"><ele>275.0</ele><time>2026-03-25T11:27:13Z</time></trkpt><trkpt lat="43.197150470516476" lon="11.734213892039168"><ele>275.0</ele><time>2026-03-25T11:27:14Z</time></trkpt><trkpt lat="43.197256711720634" lon="11.734180666843418"><ele>275.0</ele><time>2026-03-25T11:27:15Z</time></trkpt><trkpt lat="43.197355897985645" lon="11.734142526191174"><ele>275.0</ele><time>2026-03-25T11:27:16Z</time></trkpt><trkpt lat="43.19745171290238" lon="11.73410442572614"><ele>275.0</ele><time>2026-03-25T11:27:16.999Z</time></trkpt><trkpt lat="43.19754569492044" lon="11.734071394973759"><ele>275.0</ele><time>2026-03-25T11:27:17.999Z</time></trkpt><trkpt lat="43.19763486224568" lon="11.734043740280987"><ele>274.2</ele><time>2026-03-25T11:27:18.999Z</time></trkpt><trkpt lat="43.197729594272204" lon="11.734024276722318"><ele>273.4</ele><time>2026-03-25T11:27:19.999Z</time></trkpt><trkpt lat="43.197830134770484" lon="11.734008357303574"><ele>272.6</ele><time>2026-03-25T11:27:20.999Z</time></trkpt><trkpt lat="43.19792868797427" lon="11.734004570404252"><ele>271.8</ele><time>2026-03-25T11:27:21.999Z</time></trkpt><trkpt lat="43.198024271383154" lon="11.734008860687078"><ele>271.0</ele><time>2026-03-25T11:27:22.999Z</time></trkpt><trkpt lat="43.198121922954016" lon="11.734001076843404"><ele>270.75</ele><time>2026-03-25T11:27:23.999Z</time></trkpt><trkpt lat="43.19821211914012" lon="11.733990943207395"><ele>270.5</ele><time>2026-03-25T11:27:24.999Z</time></trkpt><trkpt lat="43.198322142579144" lon="11.733983922465073"><ele>270.25</ele><time>2026-03-25T11:27:25.999Z</time></trkpt><trkpt lat="43.19845486378462" lon="11.733978797437649"><ele>270.0</ele><time>2026-03-25T11:27:26.999Z</time></trkpt><trkpt lat="43.198614248282944" lon="11.733988902168118"><ele>270.0</ele><time>2026-03-25T11:27:27.999Z</time></trkpt><trkpt lat="43.198789561575204" lon="11.734024800017535"><ele>270.0</ele><time>2026-03-25T11:27:28.999Z</time></trkpt><trkpt lat="43.1989484696261" lon="11.734058392753479"><ele>270.0</ele><time>2026-03-25T11:27:29.999Z</time></trkpt><trkpt lat="43.1990962279333" lon="11.734093075701509"><ele>269.25</ele><time>2026-03-25T11:27:30.999Z</time></trkpt><trkpt lat="43.19922816076687" lon="11.734129597239688"><ele>268.5</ele><time>2026-03-25T11:27:31.999Z</time></trkpt><trkpt lat="43.19934823828318" lon="11.734163368814775"><ele>267.75</ele><time>2026-03-25T11:27:32.999Z</time></trkpt><trkpt lat="43.1994568512886" lon="11.734193363844788"><ele>267.0</ele><time>2026-03-25T11:27:33.999Z</time></trkpt><trkpt lat="43.199556066867174" lon="11.734212732461211"><ele>267.0</ele><time>2026-03-25T11:27:34.999Z</time></trkpt><trkpt lat="43.199641347459014" lon="11.73423026793973"><ele>267.0</ele><time>2026-03-25T11:27:35.999Z</time></trkpt><trkpt lat="43.19972178270352" lon="11.734253669814088"><ele>267.0</ele><time>2026-03-25T11:27:36.999Z</time></trkpt><trkpt lat="43.19979643806845" lon="11.734270254183725"><ele>267.0</ele><time>2026-03-25T11:27:37.999Z</time></trkpt><trkpt lat="43.19986185315747" lon="11.734281366489057"><ele>267.0</ele><time>2026-03-25T11:27:38.999Z</time></trkpt><trkpt lat="43.19994500088705" lon="11.734303476208794"><ele>267.0</ele><time>2026-03-25T11:27:40.999Z</time></trkpt><trkpt lat="43.20000768746571" lon="11.734335412010509"><ele>267.5</ele><time>2026-03-25T11:27:44.999Z</time></trkpt><trkpt lat="43.20006934499285" lon="11.7342020325935"><ele>268.0</ele><time>2026-03-25T11:27:51.999Z</time></trkpt><trkpt lat="43.20004962448056" lon="11.734072591664171"><ele>268.5</ele><time>2026-03-25T11:27:52.999Z</time></trkpt><trkpt lat="43.20002561264008" lon="11.733910172667981"><ele>269.0</ele><time>2026-03-25T11:27:53.999Z</time></trkpt><trkpt lat="43.200016679454954" lon="11.73371228994951"><ele>269.0</ele><time>2026-03-25T11:27:54.999Z</time></trkpt><trkpt lat="43.19998980378077" lon="11.733481893079686"><ele>269.0</ele><time>2026-03-25T11:27:55.999Z</time></trkpt><trkpt lat="43.199957627053074" lon="11.73322722713513"><ele>269.0</ele><time>2026-03-25T11:27:56.999Z</time></trkpt><trkpt lat="43.199924851732185" lon="11.732960010589537"><ele>269.6666666666667</ele><time>2026-03-25T11:27:57.999Z</time></trkpt><trkpt lat="43.19989231020626" lon="11.732676643439488"><ele>270.3333333333333</ele><time>2026-03-25T11:27:58.999Z</time></trkpt><trkpt lat="43.19986215763202" lon="11.732391233984776"><ele>271.0</ele><time>2026-03-25T11:27:59.999Z</time></trkpt><trkpt lat="43.19983366155122" lon="11.732108102002131"><ele>270.66666666666663</ele><time>2026-03-25T11:28:00.999Z</time></trkpt><trkpt lat="43.199799511675174" lon="11.731835392973057"><ele>270.3333333333333</ele><time>2026-03-25T11:28:01.999Z</time></trkpt><trkpt lat="43.199768336998204" lon="11.731565002507667"><ele>270.0</ele><time>2026-03-25T11:28:02.999Z</time></trkpt><trkpt lat="43.199741288507155" lon="11.73129815047693"><ele>270.0</ele><time>2026-03-25T11:28:03.999Z</time></trkpt><trkpt lat="43.19971642038757" lon="11.731052226604858"><ele>270.0</ele><time>2026-03-25T11:28:04.999Z</time></trkpt><trkpt lat="43.19969158310622" lon="11.7308206486956"><ele>270.0</ele><time>2026-03-25T11:28:05.999Z</time></trkpt><trkpt lat="43.199665219808864" lon="11.730598986898698"><ele>270.0</ele><time>2026-03-25T11:28:06.999Z</time></trkpt><trkpt lat="43.19964260296885" lon="11.730381212484675"><ele>270.0</ele><time>2026-03-25T11:28:07.999Z</time></trkpt><trkpt lat="43.19962932752022" lon="11.730185615046919"><ele>270.0</ele><time>2026-03-25T11:28:08.999Z</time></trkpt><trkpt lat="43.19961076722853" lon="11.730003951176528"><ele>270.0</ele><time>2026-03-25T11:28:09.999Z</time></trkpt><trkpt lat="43.19958860975281" lon="11.729808271270377"><ele>270.25</ele><time>2026-03-25T11:28:10.999Z</time></trkpt><trkpt lat="43.199568045234926" lon="11.729605095727337"><ele>270.5</ele><time>2026-03-25T11:28:11.999Z</time></trkpt><trkpt lat="43.199544804206894" lon="11.729402822395906"><ele>270.75</ele><time>2026-03-25T11:28:12.999Z</time></trkpt><trkpt lat="43.19952441899288" lon="11.72920621717703"><ele>271.0</ele><time>2026-03-25T11:28:13.999Z</time></trkpt><trkpt lat="43.199507365969914" lon="11.729022067471368"><ele>271.2</ele><time>2026-03-25T11:28:14.999Z</time></trkpt><trkpt lat="43.19949163337841" lon="11.728859459290275"><ele>271.40000000000003</ele><time>2026-03-25T11:28:15.999Z</time></trkpt><trkpt lat="43.19947060125596" lon="11.728717134951244"><ele>271.6</ele><time>2026-03-25T11:28:16.999Z</time></trkpt><trkpt lat="43.199458454845896" lon="11.728597071391775"><ele>271.8</ele><time>2026-03-25T11:28:17.999Z</time></trkpt><trkpt lat="43.199447927925995" lon="11.728509006217791"><ele>272.0</ele><time>2026-03-25T11:28:18.999Z</time></trkpt><trkpt lat="43.19943891199708" lon="11.728396896611004"><ele>272.0</ele><time>2026-03-25T11:28:20.999Z</time></trkpt><trkpt lat="43.199523279734095" lon="11.72850771308583"><ele>272.0</ele><time>2026-03-25T11:28:24.999Z</time></trkpt><trkpt lat="43.1995840287627" lon="11.728596810551121"><ele>272.0</ele><time>2026-03-25T11:28:25.999Z</time></trkpt><trkpt lat="43.19961940343407" lon="11.728724692484233"><ele>272.0</ele><time>2026-03-25T11:28:26.999Z</time></trkpt><trkpt lat="43.19964345110159" lon="11.728861432504349"><ele>272.0</ele><time>2026-03-25T11:28:27.999Z</time></trkpt><trkpt lat="43.19966587770316" lon="11.729032248077461"><ele>272.0</ele><time>2026-03-25T11:28:28.999Z</time></trkpt><trkpt lat="43.19968440199023" lon="11.729199252622305"><ele>272.0</ele><time>2026-03-25T11:28:29.999Z</time></trkpt><trkpt lat="43.19970725040805" lon="11.729334664745842"><ele>272.0</ele><time>2026-03-25T11:28:30.999Z</time></trkpt><trkpt lat="43.19975278480212" lon="11.729477179336442"><ele>272.0</ele><time>2026-03-25T11:28:31.999Z</time></trkpt><trkpt lat="43.19981468034395" lon="11.729622286397493"><ele>272.75</ele><time>2026-03-25T11:28:33Z</time></trkpt><trkpt lat="43.19988964375479" lon="11.729777208957787"><ele>273.5</ele><time>2026-03-25T11:28:34Z</time></trkpt><trkpt lat="43.199966767825394" lon="11.729938390940813"><ele>274.25</ele><time>2026-03-25T11:28:35Z</time></trkpt><trkpt lat="43.20003873252799" lon="11.730073985135025"><ele>275.0</ele><time>2026-03-25T11:28:36Z</time></trkpt><trkpt lat="43.200103707292826" lon="11.730193715813039"><ele>274.8</ele><time>2026-03-25T11:28:37Z</time></trkpt><trkpt lat="43.200164743323455" lon="11.730299634155358"><ele>274.6</ele><time>2026-03-25T11:28:38Z</time></trkpt><trkpt lat="43.20017364480813" lon="11.730420894626427"><ele>274.4</ele><time>2026-03-25T11:28:39Z</time></trkpt><trkpt lat="43.20018332136465" lon="11.73052048653234"><ele>274.2</ele><time>2026-03-25T11:28:40Z</time></trkpt><trkpt lat="43.20019217722486" lon="11.730654557533876"><ele>274.0</ele><time>2026-03-25T11:28:41Z</time></trkpt><trkpt lat="43.20019552657467" lon="11.730842964229785"><ele>274.0</ele><time>2026-03-25T11:28:42Z</time></trkpt><trkpt lat="43.20020389172022" lon="11.731018339381249"><ele>274.0</ele><time>2026-03-25T11:28:43Z</time></trkpt><trkpt lat="43.20021755544608" lon="11.73114733523304"><ele>274.0</ele><time>2026-03-25T11:28:44Z</time></trkpt><trkpt lat="43.20023831349604" lon="11.731279674555068"><ele>274.0</ele><time>2026-03-25T11:28:45Z</time></trkpt><trkpt lat="43.200299831160685" lon="11.73142654068952"><ele>274.0</ele><time>2026-03-25T11:28:46Z</time></trkpt><trkpt lat="43.20035154417351" lon="11.731583547334157"><ele>273.3333333333333</ele><time>2026-03-25T11:28:47Z</time></trkpt><trkpt lat="43.20043368435185" lon="11.731775088796107"><ele>272.6666666666667</ele><time>2026-03-25T11:28:48Z</time></trkpt><trkpt lat="43.20051659713375" lon="11.73197989745921"><ele>272.0</ele><time>2026-03-25T11:28:49Z</time></trkpt><trkpt lat="43.20058120223352" lon="11.732159710947473"><ele>271.75</ele><time>2026-03-25T11:28:50Z</time></trkpt><trkpt lat="43.2006336172777" lon="11.73231984075525"><ele>271.5</ele><time>2026-03-25T11:28:51Z</time></trkpt><trkpt lat="43.20066697579272" lon="11.732466741006593"><ele>271.25</ele><time>2026-03-25T11:28:52Z</time></trkpt><trkpt lat="43.2006680486251" lon="11.732619357344777"><ele>271.0</ele><time>2026-03-25T11:28:53Z</time></trkpt><trkpt lat="43.20067779486976" lon="11.732771857166508"><ele>272.0</ele><time>2026-03-25T11:28:54Z</time></trkpt><trkpt lat="43.200688600157044" lon="11.732927403968173"><ele>273.0</ele><time>2026-03-25T11:28:55Z</time></trkpt><trkpt lat="43.20071024784626" lon="11.733062073994745"><ele>274.0</ele><time>2026-03-25T11:28:56Z</time></trkpt><trkpt lat="43.20072140953379" lon="11.733173327369988"><ele>275.0</ele><time>2026-03-25T11:28:57Z</time></trkpt><trkpt lat="43.20075807685754" lon="11.733296684540585"><ele>276.0</ele><time>2026-03-25T11:28:58Z</time></trkpt><trkpt lat="43.200814470851796" lon="11.733419140179555"><ele>275.5</ele><time>2026-03-25T11:28:59Z</time></trkpt><trkpt lat="43.200882246043335" lon="11.733572339327822"><ele>275.0</ele><time>2026-03-25T11:29:00Z</time></trkpt><trkpt lat="43.200966479294635" lon="11.73373110188579"><ele>274.5</ele><time>2026-03-25T11:29:01Z</time></trkpt><trkpt lat="43.201040295424185" lon="11.733871433551325"><ele>274.0</ele><time>2026-03-25T11:29:02Z</time></trkpt><trkpt lat="43.201106396264755" lon="11.733993319439286"><ele>274.0</ele><time>2026-03-25T11:29:03Z</time></trkpt><trkpt lat="43.20116567975223" lon="11.734115123900962"><ele>274.0</ele><time>2026-03-25T11:29:04Z</time></trkpt><trkpt lat="43.20120876167846" lon="11.734214214996474"><ele>274.0</ele><time>2026-03-25T11:29:05Z</time></trkpt><trkpt lat="43.201231835287516" lon="11.734323745346776"><ele>274.0</ele><time>2026-03-25T11:29:06Z</time></trkpt><trkpt lat="43.20125597115591" lon="11.734416482268422"><ele>274.0</ele><time>2026-03-25T11:29:07Z</time></trkpt><trkpt lat="43.2012807784572" lon="11.734506671447875"><ele>274.0</ele><time>2026-03-25T11:29:08Z</time></trkpt><trkpt lat="43.201312703026325" lon="11.734643630737464"><ele>273.66666666666663</ele><time>2026-03-25T11:29:10Z</time></trkpt><trkpt lat="43.20135973803645" lon="11.734708505927445"><ele>273.3333333333333</ele><time>2026-03-25T11:29:15Z</time></trkpt><trkpt lat="43.201430991487456" lon="11.734613823122515"><ele>273.0</ele><time>2026-03-25T11:29:17Z</time></trkpt><trkpt lat="43.20147670356308" lon="11.734525668114946"><ele>272.6666666666667</ele><time>2026-03-25T11:29:18Z</time></trkpt><trkpt lat="43.2015248417112" lon="11.734416170338294"><ele>272.33333333333337</ele><time>2026-03-25T11:29:19Z</time></trkpt><trkpt lat="43.20157466203316" lon="11.734309010918627"><ele>272.0</ele><time>2026-03-25T11:29:20Z</time></trkpt><trkpt lat="43.20163262515874" lon="11.734191633059863"><ele>274.0</ele><time>2026-03-25T11:29:21Z</time></trkpt><trkpt lat="43.20169511792655" lon="11.73406920327795"><ele>276.0</ele><time>2026-03-25T11:29:22Z</time></trkpt><trkpt lat="43.201763282729274" lon="11.733942238678367"><ele>278.0</ele><time>2026-03-25T11:29:23Z</time></trkpt><trkpt lat="43.20182973846114" lon="11.733796980332226"><ele>280.0</ele><time>2026-03-25T11:29:24Z</time></trkpt><trkpt lat="43.20190573457726" lon="11.733622946282505"><ele>280.75</ele><time>2026-03-25T11:29:25Z</time></trkpt><trkpt lat="43.2019847030696" lon="11.733453800463161"><ele>281.5</ele><time>2026-03-25T11:29:26Z</time></trkpt><trkpt lat="43.2020664955329" lon="11.733295392448598"><ele>282.25</ele><time>2026-03-25T11:29:27Z</time></trkpt><trkpt lat="43.20212857494886" lon="11.733165351961798"><ele>283.0</ele><time>2026-03-25T11:29:28Z</time></trkpt><trkpt lat="43.20216320020578" lon="11.733064368693809"><ele>283.0</ele><time>2026-03-25T11:29:29Z</time></trkpt><trkpt lat="43.20220721805742" lon="11.73291750355694"><ele>283.0</ele><time>2026-03-25T11:29:31Z</time></trkpt><trkpt lat="43.20223398718943" lon="11.732784306395535"><ele>283.0</ele><time>2026-03-25T11:29:32Z</time></trkpt><trkpt lat="43.20227139574507" lon="11.732593652499334"><ele>283.0</ele><time>2026-03-25T11:29:33Z</time></trkpt><trkpt lat="43.202316530033755" lon="11.732383103166198"><ele>283.3333333333333</ele><time>2026-03-25T11:29:34Z</time></trkpt><trkpt lat="43.20236729942506" lon="11.732145268261759"><ele>283.6666666666667</ele><time>2026-03-25T11:29:35Z</time></trkpt><trkpt lat="43.20243014089414" lon="11.73188757352586"><ele>284.0</ele><time>2026-03-25T11:29:36Z</time></trkpt><trkpt lat="43.20250951324321" lon="11.731623185481128"><ele>286.5</ele><time>2026-03-25T11:29:37Z</time></trkpt><trkpt lat="43.20260265136678" lon="11.731349207565097"><ele>289.0</ele><time>2026-03-25T11:29:38Z</time></trkpt><trkpt lat="43.202701144320855" lon="11.731046897914025"><ele>291.3333333333333</ele><time>2026-03-25T11:29:39Z</time></trkpt><trkpt lat="43.202796715048436" lon="11.730775640368593"><ele>293.6666666666667</ele><time>2026-03-25T11:29:40Z</time></trkpt><trkpt lat="43.20288133233622" lon="11.730507815574619"><ele>296.0</ele><time>2026-03-25T11:29:41Z</time></trkpt><trkpt lat="43.20295448942286" lon="11.730271762504659"><ele>295.6666666666667</ele><time>2026-03-25T11:29:42Z</time></trkpt><trkpt lat="43.20302584190072" lon="11.730048436799725"><ele>295.3333333333333</ele><time>2026-03-25T11:29:43Z</time></trkpt><trkpt lat="43.203119091590864" lon="11.729833503090402"><ele>295.0</ele><time>2026-03-25T11:29:44Z</time></trkpt><trkpt lat="43.2032170208337" lon="11.729619338492226"><ele>295.0</ele><time>2026-03-25T11:29:45Z</time></trkpt><trkpt lat="43.20331491572623" lon="11.72943654039392"><ele>295.0</ele><time>2026-03-25T11:29:45.999Z</time></trkpt><trkpt lat="43.20340806503101" lon="11.729264406775783"><ele>295.0</ele><time>2026-03-25T11:29:46.999Z</time></trkpt><trkpt lat="43.203494396016545" lon="11.72909245910725"><ele>296.5</ele><time>2026-03-25T11:29:47.999Z</time></trkpt><trkpt lat="43.203568957303055" lon="11.728955499023979"><ele>298.0</ele><time>2026-03-25T11:29:48.999Z</time></trkpt><trkpt lat="43.203645970005994" lon="11.728827138083188"><ele>299.5</ele><time>2026-03-25T11:29:49.999Z</time></trkpt><trkpt lat="43.20371725972186" lon="11.728693717021976"><ele>301.0</ele><time>2026-03-25T11:29:50.999Z</time></trkpt><trkpt lat="43.2037715015257" lon="11.728600948103196"><ele>301.0</ele><time>2026-03-25T11:29:51.999Z</time></trkpt><trkpt lat="43.2038162541227" lon="11.72853009324081"><ele>296.0</ele><time>2026-03-25T11:29:52.999Z</time></trkpt><trkpt lat="43.20388408824063" lon="11.72844192227169"><ele>296.0</ele><time>2026-03-25T11:29:54.999Z</time></trkpt><trkpt lat="43.204019853046304" lon="11.728601593107168"><ele>299.0</ele><time>2026-03-25T11:33:01Z</time></trkpt></trkseg></trk></gpx>